<?xml version="1.0" encoding="UTF-8" standalone="no" ?>
<gpx xmlns="http://www.topografix.com/GPX/1/1" xmlns:xsi="http://www.w3.org/2001/XMLSchema-instance" xsi:schemaLocation="http://www.topografix.com/GPX/1/1 http://www.topografix.com/GPX/1/1/gpx.xsd" version="1.1" creator="VisuGPX - https://www.visugpx.com">
  <metadata>
    <name>Cornetto di Fana (Gaishörndl)</name>
    <desc><![CDATA[Innervillgraten, Kalkstein - Cornetto di Fana (Gaishörndl)]]></desc>
  </metadata>
  <trk>
    <name><![CDATA[Cornetto_Fana_2015-02-26]]></name>
    <trkseg>
      <trkpt lat="46.8044" lon="12.31828">
        <ele>1656.01</ele>
        <time>2015-02-26T07:58:21Z</time>
      </trkpt>
      <trkpt lat="46.8044" lon="12.31828">
        <ele>1656.01</ele>
        <time>2015-02-26T07:58:22Z</time>
      </trkpt>
      <trkpt lat="46.80439" lon="12.31825">
        <ele>1655.05</ele>
        <time>2015-02-26T07:58:28Z</time>
      </trkpt>
      <trkpt lat="46.80435" lon="12.3182">
        <ele>1654.57</ele>
        <time>2015-02-26T07:58:41Z</time>
      </trkpt>
      <trkpt lat="46.80435" lon="12.31822">
        <ele>1654.57</ele>
        <time>2015-02-26T07:59:14Z</time>
      </trkpt>
      <trkpt lat="46.80435" lon="12.31822">
        <ele>1654.09</ele>
        <time>2015-02-26T07:59:48Z</time>
      </trkpt>
      <trkpt lat="46.80434" lon="12.31823">
        <ele>1654.09</ele>
        <time>2015-02-26T08:00:19Z</time>
      </trkpt>
      <trkpt lat="46.80433" lon="12.31824">
        <ele>1654.09</ele>
        <time>2015-02-26T08:00:55Z</time>
      </trkpt>
      <trkpt lat="46.80433" lon="12.31827">
        <ele>1654.09</ele>
        <time>2015-02-26T08:01:23Z</time>
      </trkpt>
      <trkpt lat="46.80433" lon="12.31826">
        <ele>1654.57</ele>
        <time>2015-02-26T08:02:05Z</time>
      </trkpt>
      <trkpt lat="46.80433" lon="12.31825">
        <ele>1654.57</ele>
        <time>2015-02-26T08:02:44Z</time>
      </trkpt>
      <trkpt lat="46.80432" lon="12.31825">
        <ele>1654.57</ele>
        <time>2015-02-26T08:03:17Z</time>
      </trkpt>
      <trkpt lat="46.80431" lon="12.31824">
        <ele>1654.09</ele>
        <time>2015-02-26T08:03:41Z</time>
      </trkpt>
      <trkpt lat="46.80433" lon="12.31822">
        <ele>1654.09</ele>
        <time>2015-02-26T08:04:12Z</time>
      </trkpt>
      <trkpt lat="46.80434" lon="12.31825">
        <ele>1654.09</ele>
        <time>2015-02-26T08:04:39Z</time>
      </trkpt>
      <trkpt lat="46.80434" lon="12.31818">
        <ele>1653.6</ele>
        <time>2015-02-26T08:05:12Z</time>
      </trkpt>
      <trkpt lat="46.80433" lon="12.31818">
        <ele>1653.6</ele>
        <time>2015-02-26T08:05:51Z</time>
      </trkpt>
      <trkpt lat="46.80433" lon="12.31816">
        <ele>1654.09</ele>
        <time>2015-02-26T08:06:28Z</time>
      </trkpt>
      <trkpt lat="46.80437" lon="12.31818">
        <ele>1653.6</ele>
        <time>2015-02-26T08:06:55Z</time>
      </trkpt>
      <trkpt lat="46.80438" lon="12.31817">
        <ele>1654.57</ele>
        <time>2015-02-26T08:07:09Z</time>
      </trkpt>
      <trkpt lat="46.80435" lon="12.31817">
        <ele>1654.09</ele>
        <time>2015-02-26T08:07:27Z</time>
      </trkpt>
      <trkpt lat="46.80436" lon="12.31817">
        <ele>1654.57</ele>
        <time>2015-02-26T08:07:44Z</time>
      </trkpt>
      <trkpt lat="46.80435" lon="12.31816">
        <ele>1654.09</ele>
        <time>2015-02-26T08:07:59Z</time>
      </trkpt>
      <trkpt lat="46.80433" lon="12.31823">
        <ele>1654.57</ele>
        <time>2015-02-26T08:08:15Z</time>
      </trkpt>
      <trkpt lat="46.80428" lon="12.31829">
        <ele>1654.57</ele>
        <time>2015-02-26T08:08:31Z</time>
      </trkpt>
      <trkpt lat="46.8042" lon="12.3183">
        <ele>1655.53</ele>
        <time>2015-02-26T08:08:45Z</time>
      </trkpt>
      <trkpt lat="46.80414" lon="12.31823">
        <ele>1656.97</ele>
        <time>2015-02-26T08:08:58Z</time>
      </trkpt>
      <trkpt lat="46.8041" lon="12.31827">
        <ele>1656.97</ele>
        <time>2015-02-26T08:09:14Z</time>
      </trkpt>
      <trkpt lat="46.80412" lon="12.31829">
        <ele>1656.97</ele>
        <time>2015-02-26T08:09:44Z</time>
      </trkpt>
      <trkpt lat="46.80414" lon="12.31829">
        <ele>1656.97</ele>
        <time>2015-02-26T08:10:04Z</time>
      </trkpt>
      <trkpt lat="46.80403" lon="12.31823">
        <ele>1657.93</ele>
        <time>2015-02-26T08:10:16Z</time>
      </trkpt>
      <trkpt lat="46.80399" lon="12.31822">
        <ele>1659.37</ele>
        <time>2015-02-26T08:10:32Z</time>
      </trkpt>
      <trkpt lat="46.80391" lon="12.31812">
        <ele>1660.81</ele>
        <time>2015-02-26T08:10:43Z</time>
      </trkpt>
      <trkpt lat="46.80384" lon="12.31805">
        <ele>1662.74</ele>
        <time>2015-02-26T08:10:55Z</time>
      </trkpt>
      <trkpt lat="46.80376" lon="12.31801">
        <ele>1664.18</ele>
        <time>2015-02-26T08:11:09Z</time>
      </trkpt>
      <trkpt lat="46.80366" lon="12.31793">
        <ele>1666.58</ele>
        <time>2015-02-26T08:11:26Z</time>
      </trkpt>
      <trkpt lat="46.80357" lon="12.3179">
        <ele>1668.02</ele>
        <time>2015-02-26T08:11:41Z</time>
      </trkpt>
      <trkpt lat="46.80351" lon="12.31781">
        <ele>1669.95</ele>
        <time>2015-02-26T08:11:55Z</time>
      </trkpt>
      <trkpt lat="46.80344" lon="12.31783">
        <ele>1672.35</ele>
        <time>2015-02-26T08:12:10Z</time>
      </trkpt>
      <trkpt lat="46.80338" lon="12.3177">
        <ele>1674.75</ele>
        <time>2015-02-26T08:12:26Z</time>
      </trkpt>
      <trkpt lat="46.8033" lon="12.31768">
        <ele>1676.68</ele>
        <time>2015-02-26T08:12:43Z</time>
      </trkpt>
      <trkpt lat="46.80321" lon="12.31766">
        <ele>1678.6</ele>
        <time>2015-02-26T08:13:00Z</time>
      </trkpt>
      <trkpt lat="46.80313" lon="12.31768">
        <ele>1681</ele>
        <time>2015-02-26T08:13:16Z</time>
      </trkpt>
      <trkpt lat="46.80311" lon="12.31759">
        <ele>1683.41</ele>
        <time>2015-02-26T08:13:31Z</time>
      </trkpt>
      <trkpt lat="46.80308" lon="12.31757">
        <ele>1683.89</ele>
        <time>2015-02-26T08:13:45Z</time>
      </trkpt>
      <trkpt lat="46.80298" lon="12.31755">
        <ele>1685.33</ele>
        <time>2015-02-26T08:13:59Z</time>
      </trkpt>
      <trkpt lat="46.80293" lon="12.31755">
        <ele>1686.77</ele>
        <time>2015-02-26T08:14:11Z</time>
      </trkpt>
      <trkpt lat="46.80292" lon="12.31755">
        <ele>1687.25</ele>
        <time>2015-02-26T08:14:31Z</time>
      </trkpt>
      <trkpt lat="46.80286" lon="12.31754">
        <ele>1687.73</ele>
        <time>2015-02-26T08:14:47Z</time>
      </trkpt>
      <trkpt lat="46.80278" lon="12.31748">
        <ele>1688.69</ele>
        <time>2015-02-26T08:14:59Z</time>
      </trkpt>
      <trkpt lat="46.80268" lon="12.31741">
        <ele>1690.62</ele>
        <time>2015-02-26T08:15:13Z</time>
      </trkpt>
      <trkpt lat="46.80268" lon="12.31739">
        <ele>1690.14</ele>
        <time>2015-02-26T08:15:27Z</time>
      </trkpt>
      <trkpt lat="46.80267" lon="12.31737">
        <ele>1690.14</ele>
        <time>2015-02-26T08:15:43Z</time>
      </trkpt>
      <trkpt lat="46.80269" lon="12.31741">
        <ele>1690.62</ele>
        <time>2015-02-26T08:16:05Z</time>
      </trkpt>
      <trkpt lat="46.80263" lon="12.31739">
        <ele>1691.1</ele>
        <time>2015-02-26T08:16:18Z</time>
      </trkpt>
      <trkpt lat="46.80255" lon="12.31736">
        <ele>1693.5</ele>
        <time>2015-02-26T08:16:31Z</time>
      </trkpt>
      <trkpt lat="46.80248" lon="12.31735">
        <ele>1693.02</ele>
        <time>2015-02-26T08:16:44Z</time>
      </trkpt>
      <trkpt lat="46.80239" lon="12.31731">
        <ele>1694.46</ele>
        <time>2015-02-26T08:16:56Z</time>
      </trkpt>
      <trkpt lat="46.80229" lon="12.31729">
        <ele>1695.9</ele>
        <time>2015-02-26T08:17:10Z</time>
      </trkpt>
      <trkpt lat="46.80219" lon="12.31728">
        <ele>1697.34</ele>
        <time>2015-02-26T08:17:24Z</time>
      </trkpt>
      <trkpt lat="46.80209" lon="12.31726">
        <ele>1698.79</ele>
        <time>2015-02-26T08:17:39Z</time>
      </trkpt>
      <trkpt lat="46.80199" lon="12.31724">
        <ele>1700.23</ele>
        <time>2015-02-26T08:17:52Z</time>
      </trkpt>
      <trkpt lat="46.80189" lon="12.31721">
        <ele>1701.67</ele>
        <time>2015-02-26T08:18:06Z</time>
      </trkpt>
      <trkpt lat="46.80179" lon="12.31717">
        <ele>1703.11</ele>
        <time>2015-02-26T08:18:21Z</time>
      </trkpt>
      <trkpt lat="46.80168" lon="12.31714">
        <ele>1704.55</ele>
        <time>2015-02-26T08:18:35Z</time>
      </trkpt>
      <trkpt lat="46.80158" lon="12.31711">
        <ele>1706.48</ele>
        <time>2015-02-26T08:18:48Z</time>
      </trkpt>
      <trkpt lat="46.80148" lon="12.31707">
        <ele>1707.92</ele>
        <time>2015-02-26T08:19:01Z</time>
      </trkpt>
      <trkpt lat="46.80137" lon="12.31703">
        <ele>1709.36</ele>
        <time>2015-02-26T08:19:15Z</time>
      </trkpt>
      <trkpt lat="46.8013" lon="12.31699">
        <ele>1710.8</ele>
        <time>2015-02-26T08:19:27Z</time>
      </trkpt>
      <trkpt lat="46.80129" lon="12.317">
        <ele>1710.8</ele>
        <time>2015-02-26T08:19:42Z</time>
      </trkpt>
      <trkpt lat="46.80123" lon="12.31692">
        <ele>1711.28</ele>
        <time>2015-02-26T08:19:53Z</time>
      </trkpt>
      <trkpt lat="46.80113" lon="12.31686">
        <ele>1712.25</ele>
        <time>2015-02-26T08:20:06Z</time>
      </trkpt>
      <trkpt lat="46.80112" lon="12.31686">
        <ele>1712.73</ele>
        <time>2015-02-26T08:20:09Z</time>
      </trkpt>
      <trkpt lat="46.80106" lon="12.3168">
        <ele>1713.21</ele>
        <time>2015-02-26T08:20:16Z</time>
      </trkpt>
      <trkpt lat="46.80093" lon="12.31678">
        <ele>1713.69</ele>
        <time>2015-02-26T08:20:29Z</time>
      </trkpt>
      <trkpt lat="46.80082" lon="12.31678">
        <ele>1714.65</ele>
        <time>2015-02-26T08:20:41Z</time>
      </trkpt>
      <trkpt lat="46.80071" lon="12.3168">
        <ele>1715.61</ele>
        <time>2015-02-26T08:20:53Z</time>
      </trkpt>
      <trkpt lat="46.8006" lon="12.3168">
        <ele>1716.57</ele>
        <time>2015-02-26T08:21:07Z</time>
      </trkpt>
      <trkpt lat="46.80049" lon="12.31677">
        <ele>1717.53</ele>
        <time>2015-02-26T08:21:19Z</time>
      </trkpt>
      <trkpt lat="46.80037" lon="12.31667">
        <ele>1718.49</ele>
        <time>2015-02-26T08:21:34Z</time>
      </trkpt>
      <trkpt lat="46.80024" lon="12.3166">
        <ele>1719.46</ele>
        <time>2015-02-26T08:21:48Z</time>
      </trkpt>
      <trkpt lat="46.80012" lon="12.31654">
        <ele>1719.94</ele>
        <time>2015-02-26T08:22:01Z</time>
      </trkpt>
      <trkpt lat="46.79999" lon="12.31646">
        <ele>1720.42</ele>
        <time>2015-02-26T08:22:15Z</time>
      </trkpt>
      <trkpt lat="46.79987" lon="12.31639">
        <ele>1720.9</ele>
        <time>2015-02-26T08:22:27Z</time>
      </trkpt>
      <trkpt lat="46.79975" lon="12.31627">
        <ele>1721.86</ele>
        <time>2015-02-26T08:22:41Z</time>
      </trkpt>
      <trkpt lat="46.79962" lon="12.31617">
        <ele>1722.82</ele>
        <time>2015-02-26T08:22:56Z</time>
      </trkpt>
      <trkpt lat="46.79951" lon="12.31608">
        <ele>1723.3</ele>
        <time>2015-02-26T08:23:10Z</time>
      </trkpt>
      <trkpt lat="46.7994" lon="12.316">
        <ele>1724.26</ele>
        <time>2015-02-26T08:23:23Z</time>
      </trkpt>
      <trkpt lat="46.7993" lon="12.31591">
        <ele>1724.74</ele>
        <time>2015-02-26T08:23:38Z</time>
      </trkpt>
      <trkpt lat="46.79926" lon="12.31588">
        <ele>1724.26</ele>
        <time>2015-02-26T08:23:45Z</time>
      </trkpt>
      <trkpt lat="46.7991" lon="12.31588">
        <ele>1725.22</ele>
        <time>2015-02-26T08:24:01Z</time>
      </trkpt>
      <trkpt lat="46.79897" lon="12.3159">
        <ele>1726.18</ele>
        <time>2015-02-26T08:24:16Z</time>
      </trkpt>
      <trkpt lat="46.79883" lon="12.31591">
        <ele>1727.15</ele>
        <time>2015-02-26T08:24:31Z</time>
      </trkpt>
      <trkpt lat="46.79875" lon="12.31591">
        <ele>1727.63</ele>
        <time>2015-02-26T08:24:41Z</time>
      </trkpt>
      <trkpt lat="46.79863" lon="12.31588">
        <ele>1728.59</ele>
        <time>2015-02-26T08:24:56Z</time>
      </trkpt>
      <trkpt lat="46.79853" lon="12.31584">
        <ele>1729.55</ele>
        <time>2015-02-26T08:25:09Z</time>
      </trkpt>
      <trkpt lat="46.79843" lon="12.31578">
        <ele>1730.51</ele>
        <time>2015-02-26T08:25:22Z</time>
      </trkpt>
      <trkpt lat="46.79832" lon="12.31573">
        <ele>1732.43</ele>
        <time>2015-02-26T08:25:37Z</time>
      </trkpt>
      <trkpt lat="46.79821" lon="12.31567">
        <ele>1734.36</ele>
        <time>2015-02-26T08:25:53Z</time>
      </trkpt>
      <trkpt lat="46.79814" lon="12.31564">
        <ele>1735.8</ele>
        <time>2015-02-26T08:26:07Z</time>
      </trkpt>
      <trkpt lat="46.79805" lon="12.3156">
        <ele>1737.72</ele>
        <time>2015-02-26T08:26:19Z</time>
      </trkpt>
      <trkpt lat="46.79802" lon="12.31559">
        <ele>1737.72</ele>
        <time>2015-02-26T08:26:24Z</time>
      </trkpt>
      <trkpt lat="46.79792" lon="12.31552">
        <ele>1740.12</ele>
        <time>2015-02-26T08:26:41Z</time>
      </trkpt>
      <trkpt lat="46.79783" lon="12.31545">
        <ele>1741.57</ele>
        <time>2015-02-26T08:26:56Z</time>
      </trkpt>
      <trkpt lat="46.79775" lon="12.31537">
        <ele>1743.49</ele>
        <time>2015-02-26T08:27:11Z</time>
      </trkpt>
      <trkpt lat="46.79765" lon="12.31529">
        <ele>1744.45</ele>
        <time>2015-02-26T08:27:25Z</time>
      </trkpt>
      <trkpt lat="46.79759" lon="12.31525">
        <ele>1745.89</ele>
        <time>2015-02-26T08:27:36Z</time>
      </trkpt>
      <trkpt lat="46.79749" lon="12.31516">
        <ele>1747.33</ele>
        <time>2015-02-26T08:27:53Z</time>
      </trkpt>
      <trkpt lat="46.79742" lon="12.31504">
        <ele>1749.26</ele>
        <time>2015-02-26T08:28:09Z</time>
      </trkpt>
      <trkpt lat="46.79734" lon="12.31497">
        <ele>1751.18</ele>
        <time>2015-02-26T08:28:26Z</time>
      </trkpt>
      <trkpt lat="46.79728" lon="12.31498">
        <ele>1751.18</ele>
        <time>2015-02-26T08:28:40Z</time>
      </trkpt>
      <trkpt lat="46.79726" lon="12.31498">
        <ele>1751.66</ele>
        <time>2015-02-26T08:28:42Z</time>
      </trkpt>
      <trkpt lat="46.79718" lon="12.31494">
        <ele>1753.1</ele>
        <time>2015-02-26T08:28:56Z</time>
      </trkpt>
      <trkpt lat="46.79713" lon="12.31494">
        <ele>1754.06</ele>
        <time>2015-02-26T08:29:12Z</time>
      </trkpt>
      <trkpt lat="46.79709" lon="12.31486">
        <ele>1755.02</ele>
        <time>2015-02-26T08:29:27Z</time>
      </trkpt>
      <trkpt lat="46.79704" lon="12.31472">
        <ele>1756.95</ele>
        <time>2015-02-26T08:29:44Z</time>
      </trkpt>
      <trkpt lat="46.797" lon="12.31461">
        <ele>1758.39</ele>
        <time>2015-02-26T08:29:59Z</time>
      </trkpt>
      <trkpt lat="46.79695" lon="12.31448">
        <ele>1759.83</ele>
        <time>2015-02-26T08:30:14Z</time>
      </trkpt>
      <trkpt lat="46.7969" lon="12.31433">
        <ele>1762.23</ele>
        <time>2015-02-26T08:30:31Z</time>
      </trkpt>
      <trkpt lat="46.79684" lon="12.31422">
        <ele>1764.16</ele>
        <time>2015-02-26T08:30:48Z</time>
      </trkpt>
      <trkpt lat="46.79683" lon="12.31414">
        <ele>1765.6</ele>
        <time>2015-02-26T08:31:06Z</time>
      </trkpt>
      <trkpt lat="46.79677" lon="12.31404">
        <ele>1766.56</ele>
        <time>2015-02-26T08:31:21Z</time>
      </trkpt>
      <trkpt lat="46.79669" lon="12.31391">
        <ele>1768</ele>
        <time>2015-02-26T08:31:37Z</time>
      </trkpt>
      <trkpt lat="46.79661" lon="12.3138">
        <ele>1768.96</ele>
        <time>2015-02-26T08:31:52Z</time>
      </trkpt>
      <trkpt lat="46.7965" lon="12.31374">
        <ele>1770.89</ele>
        <time>2015-02-26T08:32:07Z</time>
      </trkpt>
      <trkpt lat="46.7964" lon="12.31366">
        <ele>1772.81</ele>
        <time>2015-02-26T08:32:23Z</time>
      </trkpt>
      <trkpt lat="46.79629" lon="12.31362">
        <ele>1774.25</ele>
        <time>2015-02-26T08:32:39Z</time>
      </trkpt>
      <trkpt lat="46.79618" lon="12.31357">
        <ele>1776.17</ele>
        <time>2015-02-26T08:32:56Z</time>
      </trkpt>
      <trkpt lat="46.79609" lon="12.31346">
        <ele>1777.61</ele>
        <time>2015-02-26T08:33:13Z</time>
      </trkpt>
      <trkpt lat="46.79602" lon="12.31334">
        <ele>1779.06</ele>
        <time>2015-02-26T08:33:30Z</time>
      </trkpt>
      <trkpt lat="46.79598" lon="12.31321">
        <ele>1780.5</ele>
        <time>2015-02-26T08:33:44Z</time>
      </trkpt>
      <trkpt lat="46.79594" lon="12.31311">
        <ele>1781.46</ele>
        <time>2015-02-26T08:33:59Z</time>
      </trkpt>
      <trkpt lat="46.79595" lon="12.31313">
        <ele>1780.5</ele>
        <time>2015-02-26T08:34:14Z</time>
      </trkpt>
      <trkpt lat="46.79591" lon="12.31311">
        <ele>1780.5</ele>
        <time>2015-02-26T08:34:37Z</time>
      </trkpt>
      <trkpt lat="46.79589" lon="12.31312">
        <ele>1780.5</ele>
        <time>2015-02-26T08:35:05Z</time>
      </trkpt>
      <trkpt lat="46.79591" lon="12.31313">
        <ele>1781.46</ele>
        <time>2015-02-26T08:35:24Z</time>
      </trkpt>
      <trkpt lat="46.7959" lon="12.31303">
        <ele>1782.42</ele>
        <time>2015-02-26T08:35:38Z</time>
      </trkpt>
      <trkpt lat="46.79588" lon="12.3129">
        <ele>1783.86</ele>
        <time>2015-02-26T08:35:50Z</time>
      </trkpt>
      <trkpt lat="46.79585" lon="12.31277">
        <ele>1785.79</ele>
        <time>2015-02-26T08:36:04Z</time>
      </trkpt>
      <trkpt lat="46.79579" lon="12.31263">
        <ele>1787.23</ele>
        <time>2015-02-26T08:36:20Z</time>
      </trkpt>
      <trkpt lat="46.79573" lon="12.31248">
        <ele>1789.15</ele>
        <time>2015-02-26T08:36:36Z</time>
      </trkpt>
      <trkpt lat="46.79567" lon="12.31232">
        <ele>1790.59</ele>
        <time>2015-02-26T08:36:52Z</time>
      </trkpt>
      <trkpt lat="46.79563" lon="12.31224">
        <ele>1792.52</ele>
        <time>2015-02-26T08:37:06Z</time>
      </trkpt>
      <trkpt lat="46.79559" lon="12.3121">
        <ele>1793.48</ele>
        <time>2015-02-26T08:37:21Z</time>
      </trkpt>
      <trkpt lat="46.79554" lon="12.31195">
        <ele>1795.4</ele>
        <time>2015-02-26T08:37:36Z</time>
      </trkpt>
      <trkpt lat="46.79551" lon="12.31185">
        <ele>1796.36</ele>
        <time>2015-02-26T08:37:49Z</time>
      </trkpt>
      <trkpt lat="46.79549" lon="12.31169">
        <ele>1798.28</ele>
        <time>2015-02-26T08:38:04Z</time>
      </trkpt>
      <trkpt lat="46.79548" lon="12.31156">
        <ele>1800.21</ele>
        <time>2015-02-26T08:38:20Z</time>
      </trkpt>
      <trkpt lat="46.79548" lon="12.31145">
        <ele>1801.65</ele>
        <time>2015-02-26T08:38:33Z</time>
      </trkpt>
      <trkpt lat="46.79546" lon="12.3113">
        <ele>1803.57</ele>
        <time>2015-02-26T08:38:48Z</time>
      </trkpt>
      <trkpt lat="46.79542" lon="12.31119">
        <ele>1805.01</ele>
        <time>2015-02-26T08:39:01Z</time>
      </trkpt>
      <trkpt lat="46.79538" lon="12.31106">
        <ele>1806.94</ele>
        <time>2015-02-26T08:39:15Z</time>
      </trkpt>
      <trkpt lat="46.79535" lon="12.31093">
        <ele>1808.86</ele>
        <time>2015-02-26T08:39:30Z</time>
      </trkpt>
      <trkpt lat="46.79534" lon="12.31081">
        <ele>1810.78</ele>
        <time>2015-02-26T08:39:43Z</time>
      </trkpt>
      <trkpt lat="46.79531" lon="12.31066">
        <ele>1812.7</ele>
        <time>2015-02-26T08:39:58Z</time>
      </trkpt>
      <trkpt lat="46.79528" lon="12.31058">
        <ele>1814.15</ele>
        <time>2015-02-26T08:40:13Z</time>
      </trkpt>
      <trkpt lat="46.79525" lon="12.31042">
        <ele>1815.11</ele>
        <time>2015-02-26T08:40:28Z</time>
      </trkpt>
      <trkpt lat="46.79525" lon="12.31025">
        <ele>1816.55</ele>
        <time>2015-02-26T08:40:42Z</time>
      </trkpt>
      <trkpt lat="46.79527" lon="12.31015">
        <ele>1817.03</ele>
        <time>2015-02-26T08:40:55Z</time>
      </trkpt>
      <trkpt lat="46.79528" lon="12.31001">
        <ele>1818.47</ele>
        <time>2015-02-26T08:41:09Z</time>
      </trkpt>
      <trkpt lat="46.79527" lon="12.30985">
        <ele>1820.39</ele>
        <time>2015-02-26T08:41:24Z</time>
      </trkpt>
      <trkpt lat="46.79526" lon="12.30976">
        <ele>1821.84</ele>
        <time>2015-02-26T08:41:38Z</time>
      </trkpt>
      <trkpt lat="46.79519" lon="12.30955">
        <ele>1824.24</ele>
        <time>2015-02-26T08:41:58Z</time>
      </trkpt>
      <trkpt lat="46.79512" lon="12.30941">
        <ele>1825.68</ele>
        <time>2015-02-26T08:42:14Z</time>
      </trkpt>
      <trkpt lat="46.79508" lon="12.30933">
        <ele>1827.12</ele>
        <time>2015-02-26T08:42:28Z</time>
      </trkpt>
      <trkpt lat="46.79505" lon="12.30922">
        <ele>1828.56</ele>
        <time>2015-02-26T08:42:43Z</time>
      </trkpt>
      <trkpt lat="46.79504" lon="12.30911">
        <ele>1830.01</ele>
        <time>2015-02-26T08:42:56Z</time>
      </trkpt>
      <trkpt lat="46.79503" lon="12.30895">
        <ele>1832.41</ele>
        <time>2015-02-26T08:43:14Z</time>
      </trkpt>
      <trkpt lat="46.79502" lon="12.30886">
        <ele>1833.85</ele>
        <time>2015-02-26T08:43:28Z</time>
      </trkpt>
      <trkpt lat="46.795" lon="12.30872">
        <ele>1835.29</ele>
        <time>2015-02-26T08:43:43Z</time>
      </trkpt>
      <trkpt lat="46.79499" lon="12.3086">
        <ele>1836.74</ele>
        <time>2015-02-26T08:43:57Z</time>
      </trkpt>
      <trkpt lat="46.79498" lon="12.30844">
        <ele>1838.66</ele>
        <time>2015-02-26T08:44:13Z</time>
      </trkpt>
      <trkpt lat="46.79497" lon="12.30831">
        <ele>1840.1</ele>
        <time>2015-02-26T08:44:28Z</time>
      </trkpt>
      <trkpt lat="46.79497" lon="12.30823">
        <ele>1842.02</ele>
        <time>2015-02-26T08:44:41Z</time>
      </trkpt>
      <trkpt lat="46.79498" lon="12.30807">
        <ele>1843.47</ele>
        <time>2015-02-26T08:44:57Z</time>
      </trkpt>
      <trkpt lat="46.79498" lon="12.30799">
        <ele>1844.43</ele>
        <time>2015-02-26T08:45:12Z</time>
      </trkpt>
      <trkpt lat="46.79499" lon="12.30786">
        <ele>1846.35</ele>
        <time>2015-02-26T08:45:26Z</time>
      </trkpt>
      <trkpt lat="46.79499" lon="12.30773">
        <ele>1848.27</ele>
        <time>2015-02-26T08:45:41Z</time>
      </trkpt>
      <trkpt lat="46.795" lon="12.30759">
        <ele>1850.19</ele>
        <time>2015-02-26T08:45:57Z</time>
      </trkpt>
      <trkpt lat="46.79501" lon="12.30748">
        <ele>1852.12</ele>
        <time>2015-02-26T08:46:14Z</time>
      </trkpt>
      <trkpt lat="46.79501" lon="12.30751">
        <ele>1851.16</ele>
        <time>2015-02-26T08:46:29Z</time>
      </trkpt>
      <trkpt lat="46.795" lon="12.30751">
        <ele>1851.16</ele>
        <time>2015-02-26T08:46:46Z</time>
      </trkpt>
      <trkpt lat="46.79499" lon="12.30752">
        <ele>1852.6</ele>
        <time>2015-02-26T08:46:48Z</time>
      </trkpt>
      <trkpt lat="46.79499" lon="12.30752">
        <ele>1851.16</ele>
        <time>2015-02-26T08:46:50Z</time>
      </trkpt>
      <trkpt lat="46.79502" lon="12.30749">
        <ele>1852.6</ele>
        <time>2015-02-26T08:47:01Z</time>
      </trkpt>
      <trkpt lat="46.79502" lon="12.30739">
        <ele>1853.08</ele>
        <time>2015-02-26T08:47:17Z</time>
      </trkpt>
      <trkpt lat="46.795" lon="12.30725">
        <ele>1854.04</ele>
        <time>2015-02-26T08:47:31Z</time>
      </trkpt>
      <trkpt lat="46.79497" lon="12.30715">
        <ele>1855.48</ele>
        <time>2015-02-26T08:47:42Z</time>
      </trkpt>
      <trkpt lat="46.79491" lon="12.307">
        <ele>1857.4</ele>
        <time>2015-02-26T08:47:57Z</time>
      </trkpt>
      <trkpt lat="46.79486" lon="12.3069">
        <ele>1859.33</ele>
        <time>2015-02-26T08:48:12Z</time>
      </trkpt>
      <trkpt lat="46.79481" lon="12.30681">
        <ele>1860.29</ele>
        <time>2015-02-26T08:48:25Z</time>
      </trkpt>
      <trkpt lat="46.79477" lon="12.3067">
        <ele>1862.69</ele>
        <time>2015-02-26T08:48:40Z</time>
      </trkpt>
      <trkpt lat="46.79473" lon="12.3066">
        <ele>1864.13</ele>
        <time>2015-02-26T08:48:53Z</time>
      </trkpt>
      <trkpt lat="46.79466" lon="12.3065">
        <ele>1866.06</ele>
        <time>2015-02-26T08:49:08Z</time>
      </trkpt>
      <trkpt lat="46.7946" lon="12.30639">
        <ele>1867.02</ele>
        <time>2015-02-26T08:49:22Z</time>
      </trkpt>
      <trkpt lat="46.79455" lon="12.30632">
        <ele>1868.94</ele>
        <time>2015-02-26T08:49:36Z</time>
      </trkpt>
      <trkpt lat="46.79455" lon="12.30626">
        <ele>1870.38</ele>
        <time>2015-02-26T08:49:48Z</time>
      </trkpt>
      <trkpt lat="46.79462" lon="12.30622">
        <ele>1872.79</ele>
        <time>2015-02-26T08:50:08Z</time>
      </trkpt>
      <trkpt lat="46.7947" lon="12.30621">
        <ele>1874.23</ele>
        <time>2015-02-26T08:50:23Z</time>
      </trkpt>
      <trkpt lat="46.79479" lon="12.30616">
        <ele>1876.63</ele>
        <time>2015-02-26T08:50:41Z</time>
      </trkpt>
      <trkpt lat="46.79481" lon="12.30608">
        <ele>1880.48</ele>
        <time>2015-02-26T08:50:55Z</time>
      </trkpt>
      <trkpt lat="46.79476" lon="12.30595">
        <ele>1880</ele>
        <time>2015-02-26T08:51:10Z</time>
      </trkpt>
      <trkpt lat="46.79476" lon="12.30582">
        <ele>1881.92</ele>
        <time>2015-02-26T08:51:23Z</time>
      </trkpt>
      <trkpt lat="46.79483" lon="12.30577">
        <ele>1884.32</ele>
        <time>2015-02-26T08:51:40Z</time>
      </trkpt>
      <trkpt lat="46.7948" lon="12.30564">
        <ele>1886.72</ele>
        <time>2015-02-26T08:51:56Z</time>
      </trkpt>
      <trkpt lat="46.79478" lon="12.30554">
        <ele>1888.65</ele>
        <time>2015-02-26T08:52:14Z</time>
      </trkpt>
      <trkpt lat="46.79475" lon="12.30542">
        <ele>1891.53</ele>
        <time>2015-02-26T08:52:34Z</time>
      </trkpt>
      <trkpt lat="46.79466" lon="12.30532">
        <ele>1892.97</ele>
        <time>2015-02-26T08:52:50Z</time>
      </trkpt>
      <trkpt lat="46.7946" lon="12.30527">
        <ele>1894.42</ele>
        <time>2015-02-26T08:53:06Z</time>
      </trkpt>
      <trkpt lat="46.7945" lon="12.30517">
        <ele>1896.34</ele>
        <time>2015-02-26T08:53:23Z</time>
      </trkpt>
      <trkpt lat="46.79442" lon="12.30506">
        <ele>1898.26</ele>
        <time>2015-02-26T08:53:37Z</time>
      </trkpt>
      <trkpt lat="46.79439" lon="12.30502">
        <ele>1899.7</ele>
        <time>2015-02-26T08:53:48Z</time>
      </trkpt>
      <trkpt lat="46.79433" lon="12.30492">
        <ele>1901.63</ele>
        <time>2015-02-26T08:54:06Z</time>
      </trkpt>
      <trkpt lat="46.7943" lon="12.30484">
        <ele>1903.07</ele>
        <time>2015-02-26T08:54:22Z</time>
      </trkpt>
      <trkpt lat="46.7943" lon="12.30471">
        <ele>1904.03</ele>
        <time>2015-02-26T08:54:36Z</time>
      </trkpt>
      <trkpt lat="46.7943" lon="12.3046">
        <ele>1905.95</ele>
        <time>2015-02-26T08:54:51Z</time>
      </trkpt>
      <trkpt lat="46.79431" lon="12.30455">
        <ele>1908.35</ele>
        <time>2015-02-26T08:54:57Z</time>
      </trkpt>
      <trkpt lat="46.79431" lon="12.30454">
        <ele>1906.91</ele>
        <time>2015-02-26T08:54:58Z</time>
      </trkpt>
      <trkpt lat="46.79431" lon="12.3045">
        <ele>1907.39</ele>
        <time>2015-02-26T08:55:02Z</time>
      </trkpt>
      <trkpt lat="46.7943" lon="12.30435">
        <ele>1908.83</ele>
        <time>2015-02-26T08:55:17Z</time>
      </trkpt>
      <trkpt lat="46.79426" lon="12.30425">
        <ele>1910.28</ele>
        <time>2015-02-26T08:55:31Z</time>
      </trkpt>
      <trkpt lat="46.79425" lon="12.30413">
        <ele>1911.72</ele>
        <time>2015-02-26T08:55:45Z</time>
      </trkpt>
      <trkpt lat="46.79423" lon="12.30398">
        <ele>1913.64</ele>
        <time>2015-02-26T08:56:00Z</time>
      </trkpt>
      <trkpt lat="46.79424" lon="12.30384">
        <ele>1915.08</ele>
        <time>2015-02-26T08:56:16Z</time>
      </trkpt>
      <trkpt lat="46.79426" lon="12.3037">
        <ele>1917.01</ele>
        <time>2015-02-26T08:56:32Z</time>
      </trkpt>
      <trkpt lat="46.79429" lon="12.30357">
        <ele>1918.45</ele>
        <time>2015-02-26T08:56:46Z</time>
      </trkpt>
      <trkpt lat="46.7943" lon="12.30343">
        <ele>1921.33</ele>
        <time>2015-02-26T08:56:58Z</time>
      </trkpt>
      <trkpt lat="46.79429" lon="12.30328">
        <ele>1921.33</ele>
        <time>2015-02-26T08:57:15Z</time>
      </trkpt>
      <trkpt lat="46.79425" lon="12.30316">
        <ele>1923.25</ele>
        <time>2015-02-26T08:57:27Z</time>
      </trkpt>
      <trkpt lat="46.7942" lon="12.30302">
        <ele>1923.74</ele>
        <time>2015-02-26T08:57:40Z</time>
      </trkpt>
      <trkpt lat="46.79418" lon="12.30288">
        <ele>1926.14</ele>
        <time>2015-02-26T08:57:55Z</time>
      </trkpt>
      <trkpt lat="46.79413" lon="12.30277">
        <ele>1928.06</ele>
        <time>2015-02-26T08:58:10Z</time>
      </trkpt>
      <trkpt lat="46.7941" lon="12.30273">
        <ele>1929.98</ele>
        <time>2015-02-26T08:58:25Z</time>
      </trkpt>
      <trkpt lat="46.79408" lon="12.30265">
        <ele>1931.91</ele>
        <time>2015-02-26T08:58:41Z</time>
      </trkpt>
      <trkpt lat="46.79404" lon="12.30259">
        <ele>1933.35</ele>
        <time>2015-02-26T08:58:53Z</time>
      </trkpt>
      <trkpt lat="46.79403" lon="12.30257">
        <ele>1935.75</ele>
        <time>2015-02-26T08:58:59Z</time>
      </trkpt>
      <trkpt lat="46.794" lon="12.30248">
        <ele>1935.75</ele>
        <time>2015-02-26T08:59:14Z</time>
      </trkpt>
      <trkpt lat="46.79395" lon="12.30238">
        <ele>1938.16</ele>
        <time>2015-02-26T08:59:30Z</time>
      </trkpt>
      <trkpt lat="46.79392" lon="12.30229">
        <ele>1940.08</ele>
        <time>2015-02-26T08:59:47Z</time>
      </trkpt>
      <trkpt lat="46.79388" lon="12.30219">
        <ele>1942</ele>
        <time>2015-02-26T08:59:59Z</time>
      </trkpt>
      <trkpt lat="46.79385" lon="12.30211">
        <ele>1943.44</ele>
        <time>2015-02-26T09:00:12Z</time>
      </trkpt>
      <trkpt lat="46.79383" lon="12.30206">
        <ele>1945.85</ele>
        <time>2015-02-26T09:00:28Z</time>
      </trkpt>
      <trkpt lat="46.79381" lon="12.30198">
        <ele>1947.29</ele>
        <time>2015-02-26T09:00:42Z</time>
      </trkpt>
      <trkpt lat="46.79375" lon="12.3019">
        <ele>1949.21</ele>
        <time>2015-02-26T09:00:58Z</time>
      </trkpt>
      <trkpt lat="46.79374" lon="12.30188">
        <ele>1951.13</ele>
        <time>2015-02-26T09:01:01Z</time>
      </trkpt>
      <trkpt lat="46.7937" lon="12.3018">
        <ele>1951.61</ele>
        <time>2015-02-26T09:01:18Z</time>
      </trkpt>
      <trkpt lat="46.79366" lon="12.30172">
        <ele>1953.54</ele>
        <time>2015-02-26T09:01:30Z</time>
      </trkpt>
      <trkpt lat="46.79361" lon="12.30161">
        <ele>1954.5</ele>
        <time>2015-02-26T09:01:39Z</time>
      </trkpt>
      <trkpt lat="46.79358" lon="12.30155">
        <ele>1955.46</ele>
        <time>2015-02-26T09:01:51Z</time>
      </trkpt>
      <trkpt lat="46.79352" lon="12.30141">
        <ele>1957.38</ele>
        <time>2015-02-26T09:02:06Z</time>
      </trkpt>
      <trkpt lat="46.79351" lon="12.30128">
        <ele>1958.34</ele>
        <time>2015-02-26T09:02:20Z</time>
      </trkpt>
      <trkpt lat="46.79347" lon="12.30115">
        <ele>1959.3</ele>
        <time>2015-02-26T09:02:35Z</time>
      </trkpt>
      <trkpt lat="46.79345" lon="12.30104">
        <ele>1960.27</ele>
        <time>2015-02-26T09:02:51Z</time>
      </trkpt>
      <trkpt lat="46.79344" lon="12.30093">
        <ele>1961.23</ele>
        <time>2015-02-26T09:03:05Z</time>
      </trkpt>
      <trkpt lat="46.79342" lon="12.30081">
        <ele>1962.67</ele>
        <time>2015-02-26T09:03:20Z</time>
      </trkpt>
      <trkpt lat="46.79336" lon="12.30069">
        <ele>1963.63</ele>
        <time>2015-02-26T09:03:33Z</time>
      </trkpt>
      <trkpt lat="46.7933" lon="12.30058">
        <ele>1965.07</ele>
        <time>2015-02-26T09:03:48Z</time>
      </trkpt>
      <trkpt lat="46.79325" lon="12.30047">
        <ele>1966.51</ele>
        <time>2015-02-26T09:04:02Z</time>
      </trkpt>
      <trkpt lat="46.7932" lon="12.30038">
        <ele>1968.44</ele>
        <time>2015-02-26T09:04:18Z</time>
      </trkpt>
      <trkpt lat="46.79311" lon="12.30031">
        <ele>1970.84</ele>
        <time>2015-02-26T09:04:35Z</time>
      </trkpt>
      <trkpt lat="46.79304" lon="12.30023">
        <ele>1972.28</ele>
        <time>2015-02-26T09:04:49Z</time>
      </trkpt>
      <trkpt lat="46.79297" lon="12.30019">
        <ele>1975.65</ele>
        <time>2015-02-26T09:05:03Z</time>
      </trkpt>
      <trkpt lat="46.79291" lon="12.30017">
        <ele>1976.13</ele>
        <time>2015-02-26T09:05:21Z</time>
      </trkpt>
      <trkpt lat="46.79287" lon="12.30015">
        <ele>1977.57</ele>
        <time>2015-02-26T09:05:34Z</time>
      </trkpt>
      <trkpt lat="46.79275" lon="12.30004">
        <ele>1979.01</ele>
        <time>2015-02-26T09:05:49Z</time>
      </trkpt>
      <trkpt lat="46.79266" lon="12.29994">
        <ele>1979.97</ele>
        <time>2015-02-26T09:06:03Z</time>
      </trkpt>
      <trkpt lat="46.79259" lon="12.29986">
        <ele>1980.93</ele>
        <time>2015-02-26T09:06:16Z</time>
      </trkpt>
      <trkpt lat="46.79256" lon="12.29979">
        <ele>1982.38</ele>
        <time>2015-02-26T09:06:29Z</time>
      </trkpt>
      <trkpt lat="46.79251" lon="12.29972">
        <ele>1984.3</ele>
        <time>2015-02-26T09:06:45Z</time>
      </trkpt>
      <trkpt lat="46.79246" lon="12.29964">
        <ele>1987.66</ele>
        <time>2015-02-26T09:07:03Z</time>
      </trkpt>
      <trkpt lat="46.79246" lon="12.29963">
        <ele>1987.66</ele>
        <time>2015-02-26T09:07:04Z</time>
      </trkpt>
      <trkpt lat="46.79243" lon="12.29959">
        <ele>1988.14</ele>
        <time>2015-02-26T09:07:19Z</time>
      </trkpt>
      <trkpt lat="46.79239" lon="12.29948">
        <ele>1990.07</ele>
        <time>2015-02-26T09:07:35Z</time>
      </trkpt>
      <trkpt lat="46.79235" lon="12.29936">
        <ele>1991.99</ele>
        <time>2015-02-26T09:07:52Z</time>
      </trkpt>
      <trkpt lat="46.79235" lon="12.29929">
        <ele>1993.43</ele>
        <time>2015-02-26T09:08:08Z</time>
      </trkpt>
      <trkpt lat="46.79236" lon="12.29917">
        <ele>1995.35</ele>
        <time>2015-02-26T09:08:24Z</time>
      </trkpt>
      <trkpt lat="46.79233" lon="12.29905">
        <ele>1997.28</ele>
        <time>2015-02-26T09:08:40Z</time>
      </trkpt>
      <trkpt lat="46.79233" lon="12.29901">
        <ele>1998.72</ele>
        <time>2015-02-26T09:08:56Z</time>
      </trkpt>
      <trkpt lat="46.79229" lon="12.29892">
        <ele>2000.64</ele>
        <time>2015-02-26T09:09:10Z</time>
      </trkpt>
      <trkpt lat="46.7923" lon="12.2989">
        <ele>2000.64</ele>
        <time>2015-02-26T09:09:26Z</time>
      </trkpt>
      <trkpt lat="46.79231" lon="12.29885">
        <ele>2001.12</ele>
        <time>2015-02-26T09:09:47Z</time>
      </trkpt>
      <trkpt lat="46.7923" lon="12.29879">
        <ele>2002.08</ele>
        <time>2015-02-26T09:10:04Z</time>
      </trkpt>
      <trkpt lat="46.79224" lon="12.29867">
        <ele>2004.97</ele>
        <time>2015-02-26T09:10:24Z</time>
      </trkpt>
      <trkpt lat="46.7922" lon="12.29858">
        <ele>2006.89</ele>
        <time>2015-02-26T09:10:38Z</time>
      </trkpt>
      <trkpt lat="46.79215" lon="12.29853">
        <ele>2008.81</ele>
        <time>2015-02-26T09:10:50Z</time>
      </trkpt>
      <trkpt lat="46.79213" lon="12.29846">
        <ele>2012.18</ele>
        <time>2015-02-26T09:11:06Z</time>
      </trkpt>
      <trkpt lat="46.79205" lon="12.29843">
        <ele>2012.18</ele>
        <time>2015-02-26T09:11:20Z</time>
      </trkpt>
      <trkpt lat="46.79199" lon="12.29848">
        <ele>2014.1</ele>
        <time>2015-02-26T09:11:33Z</time>
      </trkpt>
      <trkpt lat="46.79191" lon="12.29847">
        <ele>2015.54</ele>
        <time>2015-02-26T09:11:48Z</time>
      </trkpt>
      <trkpt lat="46.79187" lon="12.29838">
        <ele>2017.46</ele>
        <time>2015-02-26T09:12:04Z</time>
      </trkpt>
      <trkpt lat="46.79184" lon="12.29833">
        <ele>2019.39</ele>
        <time>2015-02-26T09:12:19Z</time>
      </trkpt>
      <trkpt lat="46.79183" lon="12.29825">
        <ele>2020.83</ele>
        <time>2015-02-26T09:12:33Z</time>
      </trkpt>
      <trkpt lat="46.79183" lon="12.29822">
        <ele>2022.75</ele>
        <time>2015-02-26T09:12:48Z</time>
      </trkpt>
      <trkpt lat="46.79185" lon="12.29817">
        <ele>2023.71</ele>
        <time>2015-02-26T09:13:01Z</time>
      </trkpt>
      <trkpt lat="46.79184" lon="12.29811">
        <ele>2025.15</ele>
        <time>2015-02-26T09:13:15Z</time>
      </trkpt>
      <trkpt lat="46.79178" lon="12.29804">
        <ele>2027.08</ele>
        <time>2015-02-26T09:13:32Z</time>
      </trkpt>
      <trkpt lat="46.79173" lon="12.29803">
        <ele>2029</ele>
        <time>2015-02-26T09:13:48Z</time>
      </trkpt>
      <trkpt lat="46.7917" lon="12.29798">
        <ele>2030.44</ele>
        <time>2015-02-26T09:14:05Z</time>
      </trkpt>
      <trkpt lat="46.79165" lon="12.29796">
        <ele>2032.36</ele>
        <time>2015-02-26T09:14:20Z</time>
      </trkpt>
      <trkpt lat="46.79165" lon="12.2979">
        <ele>2033.81</ele>
        <time>2015-02-26T09:14:36Z</time>
      </trkpt>
      <trkpt lat="46.79167" lon="12.29785">
        <ele>2035.73</ele>
        <time>2015-02-26T09:14:52Z</time>
      </trkpt>
      <trkpt lat="46.7917" lon="12.29779">
        <ele>2038.61</ele>
        <time>2015-02-26T09:15:08Z</time>
      </trkpt>
      <trkpt lat="46.79173" lon="12.29773">
        <ele>2038.61</ele>
        <time>2015-02-26T09:15:23Z</time>
      </trkpt>
      <trkpt lat="46.79176" lon="12.29768">
        <ele>2040.05</ele>
        <time>2015-02-26T09:15:40Z</time>
      </trkpt>
      <trkpt lat="46.79172" lon="12.29759">
        <ele>2041.98</ele>
        <time>2015-02-26T09:15:56Z</time>
      </trkpt>
      <trkpt lat="46.7917" lon="12.29758">
        <ele>2042.94</ele>
        <time>2015-02-26T09:16:11Z</time>
      </trkpt>
      <trkpt lat="46.79164" lon="12.29757">
        <ele>2044.86</ele>
        <time>2015-02-26T09:16:28Z</time>
      </trkpt>
      <trkpt lat="46.79164" lon="12.29755">
        <ele>2045.82</ele>
        <time>2015-02-26T09:16:43Z</time>
      </trkpt>
      <trkpt lat="46.79169" lon="12.29751">
        <ele>2046.78</ele>
        <time>2015-02-26T09:16:57Z</time>
      </trkpt>
      <trkpt lat="46.79175" lon="12.29747">
        <ele>2047.75</ele>
        <time>2015-02-26T09:17:13Z</time>
      </trkpt>
      <trkpt lat="46.79178" lon="12.29746">
        <ele>2048.71</ele>
        <time>2015-02-26T09:17:29Z</time>
      </trkpt>
      <trkpt lat="46.79181" lon="12.29749">
        <ele>2048.23</ele>
        <time>2015-02-26T09:17:47Z</time>
      </trkpt>
      <trkpt lat="46.79175" lon="12.29742">
        <ele>2047.75</ele>
        <time>2015-02-26T09:18:06Z</time>
      </trkpt>
      <trkpt lat="46.79176" lon="12.29743">
        <ele>2047.75</ele>
        <time>2015-02-26T09:18:29Z</time>
      </trkpt>
      <trkpt lat="46.79176" lon="12.29743">
        <ele>2045.34</ele>
        <time>2015-02-26T09:18:38Z</time>
      </trkpt>
      <trkpt lat="46.79176" lon="12.29743">
        <ele>2049.19</ele>
        <time>2015-02-26T09:18:40Z</time>
      </trkpt>
      <trkpt lat="46.79177" lon="12.29743">
        <ele>2047.26</ele>
        <time>2015-02-26T09:18:43Z</time>
      </trkpt>
      <trkpt lat="46.79178" lon="12.29743">
        <ele>2047.26</ele>
        <time>2015-02-26T09:19:07Z</time>
      </trkpt>
      <trkpt lat="46.79176" lon="12.29744">
        <ele>2047.26</ele>
        <time>2015-02-26T09:19:36Z</time>
      </trkpt>
      <trkpt lat="46.79174" lon="12.29743">
        <ele>2048.23</ele>
        <time>2015-02-26T09:19:58Z</time>
      </trkpt>
      <trkpt lat="46.79178" lon="12.2974">
        <ele>2048.71</ele>
        <time>2015-02-26T09:20:14Z</time>
      </trkpt>
      <trkpt lat="46.79184" lon="12.29739">
        <ele>2050.63</ele>
        <time>2015-02-26T09:20:30Z</time>
      </trkpt>
      <trkpt lat="46.79185" lon="12.29743">
        <ele>2051.59</ele>
        <time>2015-02-26T09:20:47Z</time>
      </trkpt>
      <trkpt lat="46.79193" lon="12.29741">
        <ele>2053.03</ele>
        <time>2015-02-26T09:21:04Z</time>
      </trkpt>
      <trkpt lat="46.79198" lon="12.29738">
        <ele>2054.47</ele>
        <time>2015-02-26T09:21:21Z</time>
      </trkpt>
      <trkpt lat="46.79202" lon="12.29742">
        <ele>2055.92</ele>
        <time>2015-02-26T09:21:38Z</time>
      </trkpt>
      <trkpt lat="46.79212" lon="12.29745">
        <ele>2057.36</ele>
        <time>2015-02-26T09:21:53Z</time>
      </trkpt>
      <trkpt lat="46.79217" lon="12.29743">
        <ele>2058.8</ele>
        <time>2015-02-26T09:22:07Z</time>
      </trkpt>
      <trkpt lat="46.79218" lon="12.29742">
        <ele>2060.24</ele>
        <time>2015-02-26T09:22:20Z</time>
      </trkpt>
      <trkpt lat="46.79223" lon="12.29742">
        <ele>2061.68</ele>
        <time>2015-02-26T09:22:34Z</time>
      </trkpt>
      <trkpt lat="46.79225" lon="12.29741">
        <ele>2063.13</ele>
        <time>2015-02-26T09:22:48Z</time>
      </trkpt>
      <trkpt lat="46.79227" lon="12.29735">
        <ele>2064.57</ele>
        <time>2015-02-26T09:23:05Z</time>
      </trkpt>
      <trkpt lat="46.79225" lon="12.29729">
        <ele>2066.01</ele>
        <time>2015-02-26T09:23:20Z</time>
      </trkpt>
      <trkpt lat="46.79226" lon="12.29727">
        <ele>2066.97</ele>
        <time>2015-02-26T09:23:33Z</time>
      </trkpt>
      <trkpt lat="46.7923" lon="12.29732">
        <ele>2068.41</ele>
        <time>2015-02-26T09:23:48Z</time>
      </trkpt>
      <trkpt lat="46.79234" lon="12.29731">
        <ele>2069.86</ele>
        <time>2015-02-26T09:24:02Z</time>
      </trkpt>
      <trkpt lat="46.7924" lon="12.29728">
        <ele>2071.3</ele>
        <time>2015-02-26T09:24:18Z</time>
      </trkpt>
      <trkpt lat="46.79247" lon="12.29721">
        <ele>2073.22</ele>
        <time>2015-02-26T09:24:36Z</time>
      </trkpt>
      <trkpt lat="46.79253" lon="12.29718">
        <ele>2075.62</ele>
        <time>2015-02-26T09:24:55Z</time>
      </trkpt>
      <trkpt lat="46.79254" lon="12.29713">
        <ele>2077.07</ele>
        <time>2015-02-26T09:25:11Z</time>
      </trkpt>
      <trkpt lat="46.79258" lon="12.29712">
        <ele>2078.99</ele>
        <time>2015-02-26T09:25:26Z</time>
      </trkpt>
      <trkpt lat="46.79264" lon="12.29712">
        <ele>2081.39</ele>
        <time>2015-02-26T09:25:44Z</time>
      </trkpt>
      <trkpt lat="46.7927" lon="12.29713">
        <ele>2083.31</ele>
        <time>2015-02-26T09:25:58Z</time>
      </trkpt>
      <trkpt lat="46.79275" lon="12.29712">
        <ele>2085.24</ele>
        <time>2015-02-26T09:26:15Z</time>
      </trkpt>
      <trkpt lat="46.79282" lon="12.29713">
        <ele>2087.16</ele>
        <time>2015-02-26T09:26:33Z</time>
      </trkpt>
      <trkpt lat="46.79278" lon="12.29703">
        <ele>2089.08</ele>
        <time>2015-02-26T09:26:49Z</time>
      </trkpt>
      <trkpt lat="46.79276" lon="12.29699">
        <ele>2091</ele>
        <time>2015-02-26T09:27:05Z</time>
      </trkpt>
      <trkpt lat="46.79281" lon="12.29697">
        <ele>2091.97</ele>
        <time>2015-02-26T09:27:20Z</time>
      </trkpt>
      <trkpt lat="46.79276" lon="12.29689">
        <ele>2093.41</ele>
        <time>2015-02-26T09:27:36Z</time>
      </trkpt>
      <trkpt lat="46.79273" lon="12.29681">
        <ele>2095.33</ele>
        <time>2015-02-26T09:27:50Z</time>
      </trkpt>
      <trkpt lat="46.79279" lon="12.2968">
        <ele>2096.77</ele>
        <time>2015-02-26T09:28:05Z</time>
      </trkpt>
      <trkpt lat="46.79275" lon="12.29673">
        <ele>2098.7</ele>
        <time>2015-02-26T09:28:21Z</time>
      </trkpt>
      <trkpt lat="46.79278" lon="12.29666">
        <ele>2100.62</ele>
        <time>2015-02-26T09:28:39Z</time>
      </trkpt>
      <trkpt lat="46.79272" lon="12.29661">
        <ele>2102.06</ele>
        <time>2015-02-26T09:28:56Z</time>
      </trkpt>
      <trkpt lat="46.7927" lon="12.29651">
        <ele>2103.98</ele>
        <time>2015-02-26T09:29:13Z</time>
      </trkpt>
      <trkpt lat="46.79268" lon="12.29649">
        <ele>2105.42</ele>
        <time>2015-02-26T09:29:28Z</time>
      </trkpt>
      <trkpt lat="46.79264" lon="12.29644">
        <ele>2106.39</ele>
        <time>2015-02-26T09:29:43Z</time>
      </trkpt>
      <trkpt lat="46.79262" lon="12.29641">
        <ele>2107.83</ele>
        <time>2015-02-26T09:29:56Z</time>
      </trkpt>
      <trkpt lat="46.79263" lon="12.29641">
        <ele>2108.31</ele>
        <time>2015-02-26T09:30:10Z</time>
      </trkpt>
      <trkpt lat="46.79268" lon="12.29642">
        <ele>2109.75</ele>
        <time>2015-02-26T09:30:24Z</time>
      </trkpt>
      <trkpt lat="46.79272" lon="12.2964">
        <ele>2111.19</ele>
        <time>2015-02-26T09:30:39Z</time>
      </trkpt>
      <trkpt lat="46.79277" lon="12.29636">
        <ele>2113.12</ele>
        <time>2015-02-26T09:30:55Z</time>
      </trkpt>
      <trkpt lat="46.79276" lon="12.29635">
        <ele>2111.67</ele>
        <time>2015-02-26T09:30:59Z</time>
      </trkpt>
      <trkpt lat="46.79276" lon="12.29635">
        <ele>2114.08</ele>
        <time>2015-02-26T09:31:00Z</time>
      </trkpt>
      <trkpt lat="46.79279" lon="12.29632">
        <ele>2114.08</ele>
        <time>2015-02-26T09:31:18Z</time>
      </trkpt>
      <trkpt lat="46.79277" lon="12.29625">
        <ele>2116</ele>
        <time>2015-02-26T09:31:34Z</time>
      </trkpt>
      <trkpt lat="46.79277" lon="12.29621">
        <ele>2117.44</ele>
        <time>2015-02-26T09:31:49Z</time>
      </trkpt>
      <trkpt lat="46.7928" lon="12.29617">
        <ele>2119.36</ele>
        <time>2015-02-26T09:32:04Z</time>
      </trkpt>
      <trkpt lat="46.79286" lon="12.29612">
        <ele>2121.29</ele>
        <time>2015-02-26T09:32:22Z</time>
      </trkpt>
      <trkpt lat="46.79287" lon="12.29604">
        <ele>2122.25</ele>
        <time>2015-02-26T09:32:35Z</time>
      </trkpt>
      <trkpt lat="46.79292" lon="12.296">
        <ele>2123.69</ele>
        <time>2015-02-26T09:32:49Z</time>
      </trkpt>
      <trkpt lat="46.79291" lon="12.29594">
        <ele>2125.13</ele>
        <time>2015-02-26T09:33:03Z</time>
      </trkpt>
      <trkpt lat="46.7929" lon="12.29587">
        <ele>2127.05</ele>
        <time>2015-02-26T09:33:18Z</time>
      </trkpt>
      <trkpt lat="46.7929" lon="12.29582">
        <ele>2128.02</ele>
        <time>2015-02-26T09:33:32Z</time>
      </trkpt>
      <trkpt lat="46.79293" lon="12.29579">
        <ele>2128.98</ele>
        <time>2015-02-26T09:33:43Z</time>
      </trkpt>
      <trkpt lat="46.7929" lon="12.29575">
        <ele>2130.9</ele>
        <time>2015-02-26T09:33:57Z</time>
      </trkpt>
      <trkpt lat="46.79284" lon="12.29575">
        <ele>2132.34</ele>
        <time>2015-02-26T09:34:12Z</time>
      </trkpt>
      <trkpt lat="46.79279" lon="12.29575">
        <ele>2132.82</ele>
        <time>2015-02-26T09:34:26Z</time>
      </trkpt>
      <trkpt lat="46.79276" lon="12.29574">
        <ele>2134.26</ele>
        <time>2015-02-26T09:34:41Z</time>
      </trkpt>
      <trkpt lat="46.79278" lon="12.2957">
        <ele>2135.71</ele>
        <time>2015-02-26T09:34:56Z</time>
      </trkpt>
      <trkpt lat="46.79281" lon="12.29564">
        <ele>2137.15</ele>
        <time>2015-02-26T09:35:12Z</time>
      </trkpt>
      <trkpt lat="46.79283" lon="12.29557">
        <ele>2138.59</ele>
        <time>2015-02-26T09:35:26Z</time>
      </trkpt>
      <trkpt lat="46.79278" lon="12.29559">
        <ele>2139.55</ele>
        <time>2015-02-26T09:35:39Z</time>
      </trkpt>
      <trkpt lat="46.79273" lon="12.29558">
        <ele>2141.47</ele>
        <time>2015-02-26T09:35:53Z</time>
      </trkpt>
      <trkpt lat="46.7927" lon="12.29557">
        <ele>2142.44</ele>
        <time>2015-02-26T09:36:06Z</time>
      </trkpt>
      <trkpt lat="46.79268" lon="12.29554">
        <ele>2143.4</ele>
        <time>2015-02-26T09:36:20Z</time>
      </trkpt>
      <trkpt lat="46.79272" lon="12.2955">
        <ele>2144.84</ele>
        <time>2015-02-26T09:36:33Z</time>
      </trkpt>
      <trkpt lat="46.79274" lon="12.29544">
        <ele>2146.28</ele>
        <time>2015-02-26T09:36:47Z</time>
      </trkpt>
      <trkpt lat="46.7927" lon="12.29541">
        <ele>2147.72</ele>
        <time>2015-02-26T09:37:07Z</time>
      </trkpt>
      <trkpt lat="46.79267" lon="12.29542">
        <ele>2148.2</ele>
        <time>2015-02-26T09:37:21Z</time>
      </trkpt>
      <trkpt lat="46.79263" lon="12.29539">
        <ele>2149.16</ele>
        <time>2015-02-26T09:37:34Z</time>
      </trkpt>
      <trkpt lat="46.79257" lon="12.29538">
        <ele>2150.13</ele>
        <time>2015-02-26T09:37:48Z</time>
      </trkpt>
      <trkpt lat="46.79252" lon="12.29535">
        <ele>2151.57</ele>
        <time>2015-02-26T09:38:02Z</time>
      </trkpt>
      <trkpt lat="46.79254" lon="12.29535">
        <ele>2153.01</ele>
        <time>2015-02-26T09:38:15Z</time>
      </trkpt>
      <trkpt lat="46.79261" lon="12.29529">
        <ele>2153.97</ele>
        <time>2015-02-26T09:38:30Z</time>
      </trkpt>
      <trkpt lat="46.79265" lon="12.29523">
        <ele>2154.93</ele>
        <time>2015-02-26T09:38:43Z</time>
      </trkpt>
      <trkpt lat="46.79266" lon="12.29518">
        <ele>2156.37</ele>
        <time>2015-02-26T09:38:58Z</time>
      </trkpt>
      <trkpt lat="46.79265" lon="12.2951">
        <ele>2157.34</ele>
        <time>2015-02-26T09:39:11Z</time>
      </trkpt>
      <trkpt lat="46.79264" lon="12.29503">
        <ele>2158.78</ele>
        <time>2015-02-26T09:39:25Z</time>
      </trkpt>
      <trkpt lat="46.7926" lon="12.29505">
        <ele>2160.22</ele>
        <time>2015-02-26T09:39:38Z</time>
      </trkpt>
      <trkpt lat="46.79259" lon="12.29506">
        <ele>2161.18</ele>
        <time>2015-02-26T09:39:53Z</time>
      </trkpt>
      <trkpt lat="46.79256" lon="12.29508">
        <ele>2162.14</ele>
        <time>2015-02-26T09:40:10Z</time>
      </trkpt>
      <trkpt lat="46.79248" lon="12.29509">
        <ele>2163.1</ele>
        <time>2015-02-26T09:40:25Z</time>
      </trkpt>
      <trkpt lat="46.79241" lon="12.29511">
        <ele>2164.55</ele>
        <time>2015-02-26T09:40:40Z</time>
      </trkpt>
      <trkpt lat="46.79239" lon="12.29507">
        <ele>2165.99</ele>
        <time>2015-02-26T09:40:53Z</time>
      </trkpt>
      <trkpt lat="46.79242" lon="12.29503">
        <ele>2167.43</ele>
        <time>2015-02-26T09:41:07Z</time>
      </trkpt>
      <trkpt lat="46.79242" lon="12.29497">
        <ele>2168.87</ele>
        <time>2015-02-26T09:41:21Z</time>
      </trkpt>
      <trkpt lat="46.79246" lon="12.29489">
        <ele>2169.83</ele>
        <time>2015-02-26T09:41:36Z</time>
      </trkpt>
      <trkpt lat="46.7925" lon="12.29481">
        <ele>2171.76</ele>
        <time>2015-02-26T09:41:52Z</time>
      </trkpt>
      <trkpt lat="46.79248" lon="12.29472">
        <ele>2173.2</ele>
        <time>2015-02-26T09:42:08Z</time>
      </trkpt>
      <trkpt lat="46.79246" lon="12.29476">
        <ele>2174.16</ele>
        <time>2015-02-26T09:42:22Z</time>
      </trkpt>
      <trkpt lat="46.79245" lon="12.29473">
        <ele>2175.12</ele>
        <time>2015-02-26T09:42:34Z</time>
      </trkpt>
      <trkpt lat="46.79244" lon="12.29467">
        <ele>2178</ele>
        <time>2015-02-26T09:42:44Z</time>
      </trkpt>
      <trkpt lat="46.79239" lon="12.2946">
        <ele>2177.52</ele>
        <time>2015-02-26T09:42:59Z</time>
      </trkpt>
      <trkpt lat="46.7924" lon="12.29468">
        <ele>2178.48</ele>
        <time>2015-02-26T09:43:15Z</time>
      </trkpt>
      <trkpt lat="46.79237" lon="12.2947">
        <ele>2179.93</ele>
        <time>2015-02-26T09:43:29Z</time>
      </trkpt>
      <trkpt lat="46.79233" lon="12.29472">
        <ele>2180.89</ele>
        <time>2015-02-26T09:43:43Z</time>
      </trkpt>
      <trkpt lat="46.79228" lon="12.29473">
        <ele>2181.85</ele>
        <time>2015-02-26T09:43:58Z</time>
      </trkpt>
      <trkpt lat="46.79228" lon="12.29466">
        <ele>2183.77</ele>
        <time>2015-02-26T09:44:12Z</time>
      </trkpt>
      <trkpt lat="46.79226" lon="12.29457">
        <ele>2185.21</ele>
        <time>2015-02-26T09:44:26Z</time>
      </trkpt>
      <trkpt lat="46.79224" lon="12.29447">
        <ele>2187.14</ele>
        <time>2015-02-26T09:44:42Z</time>
      </trkpt>
      <trkpt lat="46.79219" lon="12.2944">
        <ele>2189.06</ele>
        <time>2015-02-26T09:44:58Z</time>
      </trkpt>
      <trkpt lat="46.79214" lon="12.29444">
        <ele>2190.5</ele>
        <time>2015-02-26T09:45:12Z</time>
      </trkpt>
      <trkpt lat="46.7921" lon="12.29442">
        <ele>2191.94</ele>
        <time>2015-02-26T09:45:26Z</time>
      </trkpt>
      <trkpt lat="46.79205" lon="12.29442">
        <ele>2193.39</ele>
        <time>2015-02-26T09:45:39Z</time>
      </trkpt>
      <trkpt lat="46.792" lon="12.29434">
        <ele>2195.31</ele>
        <time>2015-02-26T09:45:53Z</time>
      </trkpt>
      <trkpt lat="46.79196" lon="12.29426">
        <ele>2196.75</ele>
        <time>2015-02-26T09:46:08Z</time>
      </trkpt>
      <trkpt lat="46.79191" lon="12.29427">
        <ele>2198.67</ele>
        <time>2015-02-26T09:46:23Z</time>
      </trkpt>
      <trkpt lat="46.79188" lon="12.29432">
        <ele>2200.11</ele>
        <time>2015-02-26T09:46:35Z</time>
      </trkpt>
      <trkpt lat="46.79185" lon="12.29433">
        <ele>2201.56</ele>
        <time>2015-02-26T09:46:50Z</time>
      </trkpt>
      <trkpt lat="46.79179" lon="12.29433">
        <ele>2203.48</ele>
        <time>2015-02-26T09:47:05Z</time>
      </trkpt>
      <trkpt lat="46.79174" lon="12.2943">
        <ele>2205.4</ele>
        <time>2015-02-26T09:47:20Z</time>
      </trkpt>
      <trkpt lat="46.79168" lon="12.29424">
        <ele>2206.84</ele>
        <time>2015-02-26T09:47:34Z</time>
      </trkpt>
      <trkpt lat="46.79163" lon="12.29418">
        <ele>2208.29</ele>
        <time>2015-02-26T09:47:50Z</time>
      </trkpt>
      <trkpt lat="46.79159" lon="12.29411">
        <ele>2210.21</ele>
        <time>2015-02-26T09:48:06Z</time>
      </trkpt>
      <trkpt lat="46.79155" lon="12.29405">
        <ele>2211.65</ele>
        <time>2015-02-26T09:48:21Z</time>
      </trkpt>
      <trkpt lat="46.79151" lon="12.29397">
        <ele>2213.57</ele>
        <time>2015-02-26T09:48:36Z</time>
      </trkpt>
      <trkpt lat="46.79148" lon="12.29391">
        <ele>2215.01</ele>
        <time>2015-02-26T09:48:51Z</time>
      </trkpt>
      <trkpt lat="46.79145" lon="12.29386">
        <ele>2216.46</ele>
        <time>2015-02-26T09:49:05Z</time>
      </trkpt>
      <trkpt lat="46.79142" lon="12.2938">
        <ele>2217.9</ele>
        <time>2015-02-26T09:49:18Z</time>
      </trkpt>
      <trkpt lat="46.79139" lon="12.29372">
        <ele>2219.82</ele>
        <time>2015-02-26T09:49:35Z</time>
      </trkpt>
      <trkpt lat="46.79134" lon="12.29364">
        <ele>2221.74</ele>
        <time>2015-02-26T09:49:51Z</time>
      </trkpt>
      <trkpt lat="46.79131" lon="12.29358">
        <ele>2223.19</ele>
        <time>2015-02-26T09:50:06Z</time>
      </trkpt>
      <trkpt lat="46.7913" lon="12.2935">
        <ele>2224.63</ele>
        <time>2015-02-26T09:50:20Z</time>
      </trkpt>
      <trkpt lat="46.79128" lon="12.29345">
        <ele>2225.59</ele>
        <time>2015-02-26T09:50:35Z</time>
      </trkpt>
      <trkpt lat="46.79125" lon="12.29341">
        <ele>2226.55</ele>
        <time>2015-02-26T09:50:51Z</time>
      </trkpt>
      <trkpt lat="46.79123" lon="12.29338">
        <ele>2227.51</ele>
        <time>2015-02-26T09:51:07Z</time>
      </trkpt>
      <trkpt lat="46.79119" lon="12.29329">
        <ele>2228.95</ele>
        <time>2015-02-26T09:51:26Z</time>
      </trkpt>
      <trkpt lat="46.79114" lon="12.29322">
        <ele>2230.4</ele>
        <time>2015-02-26T09:51:42Z</time>
      </trkpt>
      <trkpt lat="46.79109" lon="12.29312">
        <ele>2232.32</ele>
        <time>2015-02-26T09:51:58Z</time>
      </trkpt>
      <trkpt lat="46.79105" lon="12.29306">
        <ele>2233.76</ele>
        <time>2015-02-26T09:52:12Z</time>
      </trkpt>
      <trkpt lat="46.79103" lon="12.29299">
        <ele>2235.2</ele>
        <time>2015-02-26T09:52:28Z</time>
      </trkpt>
      <trkpt lat="46.79099" lon="12.29293">
        <ele>2236.64</ele>
        <time>2015-02-26T09:52:43Z</time>
      </trkpt>
      <trkpt lat="46.79095" lon="12.29284">
        <ele>2238.09</ele>
        <time>2015-02-26T09:53:00Z</time>
      </trkpt>
      <trkpt lat="46.79089" lon="12.2928">
        <ele>2240.01</ele>
        <time>2015-02-26T09:53:16Z</time>
      </trkpt>
      <trkpt lat="46.79084" lon="12.29277">
        <ele>2240.97</ele>
        <time>2015-02-26T09:53:29Z</time>
      </trkpt>
      <trkpt lat="46.79081" lon="12.29275">
        <ele>2242.41</ele>
        <time>2015-02-26T09:53:41Z</time>
      </trkpt>
      <trkpt lat="46.79078" lon="12.29268">
        <ele>2244.33</ele>
        <time>2015-02-26T09:53:58Z</time>
      </trkpt>
      <trkpt lat="46.79074" lon="12.29263">
        <ele>2245.78</ele>
        <time>2015-02-26T09:54:13Z</time>
      </trkpt>
      <trkpt lat="46.79068" lon="12.29259">
        <ele>2247.7</ele>
        <time>2015-02-26T09:54:30Z</time>
      </trkpt>
      <trkpt lat="46.79065" lon="12.29252">
        <ele>2249.14</ele>
        <time>2015-02-26T09:54:44Z</time>
      </trkpt>
      <trkpt lat="46.79062" lon="12.29246">
        <ele>2250.58</ele>
        <time>2015-02-26T09:54:58Z</time>
      </trkpt>
      <trkpt lat="46.7906" lon="12.29241">
        <ele>2252.03</ele>
        <time>2015-02-26T09:55:13Z</time>
      </trkpt>
      <trkpt lat="46.79058" lon="12.29234">
        <ele>2253.95</ele>
        <time>2015-02-26T09:55:29Z</time>
      </trkpt>
      <trkpt lat="46.79056" lon="12.29227">
        <ele>2255.39</ele>
        <time>2015-02-26T09:55:43Z</time>
      </trkpt>
      <trkpt lat="46.79054" lon="12.29221">
        <ele>2256.35</ele>
        <time>2015-02-26T09:55:57Z</time>
      </trkpt>
      <trkpt lat="46.79054" lon="12.29213">
        <ele>2257.79</ele>
        <time>2015-02-26T09:56:11Z</time>
      </trkpt>
      <trkpt lat="46.79052" lon="12.29204">
        <ele>2259.24</ele>
        <time>2015-02-26T09:56:25Z</time>
      </trkpt>
      <trkpt lat="46.79054" lon="12.29197">
        <ele>2261.16</ele>
        <time>2015-02-26T09:56:40Z</time>
      </trkpt>
      <trkpt lat="46.79052" lon="12.29191">
        <ele>2262.12</ele>
        <time>2015-02-26T09:56:55Z</time>
      </trkpt>
      <trkpt lat="46.79049" lon="12.29184">
        <ele>2263.56</ele>
        <time>2015-02-26T09:57:09Z</time>
      </trkpt>
      <trkpt lat="46.79046" lon="12.29176">
        <ele>2265.48</ele>
        <time>2015-02-26T09:57:23Z</time>
      </trkpt>
      <trkpt lat="46.79042" lon="12.29169">
        <ele>2266.93</ele>
        <time>2015-02-26T09:57:38Z</time>
      </trkpt>
      <trkpt lat="46.7904" lon="12.29163">
        <ele>2268.85</ele>
        <time>2015-02-26T09:57:53Z</time>
      </trkpt>
      <trkpt lat="46.79036" lon="12.29157">
        <ele>2270.29</ele>
        <time>2015-02-26T09:58:09Z</time>
      </trkpt>
      <trkpt lat="46.7904" lon="12.29155">
        <ele>2271.73</ele>
        <time>2015-02-26T09:58:23Z</time>
      </trkpt>
      <trkpt lat="46.79042" lon="12.29151">
        <ele>2273.17</ele>
        <time>2015-02-26T09:58:39Z</time>
      </trkpt>
      <trkpt lat="46.79037" lon="12.29143">
        <ele>2274.62</ele>
        <time>2015-02-26T09:58:54Z</time>
      </trkpt>
      <trkpt lat="46.79033" lon="12.29139">
        <ele>2276.06</ele>
        <time>2015-02-26T09:59:09Z</time>
      </trkpt>
      <trkpt lat="46.79028" lon="12.29135">
        <ele>2277.98</ele>
        <time>2015-02-26T09:59:23Z</time>
      </trkpt>
      <trkpt lat="46.79022" lon="12.29133">
        <ele>2279.42</ele>
        <time>2015-02-26T09:59:37Z</time>
      </trkpt>
      <trkpt lat="46.79023" lon="12.2913">
        <ele>2280.38</ele>
        <time>2015-02-26T09:59:54Z</time>
      </trkpt>
      <trkpt lat="46.79025" lon="12.29123">
        <ele>2281.83</ele>
        <time>2015-02-26T10:00:09Z</time>
      </trkpt>
      <trkpt lat="46.79026" lon="12.29116">
        <ele>2283.27</ele>
        <time>2015-02-26T10:00:25Z</time>
      </trkpt>
      <trkpt lat="46.79028" lon="12.29111">
        <ele>2284.71</ele>
        <time>2015-02-26T10:00:39Z</time>
      </trkpt>
      <trkpt lat="46.79032" lon="12.29106">
        <ele>2286.15</ele>
        <time>2015-02-26T10:00:52Z</time>
      </trkpt>
      <trkpt lat="46.79034" lon="12.29098">
        <ele>2287.59</ele>
        <time>2015-02-26T10:01:07Z</time>
      </trkpt>
      <trkpt lat="46.79037" lon="12.29093">
        <ele>2289.04</ele>
        <time>2015-02-26T10:01:22Z</time>
      </trkpt>
      <trkpt lat="46.7904" lon="12.29087">
        <ele>2290.48</ele>
        <time>2015-02-26T10:01:37Z</time>
      </trkpt>
      <trkpt lat="46.79042" lon="12.29081">
        <ele>2291.44</ele>
        <time>2015-02-26T10:01:50Z</time>
      </trkpt>
      <trkpt lat="46.79044" lon="12.29076">
        <ele>2292.4</ele>
        <time>2015-02-26T10:02:01Z</time>
      </trkpt>
      <trkpt lat="46.79045" lon="12.2907">
        <ele>2293.84</ele>
        <time>2015-02-26T10:02:15Z</time>
      </trkpt>
      <trkpt lat="46.79049" lon="12.29064">
        <ele>2295.28</ele>
        <time>2015-02-26T10:02:29Z</time>
      </trkpt>
      <trkpt lat="46.79052" lon="12.2906">
        <ele>2296.73</ele>
        <time>2015-02-26T10:02:42Z</time>
      </trkpt>
      <trkpt lat="46.79054" lon="12.29055">
        <ele>2298.65</ele>
        <time>2015-02-26T10:02:57Z</time>
      </trkpt>
      <trkpt lat="46.79059" lon="12.2905">
        <ele>2300.09</ele>
        <time>2015-02-26T10:03:12Z</time>
      </trkpt>
      <trkpt lat="46.79061" lon="12.29044">
        <ele>2301.53</ele>
        <time>2015-02-26T10:03:25Z</time>
      </trkpt>
      <trkpt lat="46.79061" lon="12.29036">
        <ele>2302.98</ele>
        <time>2015-02-26T10:03:40Z</time>
      </trkpt>
      <trkpt lat="46.79058" lon="12.29027">
        <ele>2304.9</ele>
        <time>2015-02-26T10:03:55Z</time>
      </trkpt>
      <trkpt lat="46.7906" lon="12.29023">
        <ele>2306.34</ele>
        <time>2015-02-26T10:04:09Z</time>
      </trkpt>
      <trkpt lat="46.79063" lon="12.29018">
        <ele>2308.26</ele>
        <time>2015-02-26T10:04:24Z</time>
      </trkpt>
      <trkpt lat="46.79062" lon="12.29008">
        <ele>2309.7</ele>
        <time>2015-02-26T10:04:38Z</time>
      </trkpt>
      <trkpt lat="46.79058" lon="12.29002">
        <ele>2311.15</ele>
        <time>2015-02-26T10:04:53Z</time>
      </trkpt>
      <trkpt lat="46.79054" lon="12.28996">
        <ele>2313.07</ele>
        <time>2015-02-26T10:05:09Z</time>
      </trkpt>
      <trkpt lat="46.79052" lon="12.2899">
        <ele>2314.51</ele>
        <time>2015-02-26T10:05:24Z</time>
      </trkpt>
      <trkpt lat="46.79049" lon="12.28985">
        <ele>2316.43</ele>
        <time>2015-02-26T10:05:40Z</time>
      </trkpt>
      <trkpt lat="46.79052" lon="12.28979">
        <ele>2317.88</ele>
        <time>2015-02-26T10:05:54Z</time>
      </trkpt>
      <trkpt lat="46.79053" lon="12.28973">
        <ele>2319.32</ele>
        <time>2015-02-26T10:06:08Z</time>
      </trkpt>
      <trkpt lat="46.79051" lon="12.28965">
        <ele>2321.24</ele>
        <time>2015-02-26T10:06:22Z</time>
      </trkpt>
      <trkpt lat="46.7905" lon="12.28957">
        <ele>2322.2</ele>
        <time>2015-02-26T10:06:35Z</time>
      </trkpt>
      <trkpt lat="46.79049" lon="12.2895">
        <ele>2324.12</ele>
        <time>2015-02-26T10:06:50Z</time>
      </trkpt>
      <trkpt lat="46.79049" lon="12.28942">
        <ele>2326.05</ele>
        <time>2015-02-26T10:07:06Z</time>
      </trkpt>
      <trkpt lat="46.7905" lon="12.28935">
        <ele>2327.49</ele>
        <time>2015-02-26T10:07:23Z</time>
      </trkpt>
      <trkpt lat="46.7905" lon="12.2893">
        <ele>2328.93</ele>
        <time>2015-02-26T10:07:36Z</time>
      </trkpt>
      <trkpt lat="46.7905" lon="12.28923">
        <ele>2330.85</ele>
        <time>2015-02-26T10:07:52Z</time>
      </trkpt>
      <trkpt lat="46.79048" lon="12.28914">
        <ele>2332.78</ele>
        <time>2015-02-26T10:08:08Z</time>
      </trkpt>
      <trkpt lat="46.79044" lon="12.28908">
        <ele>2334.22</ele>
        <time>2015-02-26T10:08:23Z</time>
      </trkpt>
      <trkpt lat="46.79041" lon="12.28902">
        <ele>2336.14</ele>
        <time>2015-02-26T10:08:37Z</time>
      </trkpt>
      <trkpt lat="46.7904" lon="12.28895">
        <ele>2337.58</ele>
        <time>2015-02-26T10:08:52Z</time>
      </trkpt>
      <trkpt lat="46.79038" lon="12.28886">
        <ele>2339.02</ele>
        <time>2015-02-26T10:09:07Z</time>
      </trkpt>
      <trkpt lat="46.79036" lon="12.2888">
        <ele>2340.47</ele>
        <time>2015-02-26T10:09:21Z</time>
      </trkpt>
      <trkpt lat="46.79033" lon="12.28873">
        <ele>2342.39</ele>
        <time>2015-02-26T10:09:36Z</time>
      </trkpt>
      <trkpt lat="46.79033" lon="12.2887">
        <ele>2343.35</ele>
        <time>2015-02-26T10:09:52Z</time>
      </trkpt>
      <trkpt lat="46.79032" lon="12.28872">
        <ele>2342.39</ele>
        <time>2015-02-26T10:10:11Z</time>
      </trkpt>
      <trkpt lat="46.79032" lon="12.28873">
        <ele>2342.39</ele>
        <time>2015-02-26T10:10:39Z</time>
      </trkpt>
      <trkpt lat="46.79033" lon="12.28872">
        <ele>2342.39</ele>
        <time>2015-02-26T10:11:18Z</time>
      </trkpt>
      <trkpt lat="46.79034" lon="12.28873">
        <ele>2342.39</ele>
        <time>2015-02-26T10:12:06Z</time>
      </trkpt>
      <trkpt lat="46.79034" lon="12.28873">
        <ele>2342.39</ele>
        <time>2015-02-26T10:12:44Z</time>
      </trkpt>
      <trkpt lat="46.79033" lon="12.28873">
        <ele>2342.39</ele>
        <time>2015-02-26T10:13:24Z</time>
      </trkpt>
      <trkpt lat="46.79034" lon="12.28874">
        <ele>2342.87</ele>
        <time>2015-02-26T10:14:15Z</time>
      </trkpt>
      <trkpt lat="46.79032" lon="12.28871">
        <ele>2344.31</ele>
        <time>2015-02-26T10:14:44Z</time>
      </trkpt>
      <trkpt lat="46.79032" lon="12.28869">
        <ele>2343.83</ele>
        <time>2015-02-26T10:15:00Z</time>
      </trkpt>
      <trkpt lat="46.79033" lon="12.2887">
        <ele>2343.83</ele>
        <time>2015-02-26T10:15:24Z</time>
      </trkpt>
      <trkpt lat="46.79033" lon="12.28869">
        <ele>2344.31</ele>
        <time>2015-02-26T10:15:44Z</time>
      </trkpt>
      <trkpt lat="46.79031" lon="12.28869">
        <ele>2344.31</ele>
        <time>2015-02-26T10:16:00Z</time>
      </trkpt>
      <trkpt lat="46.79029" lon="12.28865">
        <ele>2344.31</ele>
        <time>2015-02-26T10:16:11Z</time>
      </trkpt>
      <trkpt lat="46.79027" lon="12.28855">
        <ele>2346.23</ele>
        <time>2015-02-26T10:16:24Z</time>
      </trkpt>
      <trkpt lat="46.79024" lon="12.28849">
        <ele>2348.16</ele>
        <time>2015-02-26T10:16:41Z</time>
      </trkpt>
      <trkpt lat="46.79021" lon="12.28842">
        <ele>2349.6</ele>
        <time>2015-02-26T10:16:57Z</time>
      </trkpt>
      <trkpt lat="46.79019" lon="12.28835">
        <ele>2351.52</ele>
        <time>2015-02-26T10:17:13Z</time>
      </trkpt>
      <trkpt lat="46.79018" lon="12.28828">
        <ele>2352.96</ele>
        <time>2015-02-26T10:17:28Z</time>
      </trkpt>
      <trkpt lat="46.79016" lon="12.2882">
        <ele>2354.41</ele>
        <time>2015-02-26T10:17:44Z</time>
      </trkpt>
      <trkpt lat="46.79015" lon="12.28813">
        <ele>2355.85</ele>
        <time>2015-02-26T10:17:58Z</time>
      </trkpt>
      <trkpt lat="46.79012" lon="12.28805">
        <ele>2357.29</ele>
        <time>2015-02-26T10:18:14Z</time>
      </trkpt>
      <trkpt lat="46.79008" lon="12.28801">
        <ele>2358.73</ele>
        <time>2015-02-26T10:18:27Z</time>
      </trkpt>
      <trkpt lat="46.79004" lon="12.28798">
        <ele>2359.69</ele>
        <time>2015-02-26T10:18:41Z</time>
      </trkpt>
      <trkpt lat="46.79003" lon="12.28795">
        <ele>2361.62</ele>
        <time>2015-02-26T10:18:56Z</time>
      </trkpt>
      <trkpt lat="46.79006" lon="12.28789">
        <ele>2362.58</ele>
        <time>2015-02-26T10:19:11Z</time>
      </trkpt>
      <trkpt lat="46.7901" lon="12.28784">
        <ele>2363.54</ele>
        <time>2015-02-26T10:19:25Z</time>
      </trkpt>
      <trkpt lat="46.79011" lon="12.28776">
        <ele>2365.46</ele>
        <time>2015-02-26T10:19:40Z</time>
      </trkpt>
      <trkpt lat="46.79006" lon="12.28772">
        <ele>2366.42</ele>
        <time>2015-02-26T10:19:54Z</time>
      </trkpt>
      <trkpt lat="46.79003" lon="12.28772">
        <ele>2367.86</ele>
        <time>2015-02-26T10:20:08Z</time>
      </trkpt>
      <trkpt lat="46.79" lon="12.28768">
        <ele>2368.83</ele>
        <time>2015-02-26T10:20:21Z</time>
      </trkpt>
      <trkpt lat="46.78996" lon="12.28763">
        <ele>2370.27</ele>
        <time>2015-02-26T10:20:36Z</time>
      </trkpt>
      <trkpt lat="46.78993" lon="12.28758">
        <ele>2371.71</ele>
        <time>2015-02-26T10:20:50Z</time>
      </trkpt>
      <trkpt lat="46.78989" lon="12.28753">
        <ele>2373.15</ele>
        <time>2015-02-26T10:21:05Z</time>
      </trkpt>
      <trkpt lat="46.78986" lon="12.28749">
        <ele>2374.59</ele>
        <time>2015-02-26T10:21:19Z</time>
      </trkpt>
      <trkpt lat="46.78982" lon="12.28745">
        <ele>2376.04</ele>
        <time>2015-02-26T10:21:34Z</time>
      </trkpt>
      <trkpt lat="46.78983" lon="12.28742">
        <ele>2377.48</ele>
        <time>2015-02-26T10:21:47Z</time>
      </trkpt>
      <trkpt lat="46.78987" lon="12.28736">
        <ele>2378.92</ele>
        <time>2015-02-26T10:22:02Z</time>
      </trkpt>
      <trkpt lat="46.7899" lon="12.28734">
        <ele>2380.36</ele>
        <time>2015-02-26T10:22:17Z</time>
      </trkpt>
      <trkpt lat="46.78993" lon="12.2873">
        <ele>2381.8</ele>
        <time>2015-02-26T10:22:31Z</time>
      </trkpt>
      <trkpt lat="46.78996" lon="12.28725">
        <ele>2383.25</ele>
        <time>2015-02-26T10:22:45Z</time>
      </trkpt>
      <trkpt lat="46.78998" lon="12.2872">
        <ele>2384.21</ele>
        <time>2015-02-26T10:22:59Z</time>
      </trkpt>
      <trkpt lat="46.78999" lon="12.28715">
        <ele>2386.13</ele>
        <time>2015-02-26T10:23:14Z</time>
      </trkpt>
      <trkpt lat="46.79003" lon="12.2871">
        <ele>2387.09</ele>
        <time>2015-02-26T10:23:26Z</time>
      </trkpt>
      <trkpt lat="46.79006" lon="12.28704">
        <ele>2389.01</ele>
        <time>2015-02-26T10:23:41Z</time>
      </trkpt>
      <trkpt lat="46.79009" lon="12.28699">
        <ele>2389.97</ele>
        <time>2015-02-26T10:23:54Z</time>
      </trkpt>
      <trkpt lat="46.79012" lon="12.28693">
        <ele>2391.42</ele>
        <time>2015-02-26T10:24:08Z</time>
      </trkpt>
      <trkpt lat="46.79015" lon="12.2869">
        <ele>2392.86</ele>
        <time>2015-02-26T10:24:24Z</time>
      </trkpt>
      <trkpt lat="46.79017" lon="12.28683">
        <ele>2394.78</ele>
        <time>2015-02-26T10:24:39Z</time>
      </trkpt>
      <trkpt lat="46.79012" lon="12.28677">
        <ele>2396.22</ele>
        <time>2015-02-26T10:24:55Z</time>
      </trkpt>
      <trkpt lat="46.79008" lon="12.28673">
        <ele>2397.67</ele>
        <time>2015-02-26T10:25:08Z</time>
      </trkpt>
      <trkpt lat="46.79004" lon="12.28668">
        <ele>2399.11</ele>
        <time>2015-02-26T10:25:24Z</time>
      </trkpt>
      <trkpt lat="46.79" lon="12.28663">
        <ele>2400.55</ele>
        <time>2015-02-26T10:25:38Z</time>
      </trkpt>
      <trkpt lat="46.78996" lon="12.28658">
        <ele>2402.47</ele>
        <time>2015-02-26T10:25:54Z</time>
      </trkpt>
      <trkpt lat="46.78993" lon="12.28654">
        <ele>2403.91</ele>
        <time>2015-02-26T10:26:10Z</time>
      </trkpt>
      <trkpt lat="46.7899" lon="12.28648">
        <ele>2405.36</ele>
        <time>2015-02-26T10:26:24Z</time>
      </trkpt>
      <trkpt lat="46.78988" lon="12.28643">
        <ele>2406.8</ele>
        <time>2015-02-26T10:26:38Z</time>
      </trkpt>
      <trkpt lat="46.78988" lon="12.28635">
        <ele>2408.24</ele>
        <time>2015-02-26T10:26:54Z</time>
      </trkpt>
      <trkpt lat="46.78987" lon="12.2863">
        <ele>2409.68</ele>
        <time>2015-02-26T10:27:08Z</time>
      </trkpt>
      <trkpt lat="46.78988" lon="12.28633">
        <ele>2408.72</ele>
        <time>2015-02-26T10:27:28Z</time>
      </trkpt>
      <trkpt lat="46.78986" lon="12.28632">
        <ele>2408.24</ele>
        <time>2015-02-26T10:27:59Z</time>
      </trkpt>
      <trkpt lat="46.78986" lon="12.28633">
        <ele>2408.24</ele>
        <time>2015-02-26T10:28:41Z</time>
      </trkpt>
      <trkpt lat="46.78985" lon="12.28632">
        <ele>2409.2</ele>
        <time>2015-02-26T10:28:55Z</time>
      </trkpt>
      <trkpt lat="46.78989" lon="12.28628">
        <ele>2411.12</ele>
        <time>2015-02-26T10:29:09Z</time>
      </trkpt>
      <trkpt lat="46.78992" lon="12.28622">
        <ele>2412.57</ele>
        <time>2015-02-26T10:29:25Z</time>
      </trkpt>
      <trkpt lat="46.78997" lon="12.28615">
        <ele>2414.97</ele>
        <time>2015-02-26T10:29:42Z</time>
      </trkpt>
      <trkpt lat="46.78999" lon="12.28608">
        <ele>2416.41</ele>
        <time>2015-02-26T10:29:58Z</time>
      </trkpt>
      <trkpt lat="46.79002" lon="12.28599">
        <ele>2418.33</ele>
        <time>2015-02-26T10:30:16Z</time>
      </trkpt>
      <trkpt lat="46.79004" lon="12.28594">
        <ele>2420.26</ele>
        <time>2015-02-26T10:30:32Z</time>
      </trkpt>
      <trkpt lat="46.79003" lon="12.28586">
        <ele>2422.18</ele>
        <time>2015-02-26T10:30:47Z</time>
      </trkpt>
      <trkpt lat="46.79001" lon="12.28578">
        <ele>2423.62</ele>
        <time>2015-02-26T10:31:03Z</time>
      </trkpt>
      <trkpt lat="46.78999" lon="12.28571">
        <ele>2425.06</ele>
        <time>2015-02-26T10:31:17Z</time>
      </trkpt>
      <trkpt lat="46.78995" lon="12.28566">
        <ele>2426.5</ele>
        <time>2015-02-26T10:31:32Z</time>
      </trkpt>
      <trkpt lat="46.78992" lon="12.2856">
        <ele>2428.43</ele>
        <time>2015-02-26T10:31:47Z</time>
      </trkpt>
      <trkpt lat="46.78991" lon="12.28556">
        <ele>2430.35</ele>
        <time>2015-02-26T10:32:03Z</time>
      </trkpt>
      <trkpt lat="46.78997" lon="12.28549">
        <ele>2432.27</ele>
        <time>2015-02-26T10:32:21Z</time>
      </trkpt>
      <trkpt lat="46.79001" lon="12.28544">
        <ele>2433.71</ele>
        <time>2015-02-26T10:32:39Z</time>
      </trkpt>
      <trkpt lat="46.79004" lon="12.2854">
        <ele>2435.16</ele>
        <time>2015-02-26T10:32:57Z</time>
      </trkpt>
      <trkpt lat="46.79008" lon="12.28538">
        <ele>2436.6</ele>
        <time>2015-02-26T10:33:14Z</time>
      </trkpt>
      <trkpt lat="46.79007" lon="12.2853">
        <ele>2438.04</ele>
        <time>2015-02-26T10:33:28Z</time>
      </trkpt>
      <trkpt lat="46.79006" lon="12.28523">
        <ele>2439.48</ele>
        <time>2015-02-26T10:33:43Z</time>
      </trkpt>
      <trkpt lat="46.79002" lon="12.28518">
        <ele>2440.92</ele>
        <time>2015-02-26T10:33:57Z</time>
      </trkpt>
      <trkpt lat="46.79002" lon="12.28514">
        <ele>2442.85</ele>
        <time>2015-02-26T10:34:13Z</time>
      </trkpt>
      <trkpt lat="46.79004" lon="12.28509">
        <ele>2444.29</ele>
        <time>2015-02-26T10:34:28Z</time>
      </trkpt>
      <trkpt lat="46.79007" lon="12.28505">
        <ele>2445.73</ele>
        <time>2015-02-26T10:34:44Z</time>
      </trkpt>
      <trkpt lat="46.79009" lon="12.28499">
        <ele>2447.65</ele>
        <time>2015-02-26T10:35:00Z</time>
      </trkpt>
      <trkpt lat="46.79006" lon="12.28491">
        <ele>2449.1</ele>
        <time>2015-02-26T10:35:15Z</time>
      </trkpt>
      <trkpt lat="46.79004" lon="12.28486">
        <ele>2450.54</ele>
        <time>2015-02-26T10:35:29Z</time>
      </trkpt>
      <trkpt lat="46.79002" lon="12.28479">
        <ele>2451.98</ele>
        <time>2015-02-26T10:35:44Z</time>
      </trkpt>
      <trkpt lat="46.79" lon="12.28473">
        <ele>2453.9</ele>
        <time>2015-02-26T10:35:58Z</time>
      </trkpt>
      <trkpt lat="46.78998" lon="12.28466">
        <ele>2455.34</ele>
        <time>2015-02-26T10:36:14Z</time>
      </trkpt>
      <trkpt lat="46.78997" lon="12.2846">
        <ele>2456.79</ele>
        <time>2015-02-26T10:36:28Z</time>
      </trkpt>
      <trkpt lat="46.78996" lon="12.28452">
        <ele>2458.71</ele>
        <time>2015-02-26T10:36:43Z</time>
      </trkpt>
      <trkpt lat="46.78997" lon="12.28447">
        <ele>2459.67</ele>
        <time>2015-02-26T10:36:57Z</time>
      </trkpt>
      <trkpt lat="46.78999" lon="12.28441">
        <ele>2461.11</ele>
        <time>2015-02-26T10:37:11Z</time>
      </trkpt>
      <trkpt lat="46.78999" lon="12.28434">
        <ele>2463.04</ele>
        <time>2015-02-26T10:37:27Z</time>
      </trkpt>
      <trkpt lat="46.79001" lon="12.28429">
        <ele>2464.48</ele>
        <time>2015-02-26T10:37:40Z</time>
      </trkpt>
      <trkpt lat="46.79004" lon="12.28422">
        <ele>2465.92</ele>
        <time>2015-02-26T10:37:56Z</time>
      </trkpt>
      <trkpt lat="46.79004" lon="12.28416">
        <ele>2466.88</ele>
        <time>2015-02-26T10:38:10Z</time>
      </trkpt>
      <trkpt lat="46.79006" lon="12.2841">
        <ele>2468.8</ele>
        <time>2015-02-26T10:38:25Z</time>
      </trkpt>
      <trkpt lat="46.79005" lon="12.28404">
        <ele>2470.73</ele>
        <time>2015-02-26T10:38:41Z</time>
      </trkpt>
      <trkpt lat="46.79008" lon="12.28401">
        <ele>2471.69</ele>
        <time>2015-02-26T10:38:58Z</time>
      </trkpt>
      <trkpt lat="46.79014" lon="12.284">
        <ele>2473.13</ele>
        <time>2015-02-26T10:39:14Z</time>
      </trkpt>
      <trkpt lat="46.79019" lon="12.28399">
        <ele>2475.05</ele>
        <time>2015-02-26T10:39:30Z</time>
      </trkpt>
      <trkpt lat="46.7902" lon="12.28396">
        <ele>2476.49</ele>
        <time>2015-02-26T10:39:46Z</time>
      </trkpt>
      <trkpt lat="46.79022" lon="12.28394">
        <ele>2477.45</ele>
        <time>2015-02-26T10:40:08Z</time>
      </trkpt>
      <trkpt lat="46.79026" lon="12.28392">
        <ele>2478.9</ele>
        <time>2015-02-26T10:40:24Z</time>
      </trkpt>
      <trkpt lat="46.79031" lon="12.28386">
        <ele>2480.82</ele>
        <time>2015-02-26T10:40:41Z</time>
      </trkpt>
      <trkpt lat="46.79028" lon="12.2838">
        <ele>2482.26</ele>
        <time>2015-02-26T10:40:55Z</time>
      </trkpt>
      <trkpt lat="46.79028" lon="12.28374">
        <ele>2483.7</ele>
        <time>2015-02-26T10:41:09Z</time>
      </trkpt>
      <trkpt lat="46.79026" lon="12.28368">
        <ele>2485.63</ele>
        <time>2015-02-26T10:41:25Z</time>
      </trkpt>
      <trkpt lat="46.79023" lon="12.2836">
        <ele>2487.07</ele>
        <time>2015-02-26T10:41:39Z</time>
      </trkpt>
      <trkpt lat="46.79021" lon="12.28355">
        <ele>2488.03</ele>
        <time>2015-02-26T10:41:52Z</time>
      </trkpt>
      <trkpt lat="46.79018" lon="12.28353">
        <ele>2489.95</ele>
        <time>2015-02-26T10:42:09Z</time>
      </trkpt>
      <trkpt lat="46.79014" lon="12.28349">
        <ele>2491.39</ele>
        <time>2015-02-26T10:42:24Z</time>
      </trkpt>
      <trkpt lat="46.79011" lon="12.28347">
        <ele>2492.84</ele>
        <time>2015-02-26T10:42:38Z</time>
      </trkpt>
      <trkpt lat="46.79007" lon="12.28341">
        <ele>2494.28</ele>
        <time>2015-02-26T10:42:54Z</time>
      </trkpt>
      <trkpt lat="46.79003" lon="12.28338">
        <ele>2495.72</ele>
        <time>2015-02-26T10:43:08Z</time>
      </trkpt>
      <trkpt lat="46.79" lon="12.28334">
        <ele>2496.68</ele>
        <time>2015-02-26T10:43:25Z</time>
      </trkpt>
      <trkpt lat="46.78996" lon="12.28328">
        <ele>2497.64</ele>
        <time>2015-02-26T10:43:40Z</time>
      </trkpt>
      <trkpt lat="46.78996" lon="12.2832">
        <ele>2499.57</ele>
        <time>2015-02-26T10:43:54Z</time>
      </trkpt>
      <trkpt lat="46.79003" lon="12.28321">
        <ele>2500.53</ele>
        <time>2015-02-26T10:44:09Z</time>
      </trkpt>
      <trkpt lat="46.79004" lon="12.28319">
        <ele>2501.97</ele>
        <time>2015-02-26T10:44:23Z</time>
      </trkpt>
      <trkpt lat="46.79012" lon="12.28313">
        <ele>2503.41</ele>
        <time>2015-02-26T10:44:39Z</time>
      </trkpt>
      <trkpt lat="46.79017" lon="12.28312">
        <ele>2504.85</ele>
        <time>2015-02-26T10:44:54Z</time>
      </trkpt>
      <trkpt lat="46.79023" lon="12.28312">
        <ele>2505.81</ele>
        <time>2015-02-26T10:45:09Z</time>
      </trkpt>
      <trkpt lat="46.79024" lon="12.2831">
        <ele>2507.26</ele>
        <time>2015-02-26T10:45:23Z</time>
      </trkpt>
      <trkpt lat="46.79029" lon="12.28311">
        <ele>2508.22</ele>
        <time>2015-02-26T10:45:38Z</time>
      </trkpt>
      <trkpt lat="46.79029" lon="12.28311">
        <ele>2508.22</ele>
        <time>2015-02-26T10:45:58Z</time>
      </trkpt>
      <trkpt lat="46.79036" lon="12.2831">
        <ele>2510.62</ele>
        <time>2015-02-26T10:46:15Z</time>
      </trkpt>
      <trkpt lat="46.7904" lon="12.2831">
        <ele>2512.54</ele>
        <time>2015-02-26T10:46:32Z</time>
      </trkpt>
      <trkpt lat="46.79045" lon="12.28309">
        <ele>2514.47</ele>
        <time>2015-02-26T10:46:47Z</time>
      </trkpt>
      <trkpt lat="46.79049" lon="12.2831">
        <ele>2515.91</ele>
        <time>2015-02-26T10:47:06Z</time>
      </trkpt>
      <trkpt lat="46.79058" lon="12.28307">
        <ele>2517.35</ele>
        <time>2015-02-26T10:47:21Z</time>
      </trkpt>
      <trkpt lat="46.79065" lon="12.28304">
        <ele>2518.79</ele>
        <time>2015-02-26T10:47:40Z</time>
      </trkpt>
      <trkpt lat="46.79074" lon="12.28302">
        <ele>2518.79</ele>
        <time>2015-02-26T10:47:55Z</time>
      </trkpt>
      <trkpt lat="46.79081" lon="12.283">
        <ele>2519.75</ele>
        <time>2015-02-26T10:48:12Z</time>
      </trkpt>
      <trkpt lat="46.79085" lon="12.283">
        <ele>2521.19</ele>
        <time>2015-02-26T10:48:30Z</time>
      </trkpt>
      <trkpt lat="46.7909" lon="12.28299">
        <ele>2522.64</ele>
        <time>2015-02-26T10:48:47Z</time>
      </trkpt>
      <trkpt lat="46.79092" lon="12.28298">
        <ele>2524.08</ele>
        <time>2015-02-26T10:49:03Z</time>
      </trkpt>
      <trkpt lat="46.79097" lon="12.28299">
        <ele>2526</ele>
        <time>2015-02-26T10:49:22Z</time>
      </trkpt>
      <trkpt lat="46.79102" lon="12.28298">
        <ele>2526.96</ele>
        <time>2015-02-26T10:49:39Z</time>
      </trkpt>
      <trkpt lat="46.79106" lon="12.28298">
        <ele>2528.4</ele>
        <time>2015-02-26T10:49:55Z</time>
      </trkpt>
      <trkpt lat="46.79112" lon="12.28297">
        <ele>2529.85</ele>
        <time>2015-02-26T10:50:11Z</time>
      </trkpt>
      <trkpt lat="46.79115" lon="12.28295">
        <ele>2531.77</ele>
        <time>2015-02-26T10:50:27Z</time>
      </trkpt>
      <trkpt lat="46.79114" lon="12.28286">
        <ele>2533.21</ele>
        <time>2015-02-26T10:50:43Z</time>
      </trkpt>
      <trkpt lat="46.79115" lon="12.28285">
        <ele>2534.17</ele>
        <time>2015-02-26T10:50:57Z</time>
      </trkpt>
      <trkpt lat="46.79119" lon="12.28286">
        <ele>2535.13</ele>
        <time>2015-02-26T10:51:13Z</time>
      </trkpt>
      <trkpt lat="46.79124" lon="12.28289">
        <ele>2536.58</ele>
        <time>2015-02-26T10:51:31Z</time>
      </trkpt>
      <trkpt lat="46.79128" lon="12.2829">
        <ele>2538.02</ele>
        <time>2015-02-26T10:51:47Z</time>
      </trkpt>
      <trkpt lat="46.79131" lon="12.2829">
        <ele>2538.98</ele>
        <time>2015-02-26T10:52:03Z</time>
      </trkpt>
      <trkpt lat="46.79132" lon="12.28287">
        <ele>2539.46</ele>
        <time>2015-02-26T10:52:22Z</time>
      </trkpt>
      <trkpt lat="46.79129" lon="12.2828">
        <ele>2540.9</ele>
        <time>2015-02-26T10:52:36Z</time>
      </trkpt>
      <trkpt lat="46.79127" lon="12.28274">
        <ele>2542.34</ele>
        <time>2015-02-26T10:52:51Z</time>
      </trkpt>
      <trkpt lat="46.79127" lon="12.28268">
        <ele>2542.82</ele>
        <time>2015-02-26T10:53:08Z</time>
      </trkpt>
      <trkpt lat="46.79125" lon="12.28265">
        <ele>2543.79</ele>
        <time>2015-02-26T10:53:22Z</time>
      </trkpt>
      <trkpt lat="46.79122" lon="12.28258">
        <ele>2545.23</ele>
        <time>2015-02-26T10:53:37Z</time>
      </trkpt>
      <trkpt lat="46.79127" lon="12.28263">
        <ele>2546.19</ele>
        <time>2015-02-26T10:53:53Z</time>
      </trkpt>
      <trkpt lat="46.79132" lon="12.28265">
        <ele>2547.63</ele>
        <time>2015-02-26T10:54:10Z</time>
      </trkpt>
      <trkpt lat="46.79137" lon="12.28267">
        <ele>2549.07</ele>
        <time>2015-02-26T10:54:25Z</time>
      </trkpt>
      <trkpt lat="46.7914" lon="12.28268">
        <ele>2550.03</ele>
        <time>2015-02-26T10:54:43Z</time>
      </trkpt>
      <trkpt lat="46.79146" lon="12.28266">
        <ele>2551.96</ele>
        <time>2015-02-26T10:55:00Z</time>
      </trkpt>
      <trkpt lat="46.79143" lon="12.2826">
        <ele>2552.92</ele>
        <time>2015-02-26T10:55:16Z</time>
      </trkpt>
      <trkpt lat="46.79139" lon="12.28251">
        <ele>2554.84</ele>
        <time>2015-02-26T10:55:32Z</time>
      </trkpt>
      <trkpt lat="46.79138" lon="12.28248">
        <ele>2554.84</ele>
        <time>2015-02-26T10:55:49Z</time>
      </trkpt>
      <trkpt lat="46.79135" lon="12.28241">
        <ele>2556.76</ele>
        <time>2015-02-26T10:56:04Z</time>
      </trkpt>
      <trkpt lat="46.79133" lon="12.28232">
        <ele>2558.21</ele>
        <time>2015-02-26T10:56:20Z</time>
      </trkpt>
      <trkpt lat="46.79133" lon="12.2823">
        <ele>2559.65</ele>
        <time>2015-02-26T10:56:38Z</time>
      </trkpt>
      <trkpt lat="46.79137" lon="12.28233">
        <ele>2560.13</ele>
        <time>2015-02-26T10:56:53Z</time>
      </trkpt>
      <trkpt lat="46.79141" lon="12.28237">
        <ele>2562.05</ele>
        <time>2015-02-26T10:57:07Z</time>
      </trkpt>
      <trkpt lat="46.79147" lon="12.28237">
        <ele>2563.01</ele>
        <time>2015-02-26T10:57:20Z</time>
      </trkpt>
      <trkpt lat="46.79152" lon="12.28237">
        <ele>2564.45</ele>
        <time>2015-02-26T10:57:35Z</time>
      </trkpt>
      <trkpt lat="46.79156" lon="12.2824">
        <ele>2565.9</ele>
        <time>2015-02-26T10:57:50Z</time>
      </trkpt>
      <trkpt lat="46.79159" lon="12.28238">
        <ele>2567.34</ele>
        <time>2015-02-26T10:58:10Z</time>
      </trkpt>
      <trkpt lat="46.79158" lon="12.28234">
        <ele>2568.3</ele>
        <time>2015-02-26T10:58:25Z</time>
      </trkpt>
      <trkpt lat="46.79156" lon="12.28229">
        <ele>2569.26</ele>
        <time>2015-02-26T10:58:41Z</time>
      </trkpt>
      <trkpt lat="46.79154" lon="12.28221">
        <ele>2571.18</ele>
        <time>2015-02-26T10:58:56Z</time>
      </trkpt>
      <trkpt lat="46.79152" lon="12.28215">
        <ele>2572.63</ele>
        <time>2015-02-26T10:59:12Z</time>
      </trkpt>
      <trkpt lat="46.79158" lon="12.28218">
        <ele>2574.07</ele>
        <time>2015-02-26T10:59:27Z</time>
      </trkpt>
      <trkpt lat="46.79162" lon="12.28219">
        <ele>2575.51</ele>
        <time>2015-02-26T10:59:43Z</time>
      </trkpt>
      <trkpt lat="46.79168" lon="12.28219">
        <ele>2577.43</ele>
        <time>2015-02-26T11:00:00Z</time>
      </trkpt>
      <trkpt lat="46.79169" lon="12.28214">
        <ele>2578.87</ele>
        <time>2015-02-26T11:00:17Z</time>
      </trkpt>
      <trkpt lat="46.79165" lon="12.28208">
        <ele>2580.8</ele>
        <time>2015-02-26T11:00:33Z</time>
      </trkpt>
      <trkpt lat="46.79163" lon="12.28201">
        <ele>2582.24</ele>
        <time>2015-02-26T11:00:50Z</time>
      </trkpt>
      <trkpt lat="46.79161" lon="12.28195">
        <ele>2584.16</ele>
        <time>2015-02-26T11:01:06Z</time>
      </trkpt>
      <trkpt lat="46.79159" lon="12.28188">
        <ele>2585.6</ele>
        <time>2015-02-26T11:01:21Z</time>
      </trkpt>
      <trkpt lat="46.79162" lon="12.28187">
        <ele>2586.56</ele>
        <time>2015-02-26T11:01:36Z</time>
      </trkpt>
      <trkpt lat="46.79166" lon="12.28188">
        <ele>2588.01</ele>
        <time>2015-02-26T11:01:50Z</time>
      </trkpt>
      <trkpt lat="46.79173" lon="12.28189">
        <ele>2588.97</ele>
        <time>2015-02-26T11:02:06Z</time>
      </trkpt>
      <trkpt lat="46.79179" lon="12.28189">
        <ele>2590.41</ele>
        <time>2015-02-26T11:02:20Z</time>
      </trkpt>
      <trkpt lat="46.79181" lon="12.28184">
        <ele>2591.85</ele>
        <time>2015-02-26T11:02:35Z</time>
      </trkpt>
      <trkpt lat="46.79183" lon="12.28177">
        <ele>2593.29</ele>
        <time>2015-02-26T11:02:49Z</time>
      </trkpt>
      <trkpt lat="46.79184" lon="12.28176">
        <ele>2592.33</ele>
        <time>2015-02-26T11:03:06Z</time>
      </trkpt>
      <trkpt lat="46.79184" lon="12.28174">
        <ele>2592.33</ele>
        <time>2015-02-26T11:03:35Z</time>
      </trkpt>
      <trkpt lat="46.79185" lon="12.28174">
        <ele>2592.33</ele>
        <time>2015-02-26T11:04:09Z</time>
      </trkpt>
      <trkpt lat="46.79185" lon="12.28174">
        <ele>2594.25</ele>
        <time>2015-02-26T11:04:44Z</time>
      </trkpt>
      <trkpt lat="46.79185" lon="12.28174">
        <ele>2594.25</ele>
        <time>2015-02-26T11:04:45Z</time>
      </trkpt>
      <trkpt lat="46.79185" lon="12.28169">
        <ele>2595.22</ele>
        <time>2015-02-26T11:05:00Z</time>
      </trkpt>
      <trkpt lat="46.79187" lon="12.28162">
        <ele>2596.18</ele>
        <time>2015-02-26T11:05:12Z</time>
      </trkpt>
      <trkpt lat="46.79187" lon="12.28154">
        <ele>2597.62</ele>
        <time>2015-02-26T11:05:27Z</time>
      </trkpt>
      <trkpt lat="46.79186" lon="12.28146">
        <ele>2599.54</ele>
        <time>2015-02-26T11:05:43Z</time>
      </trkpt>
      <trkpt lat="46.79184" lon="12.2814">
        <ele>2601.46</ele>
        <time>2015-02-26T11:05:57Z</time>
      </trkpt>
      <trkpt lat="46.79183" lon="12.28134">
        <ele>2602.91</ele>
        <time>2015-02-26T11:06:12Z</time>
      </trkpt>
      <trkpt lat="46.7918" lon="12.28128">
        <ele>2604.35</ele>
        <time>2015-02-26T11:06:25Z</time>
      </trkpt>
      <trkpt lat="46.79177" lon="12.28124">
        <ele>2605.79</ele>
        <time>2015-02-26T11:06:39Z</time>
      </trkpt>
      <trkpt lat="46.79174" lon="12.28121">
        <ele>2607.23</ele>
        <time>2015-02-26T11:06:53Z</time>
      </trkpt>
      <trkpt lat="46.79169" lon="12.2812">
        <ele>2609.16</ele>
        <time>2015-02-26T11:07:09Z</time>
      </trkpt>
      <trkpt lat="46.79167" lon="12.28117">
        <ele>2610.12</ele>
        <time>2015-02-26T11:07:22Z</time>
      </trkpt>
      <trkpt lat="46.79165" lon="12.28114">
        <ele>2611.56</ele>
        <time>2015-02-26T11:07:35Z</time>
      </trkpt>
      <trkpt lat="46.79168" lon="12.28111">
        <ele>2613</ele>
        <time>2015-02-26T11:07:48Z</time>
      </trkpt>
      <trkpt lat="46.79169" lon="12.28104">
        <ele>2613.96</ele>
        <time>2015-02-26T11:08:02Z</time>
      </trkpt>
      <trkpt lat="46.79169" lon="12.28097">
        <ele>2615.4</ele>
        <time>2015-02-26T11:08:16Z</time>
      </trkpt>
      <trkpt lat="46.79167" lon="12.28091">
        <ele>2616.85</ele>
        <time>2015-02-26T11:08:30Z</time>
      </trkpt>
      <trkpt lat="46.79165" lon="12.28088">
        <ele>2618.29</ele>
        <time>2015-02-26T11:08:44Z</time>
      </trkpt>
      <trkpt lat="46.79165" lon="12.28083">
        <ele>2619.25</ele>
        <time>2015-02-26T11:09:01Z</time>
      </trkpt>
      <trkpt lat="46.79163" lon="12.28077">
        <ele>2621.17</ele>
        <time>2015-02-26T11:09:17Z</time>
      </trkpt>
      <trkpt lat="46.79159" lon="12.2807">
        <ele>2622.61</ele>
        <time>2015-02-26T11:09:31Z</time>
      </trkpt>
      <trkpt lat="46.79156" lon="12.28073">
        <ele>2624.06</ele>
        <time>2015-02-26T11:09:46Z</time>
      </trkpt>
      <trkpt lat="46.79153" lon="12.28081">
        <ele>2625.98</ele>
        <time>2015-02-26T11:10:01Z</time>
      </trkpt>
      <trkpt lat="46.79149" lon="12.28082">
        <ele>2628.38</ele>
        <time>2015-02-26T11:10:16Z</time>
      </trkpt>
      <trkpt lat="46.79148" lon="12.28079">
        <ele>2628.38</ele>
        <time>2015-02-26T11:10:32Z</time>
      </trkpt>
      <trkpt lat="46.79147" lon="12.28078">
        <ele>2628.38</ele>
        <time>2015-02-26T11:10:53Z</time>
      </trkpt>
      <trkpt lat="46.79146" lon="12.28076">
        <ele>2628.86</ele>
        <time>2015-02-26T11:11:07Z</time>
      </trkpt>
      <trkpt lat="46.79146" lon="12.28072">
        <ele>2628.86</ele>
        <time>2015-02-26T11:11:21Z</time>
      </trkpt>
      <trkpt lat="46.79145" lon="12.28067">
        <ele>2629.34</ele>
        <time>2015-02-26T11:11:33Z</time>
      </trkpt>
      <trkpt lat="46.79146" lon="12.28079">
        <ele>2628.86</ele>
        <time>2015-02-26T11:11:50Z</time>
      </trkpt>
      <trkpt lat="46.79148" lon="12.28073">
        <ele>2628.86</ele>
        <time>2015-02-26T11:12:10Z</time>
      </trkpt>
      <trkpt lat="46.79147" lon="12.2807">
        <ele>2628.86</ele>
        <time>2015-02-26T11:12:26Z</time>
      </trkpt>
      <trkpt lat="46.79146" lon="12.28073">
        <ele>2628.86</ele>
        <time>2015-02-26T11:12:46Z</time>
      </trkpt>
      <trkpt lat="46.79145" lon="12.28076">
        <ele>2629.34</ele>
        <time>2015-02-26T11:13:01Z</time>
      </trkpt>
      <trkpt lat="46.79146" lon="12.28075">
        <ele>2627.9</ele>
        <time>2015-02-26T11:13:04Z</time>
      </trkpt>
      <trkpt lat="46.79146" lon="12.28074">
        <ele>2628.86</ele>
        <time>2015-02-26T11:13:06Z</time>
      </trkpt>
      <trkpt lat="46.79145" lon="12.28073">
        <ele>2628.86</ele>
        <time>2015-02-26T11:13:28Z</time>
      </trkpt>
      <trkpt lat="46.79144" lon="12.28074">
        <ele>2628.86</ele>
        <time>2015-02-26T11:13:44Z</time>
      </trkpt>
      <trkpt lat="46.79143" lon="12.2807">
        <ele>2629.34</ele>
        <time>2015-02-26T11:14:00Z</time>
      </trkpt>
      <trkpt lat="46.79142" lon="12.28073">
        <ele>2629.82</ele>
        <time>2015-02-26T11:14:15Z</time>
      </trkpt>
      <trkpt lat="46.79141" lon="12.28078">
        <ele>2627.9</ele>
        <time>2015-02-26T11:14:25Z</time>
      </trkpt>
      <trkpt lat="46.79141" lon="12.28079">
        <ele>2627.9</ele>
        <time>2015-02-26T11:14:34Z</time>
      </trkpt>
      <trkpt lat="46.79145" lon="12.28081">
        <ele>2627.9</ele>
        <time>2015-02-26T11:14:48Z</time>
      </trkpt>
      <trkpt lat="46.79148" lon="12.28082">
        <ele>2627.9</ele>
        <time>2015-02-26T11:15:06Z</time>
      </trkpt>
      <trkpt lat="46.79153" lon="12.28082">
        <ele>2627.42</ele>
        <time>2015-02-26T11:15:20Z</time>
      </trkpt>
      <trkpt lat="46.79154" lon="12.28077">
        <ele>2625.5</ele>
        <time>2015-02-26T11:15:32Z</time>
      </trkpt>
      <trkpt lat="46.79153" lon="12.28072">
        <ele>2625.02</ele>
        <time>2015-02-26T11:15:44Z</time>
      </trkpt>
      <trkpt lat="46.79153" lon="12.28073">
        <ele>2625.02</ele>
        <time>2015-02-26T11:15:58Z</time>
      </trkpt>
      <trkpt lat="46.79154" lon="12.28072">
        <ele>2624.54</ele>
        <time>2015-02-26T11:16:17Z</time>
      </trkpt>
      <trkpt lat="46.79154" lon="12.28074">
        <ele>2624.54</ele>
        <time>2015-02-26T11:16:32Z</time>
      </trkpt>
      <trkpt lat="46.79154" lon="12.28075">
        <ele>2623.58</ele>
        <time>2015-02-26T11:17:02Z</time>
      </trkpt>
      <trkpt lat="46.79154" lon="12.28074">
        <ele>2623.58</ele>
        <time>2015-02-26T11:17:27Z</time>
      </trkpt>
      <trkpt lat="46.79154" lon="12.28074">
        <ele>2623.58</ele>
        <time>2015-02-26T11:17:54Z</time>
      </trkpt>
      <trkpt lat="46.79155" lon="12.28075">
        <ele>2623.58</ele>
        <time>2015-02-26T11:18:29Z</time>
      </trkpt>
      <trkpt lat="46.79154" lon="12.28074">
        <ele>2623.58</ele>
        <time>2015-02-26T11:19:03Z</time>
      </trkpt>
      <trkpt lat="46.79154" lon="12.28074">
        <ele>2623.58</ele>
        <time>2015-02-26T11:19:30Z</time>
      </trkpt>
      <trkpt lat="46.79155" lon="12.28073">
        <ele>2623.58</ele>
        <time>2015-02-26T11:19:53Z</time>
      </trkpt>
      <trkpt lat="46.79155" lon="12.28073">
        <ele>2623.58</ele>
        <time>2015-02-26T11:20:22Z</time>
      </trkpt>
      <trkpt lat="46.79155" lon="12.28074">
        <ele>2623.09</ele>
        <time>2015-02-26T11:20:46Z</time>
      </trkpt>
      <trkpt lat="46.79153" lon="12.28073">
        <ele>2623.09</ele>
        <time>2015-02-26T11:21:19Z</time>
      </trkpt>
      <trkpt lat="46.79154" lon="12.28073">
        <ele>2624.54</ele>
        <time>2015-02-26T11:21:46Z</time>
      </trkpt>
      <trkpt lat="46.79153" lon="12.28075">
        <ele>2623.09</ele>
        <time>2015-02-26T11:22:16Z</time>
      </trkpt>
      <trkpt lat="46.79154" lon="12.28074">
        <ele>2623.09</ele>
        <time>2015-02-26T11:22:44Z</time>
      </trkpt>
      <trkpt lat="46.79154" lon="12.28074">
        <ele>2623.09</ele>
        <time>2015-02-26T11:23:11Z</time>
      </trkpt>
      <trkpt lat="46.79154" lon="12.28073">
        <ele>2622.61</ele>
        <time>2015-02-26T11:23:44Z</time>
      </trkpt>
      <trkpt lat="46.79155" lon="12.28074">
        <ele>2622.61</ele>
        <time>2015-02-26T11:24:06Z</time>
      </trkpt>
      <trkpt lat="46.79155" lon="12.28075">
        <ele>2622.61</ele>
        <time>2015-02-26T11:24:36Z</time>
      </trkpt>
      <trkpt lat="46.79155" lon="12.28075">
        <ele>2622.61</ele>
        <time>2015-02-26T11:25:01Z</time>
      </trkpt>
      <trkpt lat="46.79154" lon="12.28075">
        <ele>2623.09</ele>
        <time>2015-02-26T11:25:29Z</time>
      </trkpt>
      <trkpt lat="46.79154" lon="12.28073">
        <ele>2622.61</ele>
        <time>2015-02-26T11:25:58Z</time>
      </trkpt>
      <trkpt lat="46.79154" lon="12.28074">
        <ele>2622.13</ele>
        <time>2015-02-26T11:26:18Z</time>
      </trkpt>
      <trkpt lat="46.79154" lon="12.28072">
        <ele>2622.13</ele>
        <time>2015-02-26T11:26:45Z</time>
      </trkpt>
      <trkpt lat="46.79154" lon="12.28074">
        <ele>2622.61</ele>
        <time>2015-02-26T11:27:14Z</time>
      </trkpt>
      <trkpt lat="46.79155" lon="12.28074">
        <ele>2622.61</ele>
        <time>2015-02-26T11:27:40Z</time>
      </trkpt>
      <trkpt lat="46.79155" lon="12.28074">
        <ele>2622.61</ele>
        <time>2015-02-26T11:28:10Z</time>
      </trkpt>
      <trkpt lat="46.79156" lon="12.28074">
        <ele>2622.61</ele>
        <time>2015-02-26T11:28:42Z</time>
      </trkpt>
      <trkpt lat="46.79156" lon="12.28073">
        <ele>2622.61</ele>
        <time>2015-02-26T11:29:14Z</time>
      </trkpt>
      <trkpt lat="46.79157" lon="12.28072">
        <ele>2622.61</ele>
        <time>2015-02-26T11:29:49Z</time>
      </trkpt>
      <trkpt lat="46.79156" lon="12.28074">
        <ele>2622.13</ele>
        <time>2015-02-26T11:30:18Z</time>
      </trkpt>
      <trkpt lat="46.79156" lon="12.28074">
        <ele>2622.13</ele>
        <time>2015-02-26T11:30:48Z</time>
      </trkpt>
      <trkpt lat="46.79156" lon="12.28074">
        <ele>2622.61</ele>
        <time>2015-02-26T11:31:16Z</time>
      </trkpt>
      <trkpt lat="46.79156" lon="12.28074">
        <ele>2622.61</ele>
        <time>2015-02-26T11:31:39Z</time>
      </trkpt>
      <trkpt lat="46.79157" lon="12.28074">
        <ele>2622.61</ele>
        <time>2015-02-26T11:32:07Z</time>
      </trkpt>
      <trkpt lat="46.79156" lon="12.28074">
        <ele>2622.61</ele>
        <time>2015-02-26T11:32:35Z</time>
      </trkpt>
      <trkpt lat="46.79157" lon="12.28072">
        <ele>2622.61</ele>
        <time>2015-02-26T11:33:01Z</time>
      </trkpt>
      <trkpt lat="46.79156" lon="12.28074">
        <ele>2622.61</ele>
        <time>2015-02-26T11:33:25Z</time>
      </trkpt>
      <trkpt lat="46.79157" lon="12.28073">
        <ele>2622.61</ele>
        <time>2015-02-26T11:33:51Z</time>
      </trkpt>
      <trkpt lat="46.79156" lon="12.28074">
        <ele>2623.58</ele>
        <time>2015-02-26T11:34:12Z</time>
      </trkpt>
      <trkpt lat="46.79156" lon="12.28073">
        <ele>2624.06</ele>
        <time>2015-02-26T11:34:30Z</time>
      </trkpt>
      <trkpt lat="46.79155" lon="12.28072">
        <ele>2623.09</ele>
        <time>2015-02-26T11:34:47Z</time>
      </trkpt>
      <trkpt lat="46.79157" lon="12.28074">
        <ele>2623.09</ele>
        <time>2015-02-26T11:35:01Z</time>
      </trkpt>
      <trkpt lat="46.79155" lon="12.28074">
        <ele>2623.09</ele>
        <time>2015-02-26T11:35:23Z</time>
      </trkpt>
      <trkpt lat="46.79155" lon="12.28073">
        <ele>2623.58</ele>
        <time>2015-02-26T11:35:45Z</time>
      </trkpt>
      <trkpt lat="46.79156" lon="12.28075">
        <ele>2623.58</ele>
        <time>2015-02-26T11:35:48Z</time>
      </trkpt>
      <trkpt lat="46.7916" lon="12.28081">
        <ele>2622.13</ele>
        <time>2015-02-26T11:35:51Z</time>
      </trkpt>
      <trkpt lat="46.7916" lon="12.28083">
        <ele>2620.21</ele>
        <time>2015-02-26T11:36:01Z</time>
      </trkpt>
      <trkpt lat="46.79161" lon="12.28083">
        <ele>2620.21</ele>
        <time>2015-02-26T11:36:28Z</time>
      </trkpt>
      <trkpt lat="46.79162" lon="12.28083">
        <ele>2620.21</ele>
        <time>2015-02-26T11:37:00Z</time>
      </trkpt>
      <trkpt lat="46.79161" lon="12.28084">
        <ele>2620.21</ele>
        <time>2015-02-26T11:37:30Z</time>
      </trkpt>
      <trkpt lat="46.79158" lon="12.28085">
        <ele>2620.21</ele>
        <time>2015-02-26T11:37:50Z</time>
      </trkpt>
      <trkpt lat="46.79159" lon="12.28085">
        <ele>2621.17</ele>
        <time>2015-02-26T11:38:14Z</time>
      </trkpt>
      <trkpt lat="46.7916" lon="12.28086">
        <ele>2620.21</ele>
        <time>2015-02-26T11:38:37Z</time>
      </trkpt>
      <trkpt lat="46.79161" lon="12.28085">
        <ele>2620.21</ele>
        <time>2015-02-26T11:39:11Z</time>
      </trkpt>
      <trkpt lat="46.79161" lon="12.28085">
        <ele>2620.21</ele>
        <time>2015-02-26T11:39:42Z</time>
      </trkpt>
      <trkpt lat="46.79159" lon="12.28085">
        <ele>2620.69</ele>
        <time>2015-02-26T11:40:13Z</time>
      </trkpt>
      <trkpt lat="46.79161" lon="12.28085">
        <ele>2619.73</ele>
        <time>2015-02-26T11:40:43Z</time>
      </trkpt>
      <trkpt lat="46.79161" lon="12.28084">
        <ele>2620.21</ele>
        <time>2015-02-26T11:41:12Z</time>
      </trkpt>
      <trkpt lat="46.79161" lon="12.28084">
        <ele>2620.69</ele>
        <time>2015-02-26T11:41:34Z</time>
      </trkpt>
      <trkpt lat="46.7916" lon="12.28085">
        <ele>2620.21</ele>
        <time>2015-02-26T11:41:58Z</time>
      </trkpt>
      <trkpt lat="46.79161" lon="12.28083">
        <ele>2620.21</ele>
        <time>2015-02-26T11:42:21Z</time>
      </trkpt>
      <trkpt lat="46.79161" lon="12.28085">
        <ele>2619.73</ele>
        <time>2015-02-26T11:42:43Z</time>
      </trkpt>
      <trkpt lat="46.79161" lon="12.28085">
        <ele>2618.77</ele>
        <time>2015-02-26T11:42:47Z</time>
      </trkpt>
      <trkpt lat="46.79161" lon="12.28085">
        <ele>2620.21</ele>
        <time>2015-02-26T11:42:49Z</time>
      </trkpt>
      <trkpt lat="46.7916" lon="12.28086">
        <ele>2619.73</ele>
        <time>2015-02-26T11:43:09Z</time>
      </trkpt>
      <trkpt lat="46.79161" lon="12.28085">
        <ele>2619.25</ele>
        <time>2015-02-26T11:43:32Z</time>
      </trkpt>
      <trkpt lat="46.79161" lon="12.28085">
        <ele>2619.73</ele>
        <time>2015-02-26T11:43:57Z</time>
      </trkpt>
      <trkpt lat="46.79161" lon="12.28085">
        <ele>2618.77</ele>
        <time>2015-02-26T11:44:22Z</time>
      </trkpt>
      <trkpt lat="46.79161" lon="12.28085">
        <ele>2618.77</ele>
        <time>2015-02-26T11:44:55Z</time>
      </trkpt>
      <trkpt lat="46.79161" lon="12.28083">
        <ele>2619.25</ele>
        <time>2015-02-26T11:45:18Z</time>
      </trkpt>
      <trkpt lat="46.7916" lon="12.28084">
        <ele>2618.77</ele>
        <time>2015-02-26T11:45:43Z</time>
      </trkpt>
      <trkpt lat="46.79161" lon="12.28085">
        <ele>2618.77</ele>
        <time>2015-02-26T11:46:01Z</time>
      </trkpt>
      <trkpt lat="46.79161" lon="12.2809">
        <ele>2617.81</ele>
        <time>2015-02-26T11:46:20Z</time>
      </trkpt>
      <trkpt lat="46.79161" lon="12.28089">
        <ele>2617.81</ele>
        <time>2015-02-26T11:46:24Z</time>
      </trkpt>
      <trkpt lat="46.79165" lon="12.281">
        <ele>2613.96</ele>
        <time>2015-02-26T11:46:29Z</time>
      </trkpt>
      <trkpt lat="46.7917" lon="12.28096">
        <ele>2613</ele>
        <time>2015-02-26T11:46:31Z</time>
      </trkpt>
      <trkpt lat="46.79171" lon="12.28107">
        <ele>2610.12</ele>
        <time>2015-02-26T11:46:34Z</time>
      </trkpt>
      <trkpt lat="46.79178" lon="12.28116">
        <ele>2606.27</ele>
        <time>2015-02-26T11:46:37Z</time>
      </trkpt>
      <trkpt lat="46.79188" lon="12.28116">
        <ele>2604.83</ele>
        <time>2015-02-26T11:46:40Z</time>
      </trkpt>
      <trkpt lat="46.79197" lon="12.28122">
        <ele>2602.91</ele>
        <time>2015-02-26T11:46:44Z</time>
      </trkpt>
      <trkpt lat="46.79194" lon="12.28134">
        <ele>2599.54</ele>
        <time>2015-02-26T11:46:47Z</time>
      </trkpt>
      <trkpt lat="46.792" lon="12.28158">
        <ele>2594.74</ele>
        <time>2015-02-26T11:46:52Z</time>
      </trkpt>
      <trkpt lat="46.79197" lon="12.28172">
        <ele>2590.89</ele>
        <time>2015-02-26T11:46:54Z</time>
      </trkpt>
      <trkpt lat="46.79185" lon="12.28186">
        <ele>2588.01</ele>
        <time>2015-02-26T11:46:57Z</time>
      </trkpt>
      <trkpt lat="46.79182" lon="12.28187">
        <ele>2588.01</ele>
        <time>2015-02-26T11:46:58Z</time>
      </trkpt>
      <trkpt lat="46.7918" lon="12.28188">
        <ele>2587.53</ele>
        <time>2015-02-26T11:47:01Z</time>
      </trkpt>
      <trkpt lat="46.79183" lon="12.28196">
        <ele>2586.08</ele>
        <time>2015-02-26T11:47:09Z</time>
      </trkpt>
      <trkpt lat="46.79184" lon="12.28197">
        <ele>2586.08</ele>
        <time>2015-02-26T11:47:26Z</time>
      </trkpt>
      <trkpt lat="46.79185" lon="12.28197">
        <ele>2585.6</ele>
        <time>2015-02-26T11:47:40Z</time>
      </trkpt>
      <trkpt lat="46.79172" lon="12.28203">
        <ele>2581.76</ele>
        <time>2015-02-26T11:47:47Z</time>
      </trkpt>
      <trkpt lat="46.79165" lon="12.28199">
        <ele>2580.32</ele>
        <time>2015-02-26T11:47:49Z</time>
      </trkpt>
      <trkpt lat="46.79155" lon="12.28193">
        <ele>2578.87</ele>
        <time>2015-02-26T11:48:01Z</time>
      </trkpt>
      <trkpt lat="46.79154" lon="12.28193">
        <ele>2578.39</ele>
        <time>2015-02-26T11:48:22Z</time>
      </trkpt>
      <trkpt lat="46.79147" lon="12.28195">
        <ele>2575.03</ele>
        <time>2015-02-26T11:48:26Z</time>
      </trkpt>
      <trkpt lat="46.79148" lon="12.28202">
        <ele>2572.63</ele>
        <time>2015-02-26T11:48:28Z</time>
      </trkpt>
      <trkpt lat="46.79141" lon="12.282">
        <ele>2568.78</ele>
        <time>2015-02-26T11:48:31Z</time>
      </trkpt>
      <trkpt lat="46.79138" lon="12.28209">
        <ele>2564.93</ele>
        <time>2015-02-26T11:48:33Z</time>
      </trkpt>
      <trkpt lat="46.7914" lon="12.28217">
        <ele>2562.05</ele>
        <time>2015-02-26T11:48:35Z</time>
      </trkpt>
      <trkpt lat="46.7913" lon="12.28213">
        <ele>2558.69</ele>
        <time>2015-02-26T11:48:39Z</time>
      </trkpt>
      <trkpt lat="46.79128" lon="12.28222">
        <ele>2555.32</ele>
        <time>2015-02-26T11:48:42Z</time>
      </trkpt>
      <trkpt lat="46.79123" lon="12.28229">
        <ele>2550.51</ele>
        <time>2015-02-26T11:48:48Z</time>
      </trkpt>
      <trkpt lat="46.79123" lon="12.28231">
        <ele>2550.51</ele>
        <time>2015-02-26T11:49:07Z</time>
      </trkpt>
      <trkpt lat="46.79114" lon="12.28225">
        <ele>2548.59</ele>
        <time>2015-02-26T11:49:30Z</time>
      </trkpt>
      <trkpt lat="46.79106" lon="12.28217">
        <ele>2546.67</ele>
        <time>2015-02-26T11:49:34Z</time>
      </trkpt>
      <trkpt lat="46.79105" lon="12.28225">
        <ele>2542.82</ele>
        <time>2015-02-26T11:49:37Z</time>
      </trkpt>
      <trkpt lat="46.79103" lon="12.28228">
        <ele>2541.86</ele>
        <time>2015-02-26T11:49:39Z</time>
      </trkpt>
      <trkpt lat="46.79094" lon="12.28224">
        <ele>2538.5</ele>
        <time>2015-02-26T11:49:42Z</time>
      </trkpt>
      <trkpt lat="46.7909" lon="12.28234">
        <ele>2533.21</ele>
        <time>2015-02-26T11:49:46Z</time>
      </trkpt>
      <trkpt lat="46.79082" lon="12.2823">
        <ele>2529.85</ele>
        <time>2015-02-26T11:49:49Z</time>
      </trkpt>
      <trkpt lat="46.79075" lon="12.28225">
        <ele>2528.89</ele>
        <time>2015-02-26T11:49:51Z</time>
      </trkpt>
      <trkpt lat="46.79068" lon="12.28217">
        <ele>2527.44</ele>
        <time>2015-02-26T11:49:54Z</time>
      </trkpt>
      <trkpt lat="46.79059" lon="12.28222">
        <ele>2522.64</ele>
        <time>2015-02-26T11:49:57Z</time>
      </trkpt>
      <trkpt lat="46.79048" lon="12.28226">
        <ele>2519.27</ele>
        <time>2015-02-26T11:50:00Z</time>
      </trkpt>
      <trkpt lat="46.79041" lon="12.28232">
        <ele>2514.47</ele>
        <time>2015-02-26T11:50:02Z</time>
      </trkpt>
      <trkpt lat="46.79032" lon="12.2823">
        <ele>2511.1</ele>
        <time>2015-02-26T11:50:04Z</time>
      </trkpt>
      <trkpt lat="46.79028" lon="12.28228">
        <ele>2510.62</ele>
        <time>2015-02-26T11:50:05Z</time>
      </trkpt>
      <trkpt lat="46.79021" lon="12.28226">
        <ele>2510.62</ele>
        <time>2015-02-26T11:50:07Z</time>
      </trkpt>
      <trkpt lat="46.79019" lon="12.2823">
        <ele>2508.22</ele>
        <time>2015-02-26T11:50:11Z</time>
      </trkpt>
      <trkpt lat="46.79019" lon="12.28229">
        <ele>2508.7</ele>
        <time>2015-02-26T11:50:34Z</time>
      </trkpt>
      <trkpt lat="46.79019" lon="12.28231">
        <ele>2509.18</ele>
        <time>2015-02-26T11:50:45Z</time>
      </trkpt>
      <trkpt lat="46.79006" lon="12.28234">
        <ele>2505.33</ele>
        <time>2015-02-26T11:50:50Z</time>
      </trkpt>
      <trkpt lat="46.79003" lon="12.28237">
        <ele>2504.85</ele>
        <time>2015-02-26T11:50:51Z</time>
      </trkpt>
      <trkpt lat="46.78984" lon="12.28264">
        <ele>2500.05</ele>
        <time>2015-02-26T11:50:57Z</time>
      </trkpt>
      <trkpt lat="46.78984" lon="12.28268">
        <ele>2499.57</ele>
        <time>2015-02-26T11:51:10Z</time>
      </trkpt>
      <trkpt lat="46.78983" lon="12.28275">
        <ele>2499.08</ele>
        <time>2015-02-26T11:51:19Z</time>
      </trkpt>
      <trkpt lat="46.78982" lon="12.28299">
        <ele>2496.2</ele>
        <time>2015-02-26T11:51:23Z</time>
      </trkpt>
      <trkpt lat="46.78975" lon="12.28299">
        <ele>2493.32</ele>
        <time>2015-02-26T11:51:31Z</time>
      </trkpt>
      <trkpt lat="46.78976" lon="12.28299">
        <ele>2493.32</ele>
        <time>2015-02-26T11:51:54Z</time>
      </trkpt>
      <trkpt lat="46.78976" lon="12.28298">
        <ele>2493.32</ele>
        <time>2015-02-26T11:52:04Z</time>
      </trkpt>
      <trkpt lat="46.78968" lon="12.28303">
        <ele>2489.95</ele>
        <time>2015-02-26T11:52:09Z</time>
      </trkpt>
      <trkpt lat="46.78971" lon="12.2832">
        <ele>2486.59</ele>
        <time>2015-02-26T11:52:12Z</time>
      </trkpt>
      <trkpt lat="46.78965" lon="12.28325">
        <ele>2481.3</ele>
        <time>2015-02-26T11:52:16Z</time>
      </trkpt>
      <trkpt lat="46.7896" lon="12.28321">
        <ele>2479.86</ele>
        <time>2015-02-26T11:52:18Z</time>
      </trkpt>
      <trkpt lat="46.78955" lon="12.28332">
        <ele>2476.49</ele>
        <time>2015-02-26T11:52:21Z</time>
      </trkpt>
      <trkpt lat="46.78941" lon="12.28344">
        <ele>2472.65</ele>
        <time>2015-02-26T11:52:25Z</time>
      </trkpt>
      <trkpt lat="46.78937" lon="12.28353">
        <ele>2470.73</ele>
        <time>2015-02-26T11:52:29Z</time>
      </trkpt>
      <trkpt lat="46.78937" lon="12.28361">
        <ele>2470.24</ele>
        <time>2015-02-26T11:52:37Z</time>
      </trkpt>
      <trkpt lat="46.78929" lon="12.28367">
        <ele>2464.48</ele>
        <time>2015-02-26T11:52:40Z</time>
      </trkpt>
      <trkpt lat="46.78926" lon="12.28385">
        <ele>2460.63</ele>
        <time>2015-02-26T11:52:43Z</time>
      </trkpt>
      <trkpt lat="46.7892" lon="12.28396">
        <ele>2455.34</ele>
        <time>2015-02-26T11:52:45Z</time>
      </trkpt>
      <trkpt lat="46.78915" lon="12.28409">
        <ele>2451.98</ele>
        <time>2015-02-26T11:52:47Z</time>
      </trkpt>
      <trkpt lat="46.7891" lon="12.28432">
        <ele>2447.17</ele>
        <time>2015-02-26T11:52:50Z</time>
      </trkpt>
      <trkpt lat="46.78906" lon="12.28454">
        <ele>2443.33</ele>
        <time>2015-02-26T11:52:53Z</time>
      </trkpt>
      <trkpt lat="46.78903" lon="12.28485">
        <ele>2437.56</ele>
        <time>2015-02-26T11:52:59Z</time>
      </trkpt>
      <trkpt lat="46.78903" lon="12.28482">
        <ele>2438.04</ele>
        <time>2015-02-26T11:53:12Z</time>
      </trkpt>
      <trkpt lat="46.78903" lon="12.28481">
        <ele>2437.56</ele>
        <time>2015-02-26T11:53:37Z</time>
      </trkpt>
      <trkpt lat="46.78904" lon="12.28481">
        <ele>2437.56</ele>
        <time>2015-02-26T11:54:05Z</time>
      </trkpt>
      <trkpt lat="46.78904" lon="12.28482">
        <ele>2437.56</ele>
        <time>2015-02-26T11:54:28Z</time>
      </trkpt>
      <trkpt lat="46.78905" lon="12.28485">
        <ele>2437.56</ele>
        <time>2015-02-26T11:54:40Z</time>
      </trkpt>
      <trkpt lat="46.78897" lon="12.28497">
        <ele>2432.75</ele>
        <time>2015-02-26T11:54:46Z</time>
      </trkpt>
      <trkpt lat="46.78894" lon="12.28502">
        <ele>2429.87</ele>
        <time>2015-02-26T11:54:48Z</time>
      </trkpt>
      <trkpt lat="46.78887" lon="12.28511">
        <ele>2424.1</ele>
        <time>2015-02-26T11:54:53Z</time>
      </trkpt>
      <trkpt lat="46.78886" lon="12.28523">
        <ele>2418.81</ele>
        <time>2015-02-26T11:54:57Z</time>
      </trkpt>
      <trkpt lat="46.7889" lon="12.2853">
        <ele>2417.37</ele>
        <time>2015-02-26T11:54:59Z</time>
      </trkpt>
      <trkpt lat="46.78891" lon="12.28535">
        <ele>2414.49</ele>
        <time>2015-02-26T11:55:03Z</time>
      </trkpt>
      <trkpt lat="46.78895" lon="12.28533">
        <ele>2415.45</ele>
        <time>2015-02-26T11:55:19Z</time>
      </trkpt>
      <trkpt lat="46.78894" lon="12.28532">
        <ele>2415.45</ele>
        <time>2015-02-26T11:55:37Z</time>
      </trkpt>
      <trkpt lat="46.78893" lon="12.28531">
        <ele>2416.89</ele>
        <time>2015-02-26T11:56:04Z</time>
      </trkpt>
      <trkpt lat="46.78894" lon="12.28549">
        <ele>2411.6</ele>
        <time>2015-02-26T11:56:08Z</time>
      </trkpt>
      <trkpt lat="46.78888" lon="12.2855">
        <ele>2407.76</ele>
        <time>2015-02-26T11:56:11Z</time>
      </trkpt>
      <trkpt lat="46.78887" lon="12.28565">
        <ele>2402.95</ele>
        <time>2015-02-26T11:56:14Z</time>
      </trkpt>
      <trkpt lat="46.78888" lon="12.28571">
        <ele>2401.51</ele>
        <time>2015-02-26T11:56:15Z</time>
      </trkpt>
      <trkpt lat="46.78889" lon="12.28577">
        <ele>2399.59</ele>
        <time>2015-02-26T11:56:16Z</time>
      </trkpt>
      <trkpt lat="46.78881" lon="12.28591">
        <ele>2395.74</ele>
        <time>2015-02-26T11:56:19Z</time>
      </trkpt>
      <trkpt lat="46.7888" lon="12.28598">
        <ele>2394.3</ele>
        <time>2015-02-26T11:56:20Z</time>
      </trkpt>
      <trkpt lat="46.78879" lon="12.28607">
        <ele>2392.86</ele>
        <time>2015-02-26T11:56:21Z</time>
      </trkpt>
      <trkpt lat="46.78875" lon="12.28647">
        <ele>2389.49</ele>
        <time>2015-02-26T11:56:27Z</time>
      </trkpt>
      <trkpt lat="46.78875" lon="12.28651">
        <ele>2389.97</ele>
        <time>2015-02-26T11:56:37Z</time>
      </trkpt>
      <trkpt lat="46.78877" lon="12.28657">
        <ele>2389.49</ele>
        <time>2015-02-26T11:56:52Z</time>
      </trkpt>
      <trkpt lat="46.78879" lon="12.28661">
        <ele>2389.01</ele>
        <time>2015-02-26T11:56:54Z</time>
      </trkpt>
      <trkpt lat="46.78887" lon="12.28655">
        <ele>2386.61</ele>
        <time>2015-02-26T11:56:57Z</time>
      </trkpt>
      <trkpt lat="46.78894" lon="12.28657">
        <ele>2384.21</ele>
        <time>2015-02-26T11:56:59Z</time>
      </trkpt>
      <trkpt lat="46.78895" lon="12.28664">
        <ele>2382.28</ele>
        <time>2015-02-26T11:57:00Z</time>
      </trkpt>
      <trkpt lat="46.78896" lon="12.28669">
        <ele>2380.36</ele>
        <time>2015-02-26T11:57:01Z</time>
      </trkpt>
      <trkpt lat="46.78898" lon="12.28674">
        <ele>2378.44</ele>
        <time>2015-02-26T11:57:02Z</time>
      </trkpt>
      <trkpt lat="46.78902" lon="12.28677">
        <ele>2376.52</ele>
        <time>2015-02-26T11:57:03Z</time>
      </trkpt>
      <trkpt lat="46.78904" lon="12.28683">
        <ele>2374.59</ele>
        <time>2015-02-26T11:57:04Z</time>
      </trkpt>
      <trkpt lat="46.78905" lon="12.28689">
        <ele>2372.67</ele>
        <time>2015-02-26T11:57:05Z</time>
      </trkpt>
      <trkpt lat="46.78904" lon="12.28694">
        <ele>2371.71</ele>
        <time>2015-02-26T11:57:06Z</time>
      </trkpt>
      <trkpt lat="46.78904" lon="12.28699">
        <ele>2370.27</ele>
        <time>2015-02-26T11:57:07Z</time>
      </trkpt>
      <trkpt lat="46.78903" lon="12.2871">
        <ele>2367.38</ele>
        <time>2015-02-26T11:57:09Z</time>
      </trkpt>
      <trkpt lat="46.78905" lon="12.28714">
        <ele>2365.94</ele>
        <time>2015-02-26T11:57:10Z</time>
      </trkpt>
      <trkpt lat="46.78908" lon="12.28717">
        <ele>2364.98</ele>
        <time>2015-02-26T11:57:11Z</time>
      </trkpt>
      <trkpt lat="46.7891" lon="12.28721">
        <ele>2364.5</ele>
        <time>2015-02-26T11:57:12Z</time>
      </trkpt>
      <trkpt lat="46.78911" lon="12.28723">
        <ele>2363.06</ele>
        <time>2015-02-26T11:57:13Z</time>
      </trkpt>
      <trkpt lat="46.78909" lon="12.28726">
        <ele>2362.1</ele>
        <time>2015-02-26T11:57:14Z</time>
      </trkpt>
      <trkpt lat="46.78909" lon="12.28731">
        <ele>2360.65</ele>
        <time>2015-02-26T11:57:15Z</time>
      </trkpt>
      <trkpt lat="46.78911" lon="12.28736">
        <ele>2359.21</ele>
        <time>2015-02-26T11:57:16Z</time>
      </trkpt>
      <trkpt lat="46.78914" lon="12.2874">
        <ele>2358.25</ele>
        <time>2015-02-26T11:57:17Z</time>
      </trkpt>
      <trkpt lat="46.78917" lon="12.28744">
        <ele>2357.29</ele>
        <time>2015-02-26T11:57:18Z</time>
      </trkpt>
      <trkpt lat="46.7892" lon="12.28748">
        <ele>2356.81</ele>
        <time>2015-02-26T11:57:19Z</time>
      </trkpt>
      <trkpt lat="46.78921" lon="12.28752">
        <ele>2356.33</ele>
        <time>2015-02-26T11:57:20Z</time>
      </trkpt>
      <trkpt lat="46.78928" lon="12.28771">
        <ele>2354.41</ele>
        <time>2015-02-26T11:57:26Z</time>
      </trkpt>
      <trkpt lat="46.78927" lon="12.28774">
        <ele>2353.44</ele>
        <time>2015-02-26T11:57:27Z</time>
      </trkpt>
      <trkpt lat="46.78923" lon="12.28772">
        <ele>2352.96</ele>
        <time>2015-02-26T11:57:38Z</time>
      </trkpt>
      <trkpt lat="46.78923" lon="12.28774">
        <ele>2352.96</ele>
        <time>2015-02-26T11:58:07Z</time>
      </trkpt>
      <trkpt lat="46.78925" lon="12.28788">
        <ele>2350.56</ele>
        <time>2015-02-26T11:58:11Z</time>
      </trkpt>
      <trkpt lat="46.7893" lon="12.28803">
        <ele>2347.68</ele>
        <time>2015-02-26T11:58:14Z</time>
      </trkpt>
      <trkpt lat="46.7893" lon="12.28809">
        <ele>2346.72</ele>
        <time>2015-02-26T11:58:15Z</time>
      </trkpt>
      <trkpt lat="46.78939" lon="12.28821">
        <ele>2343.83</ele>
        <time>2015-02-26T11:58:18Z</time>
      </trkpt>
      <trkpt lat="46.7894" lon="12.28828">
        <ele>2342.39</ele>
        <time>2015-02-26T11:58:19Z</time>
      </trkpt>
      <trkpt lat="46.78941" lon="12.28833">
        <ele>2340.95</ele>
        <time>2015-02-26T11:58:20Z</time>
      </trkpt>
      <trkpt lat="46.78943" lon="12.28838">
        <ele>2339.51</ele>
        <time>2015-02-26T11:58:21Z</time>
      </trkpt>
      <trkpt lat="46.78945" lon="12.28844">
        <ele>2338.06</ele>
        <time>2015-02-26T11:58:22Z</time>
      </trkpt>
      <trkpt lat="46.78947" lon="12.28849">
        <ele>2337.1</ele>
        <time>2015-02-26T11:58:23Z</time>
      </trkpt>
      <trkpt lat="46.78951" lon="12.28852">
        <ele>2336.14</ele>
        <time>2015-02-26T11:58:24Z</time>
      </trkpt>
      <trkpt lat="46.78954" lon="12.28857">
        <ele>2335.18</ele>
        <time>2015-02-26T11:58:25Z</time>
      </trkpt>
      <trkpt lat="46.78956" lon="12.28863">
        <ele>2333.26</ele>
        <time>2015-02-26T11:58:26Z</time>
      </trkpt>
      <trkpt lat="46.78957" lon="12.28869">
        <ele>2331.81</ele>
        <time>2015-02-26T11:58:27Z</time>
      </trkpt>
      <trkpt lat="46.78962" lon="12.2888">
        <ele>2329.89</ele>
        <time>2015-02-26T11:58:29Z</time>
      </trkpt>
      <trkpt lat="46.78963" lon="12.28887">
        <ele>2327.49</ele>
        <time>2015-02-26T11:58:30Z</time>
      </trkpt>
      <trkpt lat="46.78964" lon="12.28893">
        <ele>2326.05</ele>
        <time>2015-02-26T11:58:31Z</time>
      </trkpt>
      <trkpt lat="46.78967" lon="12.28898">
        <ele>2325.57</ele>
        <time>2015-02-26T11:58:32Z</time>
      </trkpt>
      <trkpt lat="46.78968" lon="12.28903">
        <ele>2324.61</ele>
        <time>2015-02-26T11:58:33Z</time>
      </trkpt>
      <trkpt lat="46.78968" lon="12.28908">
        <ele>2323.16</ele>
        <time>2015-02-26T11:58:34Z</time>
      </trkpt>
      <trkpt lat="46.78968" lon="12.28913">
        <ele>2322.2</ele>
        <time>2015-02-26T11:58:35Z</time>
      </trkpt>
      <trkpt lat="46.7897" lon="12.28918">
        <ele>2321.24</ele>
        <time>2015-02-26T11:58:36Z</time>
      </trkpt>
      <trkpt lat="46.78972" lon="12.28923">
        <ele>2320.76</ele>
        <time>2015-02-26T11:58:37Z</time>
      </trkpt>
      <trkpt lat="46.78972" lon="12.28927">
        <ele>2319.32</ele>
        <time>2015-02-26T11:58:38Z</time>
      </trkpt>
      <trkpt lat="46.7897" lon="12.28928">
        <ele>2319.32</ele>
        <time>2015-02-26T11:58:39Z</time>
      </trkpt>
      <trkpt lat="46.78963" lon="12.28929">
        <ele>2318.36</ele>
        <time>2015-02-26T11:58:43Z</time>
      </trkpt>
      <trkpt lat="46.78962" lon="12.28934">
        <ele>2317.4</ele>
        <time>2015-02-26T11:58:45Z</time>
      </trkpt>
      <trkpt lat="46.78962" lon="12.28936">
        <ele>2316.91</ele>
        <time>2015-02-26T11:58:46Z</time>
      </trkpt>
      <trkpt lat="46.78963" lon="12.28937">
        <ele>2316.91</ele>
        <time>2015-02-26T11:58:47Z</time>
      </trkpt>
      <trkpt lat="46.78963" lon="12.28938">
        <ele>2316.91</ele>
        <time>2015-02-26T11:59:06Z</time>
      </trkpt>
      <trkpt lat="46.7896" lon="12.28939">
        <ele>2316.91</ele>
        <time>2015-02-26T11:59:28Z</time>
      </trkpt>
      <trkpt lat="46.7896" lon="12.2894">
        <ele>2316.91</ele>
        <time>2015-02-26T11:59:56Z</time>
      </trkpt>
      <trkpt lat="46.78962" lon="12.2894">
        <ele>2316.91</ele>
        <time>2015-02-26T12:00:29Z</time>
      </trkpt>
      <trkpt lat="46.78968" lon="12.28955">
        <ele>2314.99</ele>
        <time>2015-02-26T12:00:52Z</time>
      </trkpt>
      <trkpt lat="46.78968" lon="12.28962">
        <ele>2313.55</ele>
        <time>2015-02-26T12:00:53Z</time>
      </trkpt>
      <trkpt lat="46.78963" lon="12.28982">
        <ele>2310.67</ele>
        <time>2015-02-26T12:00:57Z</time>
      </trkpt>
      <trkpt lat="46.78964" lon="12.28998">
        <ele>2307.3</ele>
        <time>2015-02-26T12:01:00Z</time>
      </trkpt>
      <trkpt lat="46.78972" lon="12.29017">
        <ele>2302.98</ele>
        <time>2015-02-26T12:01:04Z</time>
      </trkpt>
      <trkpt lat="46.78983" lon="12.29028">
        <ele>2299.13</ele>
        <time>2015-02-26T12:01:08Z</time>
      </trkpt>
      <trkpt lat="46.78984" lon="12.29031">
        <ele>2298.17</ele>
        <time>2015-02-26T12:01:09Z</time>
      </trkpt>
      <trkpt lat="46.78984" lon="12.29036">
        <ele>2296.73</ele>
        <time>2015-02-26T12:01:10Z</time>
      </trkpt>
      <trkpt lat="46.78984" lon="12.29039">
        <ele>2295.77</ele>
        <time>2015-02-26T12:01:11Z</time>
      </trkpt>
      <trkpt lat="46.78986" lon="12.29042">
        <ele>2294.8</ele>
        <time>2015-02-26T12:01:12Z</time>
      </trkpt>
      <trkpt lat="46.78989" lon="12.29045">
        <ele>2293.36</ele>
        <time>2015-02-26T12:01:13Z</time>
      </trkpt>
      <trkpt lat="46.78991" lon="12.29049">
        <ele>2291.92</ele>
        <time>2015-02-26T12:01:14Z</time>
      </trkpt>
      <trkpt lat="46.78991" lon="12.29053">
        <ele>2290.48</ele>
        <time>2015-02-26T12:01:15Z</time>
      </trkpt>
      <trkpt lat="46.78992" lon="12.29058">
        <ele>2289.52</ele>
        <time>2015-02-26T12:01:16Z</time>
      </trkpt>
      <trkpt lat="46.78995" lon="12.29061">
        <ele>2288.56</ele>
        <time>2015-02-26T12:01:17Z</time>
      </trkpt>
      <trkpt lat="46.78997" lon="12.29065">
        <ele>2288.08</ele>
        <time>2015-02-26T12:01:18Z</time>
      </trkpt>
      <trkpt lat="46.78999" lon="12.29068">
        <ele>2286.63</ele>
        <time>2015-02-26T12:01:19Z</time>
      </trkpt>
      <trkpt lat="46.78998" lon="12.29073">
        <ele>2285.19</ele>
        <time>2015-02-26T12:01:20Z</time>
      </trkpt>
      <trkpt lat="46.78999" lon="12.29079">
        <ele>2283.75</ele>
        <time>2015-02-26T12:01:21Z</time>
      </trkpt>
      <trkpt lat="46.79001" lon="12.29083">
        <ele>2282.79</ele>
        <time>2015-02-26T12:01:22Z</time>
      </trkpt>
      <trkpt lat="46.79004" lon="12.29086">
        <ele>2281.83</ele>
        <time>2015-02-26T12:01:23Z</time>
      </trkpt>
      <trkpt lat="46.79006" lon="12.2909">
        <ele>2281.35</ele>
        <time>2015-02-26T12:01:24Z</time>
      </trkpt>
      <trkpt lat="46.79006" lon="12.29093">
        <ele>2279.9</ele>
        <time>2015-02-26T12:01:25Z</time>
      </trkpt>
      <trkpt lat="46.79004" lon="12.29107">
        <ele>2276.54</ele>
        <time>2015-02-26T12:01:28Z</time>
      </trkpt>
      <trkpt lat="46.79007" lon="12.29121">
        <ele>2272.69</ele>
        <time>2015-02-26T12:01:32Z</time>
      </trkpt>
      <trkpt lat="46.79005" lon="12.29133">
        <ele>2269.33</ele>
        <time>2015-02-26T12:01:35Z</time>
      </trkpt>
      <trkpt lat="46.79008" lon="12.29136">
        <ele>2267.89</ele>
        <time>2015-02-26T12:01:36Z</time>
      </trkpt>
      <trkpt lat="46.79014" lon="12.29142">
        <ele>2267.41</ele>
        <time>2015-02-26T12:01:38Z</time>
      </trkpt>
      <trkpt lat="46.79011" lon="12.2915">
        <ele>2262.6</ele>
        <time>2015-02-26T12:01:41Z</time>
      </trkpt>
      <trkpt lat="46.79003" lon="12.2916">
        <ele>2259.24</ele>
        <time>2015-02-26T12:01:44Z</time>
      </trkpt>
      <trkpt lat="46.79014" lon="12.29172">
        <ele>2256.35</ele>
        <time>2015-02-26T12:01:48Z</time>
      </trkpt>
      <trkpt lat="46.79019" lon="12.29168">
        <ele>2256.35</ele>
        <time>2015-02-26T12:02:00Z</time>
      </trkpt>
      <trkpt lat="46.79019" lon="12.29168">
        <ele>2256.35</ele>
        <time>2015-02-26T12:02:20Z</time>
      </trkpt>
      <trkpt lat="46.79019" lon="12.2917">
        <ele>2256.35</ele>
        <time>2015-02-26T12:02:40Z</time>
      </trkpt>
      <trkpt lat="46.79019" lon="12.29167">
        <ele>2255.87</ele>
        <time>2015-02-26T12:03:07Z</time>
      </trkpt>
      <trkpt lat="46.79019" lon="12.29169">
        <ele>2255.87</ele>
        <time>2015-02-26T12:03:09Z</time>
      </trkpt>
      <trkpt lat="46.79028" lon="12.29184">
        <ele>2252.51</ele>
        <time>2015-02-26T12:03:13Z</time>
      </trkpt>
      <trkpt lat="46.79033" lon="12.29192">
        <ele>2251.06</ele>
        <time>2015-02-26T12:03:15Z</time>
      </trkpt>
      <trkpt lat="46.79041" lon="12.29228">
        <ele>2243.37</ele>
        <time>2015-02-26T12:03:21Z</time>
      </trkpt>
      <trkpt lat="46.79042" lon="12.29233">
        <ele>2242.89</ele>
        <time>2015-02-26T12:03:22Z</time>
      </trkpt>
      <trkpt lat="46.79046" lon="12.29245">
        <ele>2241.45</ele>
        <time>2015-02-26T12:03:24Z</time>
      </trkpt>
      <trkpt lat="46.79045" lon="12.29252">
        <ele>2239.53</ele>
        <time>2015-02-26T12:03:25Z</time>
      </trkpt>
      <trkpt lat="46.79043" lon="12.2926">
        <ele>2237.61</ele>
        <time>2015-02-26T12:03:26Z</time>
      </trkpt>
      <trkpt lat="46.79044" lon="12.29267">
        <ele>2236.64</ele>
        <time>2015-02-26T12:03:27Z</time>
      </trkpt>
      <trkpt lat="46.79047" lon="12.29274">
        <ele>2235.68</ele>
        <time>2015-02-26T12:03:28Z</time>
      </trkpt>
      <trkpt lat="46.79048" lon="12.29281">
        <ele>2234.24</ele>
        <time>2015-02-26T12:03:29Z</time>
      </trkpt>
      <trkpt lat="46.79047" lon="12.29296">
        <ele>2230.4</ele>
        <time>2015-02-26T12:03:31Z</time>
      </trkpt>
      <trkpt lat="46.79049" lon="12.29303">
        <ele>2229.92</ele>
        <time>2015-02-26T12:03:32Z</time>
      </trkpt>
      <trkpt lat="46.79053" lon="12.2932">
        <ele>2227.03</ele>
        <time>2015-02-26T12:03:35Z</time>
      </trkpt>
      <trkpt lat="46.79054" lon="12.29324">
        <ele>2226.55</ele>
        <time>2015-02-26T12:03:36Z</time>
      </trkpt>
      <trkpt lat="46.79057" lon="12.29331">
        <ele>2224.63</ele>
        <time>2015-02-26T12:03:40Z</time>
      </trkpt>
      <trkpt lat="46.79058" lon="12.29329">
        <ele>2224.63</ele>
        <time>2015-02-26T12:04:01Z</time>
      </trkpt>
      <trkpt lat="46.79058" lon="12.29329">
        <ele>2224.63</ele>
        <time>2015-02-26T12:04:19Z</time>
      </trkpt>
      <trkpt lat="46.79058" lon="12.29329">
        <ele>2225.11</ele>
        <time>2015-02-26T12:04:49Z</time>
      </trkpt>
      <trkpt lat="46.79056" lon="12.29333">
        <ele>2224.63</ele>
        <time>2015-02-26T12:05:13Z</time>
      </trkpt>
      <trkpt lat="46.79057" lon="12.29335">
        <ele>2224.15</ele>
        <time>2015-02-26T12:05:27Z</time>
      </trkpt>
      <trkpt lat="46.79056" lon="12.29337">
        <ele>2223.67</ele>
        <time>2015-02-26T12:05:48Z</time>
      </trkpt>
      <trkpt lat="46.7905" lon="12.29347">
        <ele>2220.78</ele>
        <time>2015-02-26T12:05:52Z</time>
      </trkpt>
      <trkpt lat="46.79051" lon="12.2935">
        <ele>2220.78</ele>
        <time>2015-02-26T12:05:53Z</time>
      </trkpt>
      <trkpt lat="46.79054" lon="12.29364">
        <ele>2216.94</ele>
        <time>2015-02-26T12:05:57Z</time>
      </trkpt>
      <trkpt lat="46.79056" lon="12.29379">
        <ele>2211.65</ele>
        <time>2015-02-26T12:06:01Z</time>
      </trkpt>
      <trkpt lat="46.79051" lon="12.2939">
        <ele>2207.81</ele>
        <time>2015-02-26T12:06:03Z</time>
      </trkpt>
      <trkpt lat="46.79049" lon="12.29415">
        <ele>2203</ele>
        <time>2015-02-26T12:06:09Z</time>
      </trkpt>
      <trkpt lat="46.79048" lon="12.2942">
        <ele>2202.04</ele>
        <time>2015-02-26T12:06:10Z</time>
      </trkpt>
      <trkpt lat="46.79045" lon="12.29429">
        <ele>2199.15</ele>
        <time>2015-02-26T12:06:20Z</time>
      </trkpt>
      <trkpt lat="46.79045" lon="12.29429">
        <ele>2199.15</ele>
        <time>2015-02-26T12:06:24Z</time>
      </trkpt>
      <trkpt lat="46.79042" lon="12.29454">
        <ele>2194.83</ele>
        <time>2015-02-26T12:06:30Z</time>
      </trkpt>
      <trkpt lat="46.79039" lon="12.29467">
        <ele>2191.46</ele>
        <time>2015-02-26T12:06:32Z</time>
      </trkpt>
      <trkpt lat="46.79035" lon="12.29487">
        <ele>2188.1</ele>
        <time>2015-02-26T12:06:36Z</time>
      </trkpt>
      <trkpt lat="46.79033" lon="12.29492">
        <ele>2187.62</ele>
        <time>2015-02-26T12:06:37Z</time>
      </trkpt>
      <trkpt lat="46.79026" lon="12.29512">
        <ele>2183.29</ele>
        <time>2015-02-26T12:06:41Z</time>
      </trkpt>
      <trkpt lat="46.79024" lon="12.29512">
        <ele>2182.33</ele>
        <time>2015-02-26T12:06:52Z</time>
      </trkpt>
      <trkpt lat="46.79008" lon="12.29536">
        <ele>2178.97</ele>
        <time>2015-02-26T12:07:00Z</time>
      </trkpt>
      <trkpt lat="46.79003" lon="12.29541">
        <ele>2177.52</ele>
        <time>2015-02-26T12:07:04Z</time>
      </trkpt>
      <trkpt lat="46.78998" lon="12.2955">
        <ele>2175.12</ele>
        <time>2015-02-26T12:07:06Z</time>
      </trkpt>
      <trkpt lat="46.78986" lon="12.29577">
        <ele>2170.79</ele>
        <time>2015-02-26T12:07:10Z</time>
      </trkpt>
      <trkpt lat="46.78985" lon="12.2958">
        <ele>2170.31</ele>
        <time>2015-02-26T12:07:11Z</time>
      </trkpt>
      <trkpt lat="46.78975" lon="12.29596">
        <ele>2167.43</ele>
        <time>2015-02-26T12:07:19Z</time>
      </trkpt>
      <trkpt lat="46.78972" lon="12.29602">
        <ele>2166.47</ele>
        <time>2015-02-26T12:07:21Z</time>
      </trkpt>
      <trkpt lat="46.7897" lon="12.29604">
        <ele>2166.47</ele>
        <time>2015-02-26T12:07:31Z</time>
      </trkpt>
      <trkpt lat="46.7897" lon="12.29606">
        <ele>2165.51</ele>
        <time>2015-02-26T12:07:46Z</time>
      </trkpt>
      <trkpt lat="46.7897" lon="12.29606">
        <ele>2165.51</ele>
        <time>2015-02-26T12:08:05Z</time>
      </trkpt>
      <trkpt lat="46.78969" lon="12.29607">
        <ele>2165.99</ele>
        <time>2015-02-26T12:08:20Z</time>
      </trkpt>
      <trkpt lat="46.7897" lon="12.29607">
        <ele>2165.51</ele>
        <time>2015-02-26T12:08:38Z</time>
      </trkpt>
      <trkpt lat="46.78971" lon="12.29606">
        <ele>2165.51</ele>
        <time>2015-02-26T12:08:56Z</time>
      </trkpt>
      <trkpt lat="46.7897" lon="12.29607">
        <ele>2165.99</ele>
        <time>2015-02-26T12:09:14Z</time>
      </trkpt>
      <trkpt lat="46.7897" lon="12.29605">
        <ele>2165.99</ele>
        <time>2015-02-26T12:09:29Z</time>
      </trkpt>
      <trkpt lat="46.7897" lon="12.29606">
        <ele>2165.99</ele>
        <time>2015-02-26T12:09:34Z</time>
      </trkpt>
      <trkpt lat="46.78955" lon="12.29609">
        <ele>2161.66</ele>
        <time>2015-02-26T12:09:40Z</time>
      </trkpt>
      <trkpt lat="46.78943" lon="12.29615">
        <ele>2159.74</ele>
        <time>2015-02-26T12:09:43Z</time>
      </trkpt>
      <trkpt lat="46.78937" lon="12.29621">
        <ele>2158.3</ele>
        <time>2015-02-26T12:09:45Z</time>
      </trkpt>
      <trkpt lat="46.78937" lon="12.2963">
        <ele>2153.97</ele>
        <time>2015-02-26T12:09:49Z</time>
      </trkpt>
      <trkpt lat="46.78941" lon="12.29629">
        <ele>2153.49</ele>
        <time>2015-02-26T12:09:50Z</time>
      </trkpt>
      <trkpt lat="46.78946" lon="12.29622">
        <ele>2152.53</ele>
        <time>2015-02-26T12:09:59Z</time>
      </trkpt>
      <trkpt lat="46.78944" lon="12.2962">
        <ele>2152.53</ele>
        <time>2015-02-26T12:10:19Z</time>
      </trkpt>
      <trkpt lat="46.78946" lon="12.29621">
        <ele>2152.53</ele>
        <time>2015-02-26T12:10:46Z</time>
      </trkpt>
      <trkpt lat="46.78947" lon="12.2962">
        <ele>2152.53</ele>
        <time>2015-02-26T12:11:13Z</time>
      </trkpt>
      <trkpt lat="46.78949" lon="12.2963">
        <ele>2149.16</ele>
        <time>2015-02-26T12:11:18Z</time>
      </trkpt>
      <trkpt lat="46.7894" lon="12.29644">
        <ele>2144.84</ele>
        <time>2015-02-26T12:11:22Z</time>
      </trkpt>
      <trkpt lat="46.78942" lon="12.29646">
        <ele>2142.92</ele>
        <time>2015-02-26T12:11:23Z</time>
      </trkpt>
      <trkpt lat="46.78948" lon="12.29644">
        <ele>2141.47</ele>
        <time>2015-02-26T12:11:26Z</time>
      </trkpt>
      <trkpt lat="46.78948" lon="12.29642">
        <ele>2141.47</ele>
        <time>2015-02-26T12:11:35Z</time>
      </trkpt>
      <trkpt lat="46.78949" lon="12.29651">
        <ele>2137.63</ele>
        <time>2015-02-26T12:11:40Z</time>
      </trkpt>
      <trkpt lat="46.78956" lon="12.29661">
        <ele>2133.78</ele>
        <time>2015-02-26T12:11:43Z</time>
      </trkpt>
      <trkpt lat="46.78975" lon="12.29667">
        <ele>2129.46</ele>
        <time>2015-02-26T12:11:51Z</time>
      </trkpt>
      <trkpt lat="46.78978" lon="12.29668">
        <ele>2128.98</ele>
        <time>2015-02-26T12:11:53Z</time>
      </trkpt>
      <trkpt lat="46.78983" lon="12.2967">
        <ele>2127.05</ele>
        <time>2015-02-26T12:12:07Z</time>
      </trkpt>
      <trkpt lat="46.78983" lon="12.2967">
        <ele>2127.05</ele>
        <time>2015-02-26T12:12:08Z</time>
      </trkpt>
      <trkpt lat="46.78977" lon="12.29677">
        <ele>2122.73</ele>
        <time>2015-02-26T12:12:12Z</time>
      </trkpt>
      <trkpt lat="46.78963" lon="12.29683">
        <ele>2119.36</ele>
        <time>2015-02-26T12:12:17Z</time>
      </trkpt>
      <trkpt lat="46.78958" lon="12.29695">
        <ele>2115.04</ele>
        <time>2015-02-26T12:12:23Z</time>
      </trkpt>
      <trkpt lat="46.78974" lon="12.29695">
        <ele>2111.67</ele>
        <time>2015-02-26T12:12:28Z</time>
      </trkpt>
      <trkpt lat="46.78982" lon="12.29706">
        <ele>2107.35</ele>
        <time>2015-02-26T12:12:33Z</time>
      </trkpt>
      <trkpt lat="46.78976" lon="12.29711">
        <ele>2103.5</ele>
        <time>2015-02-26T12:12:35Z</time>
      </trkpt>
      <trkpt lat="46.78972" lon="12.29713">
        <ele>2103.5</ele>
        <time>2015-02-26T12:12:48Z</time>
      </trkpt>
      <trkpt lat="46.78972" lon="12.29714">
        <ele>2103.5</ele>
        <time>2015-02-26T12:12:49Z</time>
      </trkpt>
      <trkpt lat="46.78974" lon="12.29726">
        <ele>2099.18</ele>
        <time>2015-02-26T12:12:53Z</time>
      </trkpt>
      <trkpt lat="46.78983" lon="12.29733">
        <ele>2095.33</ele>
        <time>2015-02-26T12:12:56Z</time>
      </trkpt>
      <trkpt lat="46.78993" lon="12.29732">
        <ele>2092.93</ele>
        <time>2015-02-26T12:12:59Z</time>
      </trkpt>
      <trkpt lat="46.78993" lon="12.29742">
        <ele>2087.16</ele>
        <time>2015-02-26T12:13:03Z</time>
      </trkpt>
      <trkpt lat="46.78992" lon="12.29746">
        <ele>2087.16</ele>
        <time>2015-02-26T12:13:04Z</time>
      </trkpt>
      <trkpt lat="46.78994" lon="12.29749">
        <ele>2084.28</ele>
        <time>2015-02-26T12:13:06Z</time>
      </trkpt>
      <trkpt lat="46.79" lon="12.29748">
        <ele>2082.35</ele>
        <time>2015-02-26T12:13:08Z</time>
      </trkpt>
      <trkpt lat="46.78999" lon="12.29759">
        <ele>2078.99</ele>
        <time>2015-02-26T12:13:15Z</time>
      </trkpt>
      <trkpt lat="46.78998" lon="12.29762">
        <ele>2078.99</ele>
        <time>2015-02-26T12:13:23Z</time>
      </trkpt>
      <trkpt lat="46.79006" lon="12.29772">
        <ele>2074.66</ele>
        <time>2015-02-26T12:13:28Z</time>
      </trkpt>
      <trkpt lat="46.79003" lon="12.29783">
        <ele>2071.3</ele>
        <time>2015-02-26T12:13:30Z</time>
      </trkpt>
      <trkpt lat="46.7901" lon="12.29793">
        <ele>2066.97</ele>
        <time>2015-02-26T12:13:33Z</time>
      </trkpt>
      <trkpt lat="46.79014" lon="12.29805">
        <ele>2062.65</ele>
        <time>2015-02-26T12:13:35Z</time>
      </trkpt>
      <trkpt lat="46.79019" lon="12.29818">
        <ele>2059.28</ele>
        <time>2015-02-26T12:13:38Z</time>
      </trkpt>
      <trkpt lat="46.79023" lon="12.29816">
        <ele>2058.8</ele>
        <time>2015-02-26T12:13:39Z</time>
      </trkpt>
      <trkpt lat="46.79029" lon="12.29807">
        <ele>2058.8</ele>
        <time>2015-02-26T12:13:51Z</time>
      </trkpt>
      <trkpt lat="46.79026" lon="12.29805">
        <ele>2059.28</ele>
        <time>2015-02-26T12:14:12Z</time>
      </trkpt>
      <trkpt lat="46.79019" lon="12.29802">
        <ele>2059.28</ele>
        <time>2015-02-26T12:14:39Z</time>
      </trkpt>
      <trkpt lat="46.79021" lon="12.29802">
        <ele>2059.76</ele>
        <time>2015-02-26T12:15:05Z</time>
      </trkpt>
      <trkpt lat="46.79023" lon="12.29801">
        <ele>2059.76</ele>
        <time>2015-02-26T12:15:08Z</time>
      </trkpt>
      <trkpt lat="46.79023" lon="12.29818">
        <ele>2054.47</ele>
        <time>2015-02-26T12:15:12Z</time>
      </trkpt>
      <trkpt lat="46.79031" lon="12.29825">
        <ele>2051.11</ele>
        <time>2015-02-26T12:15:15Z</time>
      </trkpt>
      <trkpt lat="46.79035" lon="12.29835">
        <ele>2047.75</ele>
        <time>2015-02-26T12:15:17Z</time>
      </trkpt>
      <trkpt lat="46.79045" lon="12.29853">
        <ele>2041.02</ele>
        <time>2015-02-26T12:15:22Z</time>
      </trkpt>
      <trkpt lat="46.79046" lon="12.29872">
        <ele>2037.17</ele>
        <time>2015-02-26T12:15:24Z</time>
      </trkpt>
      <trkpt lat="46.79049" lon="12.29882">
        <ele>2034.77</ele>
        <time>2015-02-26T12:15:26Z</time>
      </trkpt>
      <trkpt lat="46.79049" lon="12.29897">
        <ele>2031.88</ele>
        <time>2015-02-26T12:15:29Z</time>
      </trkpt>
      <trkpt lat="46.79052" lon="12.29899">
        <ele>2029.96</ele>
        <time>2015-02-26T12:15:31Z</time>
      </trkpt>
      <trkpt lat="46.79056" lon="12.2989">
        <ele>2029.96</ele>
        <time>2015-02-26T12:15:43Z</time>
      </trkpt>
      <trkpt lat="46.79058" lon="12.29887">
        <ele>2030.44</ele>
        <time>2015-02-26T12:16:08Z</time>
      </trkpt>
      <trkpt lat="46.79057" lon="12.29887">
        <ele>2030.92</ele>
        <time>2015-02-26T12:16:30Z</time>
      </trkpt>
      <trkpt lat="46.79053" lon="12.29887">
        <ele>2031.4</ele>
        <time>2015-02-26T12:16:51Z</time>
      </trkpt>
      <trkpt lat="46.79061" lon="12.29883">
        <ele>2029.96</ele>
        <time>2015-02-26T12:17:11Z</time>
      </trkpt>
      <trkpt lat="46.79066" lon="12.29896">
        <ele>2026.12</ele>
        <time>2015-02-26T12:17:14Z</time>
      </trkpt>
      <trkpt lat="46.79069" lon="12.29905">
        <ele>2025.15</ele>
        <time>2015-02-26T12:17:16Z</time>
      </trkpt>
      <trkpt lat="46.79079" lon="12.29905">
        <ele>2021.31</ele>
        <time>2015-02-26T12:17:19Z</time>
      </trkpt>
      <trkpt lat="46.79085" lon="12.29914">
        <ele>2017.46</ele>
        <time>2015-02-26T12:17:22Z</time>
      </trkpt>
      <trkpt lat="46.79088" lon="12.29917">
        <ele>2016.5</ele>
        <time>2015-02-26T12:17:23Z</time>
      </trkpt>
      <trkpt lat="46.79091" lon="12.29923">
        <ele>2014.1</ele>
        <time>2015-02-26T12:17:25Z</time>
      </trkpt>
      <trkpt lat="46.79103" lon="12.29924">
        <ele>2009.29</ele>
        <time>2015-02-26T12:17:30Z</time>
      </trkpt>
      <trkpt lat="46.79108" lon="12.29925">
        <ele>2006.41</ele>
        <time>2015-02-26T12:17:32Z</time>
      </trkpt>
      <trkpt lat="46.79111" lon="12.29932">
        <ele>2005.93</ele>
        <time>2015-02-26T12:17:34Z</time>
      </trkpt>
      <trkpt lat="46.79115" lon="12.29937">
        <ele>2004.97</ele>
        <time>2015-02-26T12:17:36Z</time>
      </trkpt>
      <trkpt lat="46.79121" lon="12.29931">
        <ele>2002.56</ele>
        <time>2015-02-26T12:17:39Z</time>
      </trkpt>
      <trkpt lat="46.79125" lon="12.29931">
        <ele>2000.64</ele>
        <time>2015-02-26T12:17:41Z</time>
      </trkpt>
      <trkpt lat="46.7913" lon="12.29923">
        <ele>1997.76</ele>
        <time>2015-02-26T12:17:44Z</time>
      </trkpt>
      <trkpt lat="46.79132" lon="12.2992">
        <ele>1997.28</ele>
        <time>2015-02-26T12:17:45Z</time>
      </trkpt>
      <trkpt lat="46.79134" lon="12.29933">
        <ele>1996.32</ele>
        <time>2015-02-26T12:17:49Z</time>
      </trkpt>
      <trkpt lat="46.79135" lon="12.29948">
        <ele>1995.83</ele>
        <time>2015-02-26T12:17:59Z</time>
      </trkpt>
      <trkpt lat="46.7914" lon="12.29943">
        <ele>1993.91</ele>
        <time>2015-02-26T12:18:03Z</time>
      </trkpt>
      <trkpt lat="46.7914" lon="12.29944">
        <ele>1994.39</ele>
        <time>2015-02-26T12:18:17Z</time>
      </trkpt>
      <trkpt lat="46.79152" lon="12.29941">
        <ele>1990.55</ele>
        <time>2015-02-26T12:18:24Z</time>
      </trkpt>
      <trkpt lat="46.79155" lon="12.29939">
        <ele>1990.07</ele>
        <time>2015-02-26T12:18:25Z</time>
      </trkpt>
      <trkpt lat="46.79167" lon="12.29923">
        <ele>1986.7</ele>
        <time>2015-02-26T12:18:30Z</time>
      </trkpt>
      <trkpt lat="46.79168" lon="12.29921">
        <ele>1985.26</ele>
        <time>2015-02-26T12:18:31Z</time>
      </trkpt>
      <trkpt lat="46.79179" lon="12.29922">
        <ele>1982.86</ele>
        <time>2015-02-26T12:18:35Z</time>
      </trkpt>
      <trkpt lat="46.79189" lon="12.29935">
        <ele>1979.49</ele>
        <time>2015-02-26T12:18:39Z</time>
      </trkpt>
      <trkpt lat="46.79193" lon="12.29938">
        <ele>1978.53</ele>
        <time>2015-02-26T12:18:40Z</time>
      </trkpt>
      <trkpt lat="46.79203" lon="12.29941">
        <ele>1977.57</ele>
        <time>2015-02-26T12:18:42Z</time>
      </trkpt>
      <trkpt lat="46.79232" lon="12.29944">
        <ele>1974.69</ele>
        <time>2015-02-26T12:18:52Z</time>
      </trkpt>
      <trkpt lat="46.79254" lon="12.29956">
        <ele>1972.76</ele>
        <time>2015-02-26T12:19:03Z</time>
      </trkpt>
      <trkpt lat="46.79254" lon="12.29958">
        <ele>1972.28</ele>
        <time>2015-02-26T12:19:04Z</time>
      </trkpt>
      <trkpt lat="46.79254" lon="12.2996">
        <ele>1971.8</ele>
        <time>2015-02-26T12:19:05Z</time>
      </trkpt>
      <trkpt lat="46.7924" lon="12.29967">
        <ele>1969.4</ele>
        <time>2015-02-26T12:19:10Z</time>
      </trkpt>
      <trkpt lat="46.79244" lon="12.29977">
        <ele>1968.44</ele>
        <time>2015-02-26T12:19:13Z</time>
      </trkpt>
      <trkpt lat="46.79244" lon="12.29982">
        <ele>1967.96</ele>
        <time>2015-02-26T12:19:23Z</time>
      </trkpt>
      <trkpt lat="46.79246" lon="12.29984">
        <ele>1967.48</ele>
        <time>2015-02-26T12:19:24Z</time>
      </trkpt>
      <trkpt lat="46.7926" lon="12.29998">
        <ele>1964.59</ele>
        <time>2015-02-26T12:19:28Z</time>
      </trkpt>
      <trkpt lat="46.79265" lon="12.3">
        <ele>1964.59</ele>
        <time>2015-02-26T12:19:29Z</time>
      </trkpt>
      <trkpt lat="46.7927" lon="12.30001">
        <ele>1964.11</ele>
        <time>2015-02-26T12:19:30Z</time>
      </trkpt>
      <trkpt lat="46.79302" lon="12.30008">
        <ele>1961.23</ele>
        <time>2015-02-26T12:19:39Z</time>
      </trkpt>
      <trkpt lat="46.79299" lon="12.3001">
        <ele>1959.78</ele>
        <time>2015-02-26T12:19:40Z</time>
      </trkpt>
      <trkpt lat="46.79296" lon="12.30014">
        <ele>1958.82</ele>
        <time>2015-02-26T12:19:41Z</time>
      </trkpt>
      <trkpt lat="46.79296" lon="12.30019">
        <ele>1958.82</ele>
        <time>2015-02-26T12:19:42Z</time>
      </trkpt>
      <trkpt lat="46.79297" lon="12.30024">
        <ele>1958.34</ele>
        <time>2015-02-26T12:19:43Z</time>
      </trkpt>
      <trkpt lat="46.7931" lon="12.3004">
        <ele>1956.42</ele>
        <time>2015-02-26T12:19:47Z</time>
      </trkpt>
      <trkpt lat="46.79313" lon="12.30043">
        <ele>1954.5</ele>
        <time>2015-02-26T12:19:49Z</time>
      </trkpt>
      <trkpt lat="46.79313" lon="12.30044">
        <ele>1953.54</ele>
        <time>2015-02-26T12:19:50Z</time>
      </trkpt>
      <trkpt lat="46.7931" lon="12.30048">
        <ele>1953.06</ele>
        <time>2015-02-26T12:19:51Z</time>
      </trkpt>
      <trkpt lat="46.79311" lon="12.30053">
        <ele>1953.06</ele>
        <time>2015-02-26T12:19:52Z</time>
      </trkpt>
      <trkpt lat="46.79313" lon="12.3006">
        <ele>1952.57</ele>
        <time>2015-02-26T12:19:53Z</time>
      </trkpt>
      <trkpt lat="46.79315" lon="12.30068">
        <ele>1951.61</ele>
        <time>2015-02-26T12:19:54Z</time>
      </trkpt>
      <trkpt lat="46.79329" lon="12.30099">
        <ele>1949.69</ele>
        <time>2015-02-26T12:19:59Z</time>
      </trkpt>
      <trkpt lat="46.79336" lon="12.30079">
        <ele>1950.65</ele>
        <time>2015-02-26T12:20:11Z</time>
      </trkpt>
      <trkpt lat="46.79336" lon="12.30078">
        <ele>1950.17</ele>
        <time>2015-02-26T12:20:32Z</time>
      </trkpt>
      <trkpt lat="46.79338" lon="12.30086">
        <ele>1950.17</ele>
        <time>2015-02-26T12:20:58Z</time>
      </trkpt>
      <trkpt lat="46.79339" lon="12.30085">
        <ele>1950.65</ele>
        <time>2015-02-26T12:21:29Z</time>
      </trkpt>
      <trkpt lat="46.79338" lon="12.30084">
        <ele>1950.65</ele>
        <time>2015-02-26T12:22:00Z</time>
      </trkpt>
      <trkpt lat="46.79338" lon="12.30082">
        <ele>1952.09</ele>
        <time>2015-02-26T12:22:25Z</time>
      </trkpt>
      <trkpt lat="46.79339" lon="12.30081">
        <ele>1952.09</ele>
        <time>2015-02-26T12:22:47Z</time>
      </trkpt>
      <trkpt lat="46.79339" lon="12.30079">
        <ele>1952.09</ele>
        <time>2015-02-26T12:23:06Z</time>
      </trkpt>
      <trkpt lat="46.79338" lon="12.30079">
        <ele>1952.57</ele>
        <time>2015-02-26T12:23:21Z</time>
      </trkpt>
      <trkpt lat="46.79337" lon="12.30079">
        <ele>1952.57</ele>
        <time>2015-02-26T12:23:34Z</time>
      </trkpt>
      <trkpt lat="46.79335" lon="12.30078">
        <ele>1952.57</ele>
        <time>2015-02-26T12:23:53Z</time>
      </trkpt>
      <trkpt lat="46.79335" lon="12.30079">
        <ele>1952.57</ele>
        <time>2015-02-26T12:24:10Z</time>
      </trkpt>
      <trkpt lat="46.79335" lon="12.30079">
        <ele>1952.57</ele>
        <time>2015-02-26T12:24:32Z</time>
      </trkpt>
      <trkpt lat="46.79335" lon="12.30077">
        <ele>1952.57</ele>
        <time>2015-02-26T12:24:55Z</time>
      </trkpt>
      <trkpt lat="46.79334" lon="12.30076">
        <ele>1952.09</ele>
        <time>2015-02-26T12:25:11Z</time>
      </trkpt>
      <trkpt lat="46.79334" lon="12.30078">
        <ele>1952.57</ele>
        <time>2015-02-26T12:25:28Z</time>
      </trkpt>
      <trkpt lat="46.79334" lon="12.3008">
        <ele>1952.09</ele>
        <time>2015-02-26T12:25:50Z</time>
      </trkpt>
      <trkpt lat="46.79334" lon="12.30079">
        <ele>1952.57</ele>
        <time>2015-02-26T12:26:17Z</time>
      </trkpt>
      <trkpt lat="46.79334" lon="12.30079">
        <ele>1952.09</ele>
        <time>2015-02-26T12:26:43Z</time>
      </trkpt>
      <trkpt lat="46.79333" lon="12.30077">
        <ele>1952.57</ele>
        <time>2015-02-26T12:27:02Z</time>
      </trkpt>
      <trkpt lat="46.79334" lon="12.30079">
        <ele>1952.57</ele>
        <time>2015-02-26T12:27:26Z</time>
      </trkpt>
      <trkpt lat="46.79335" lon="12.3008">
        <ele>1952.09</ele>
        <time>2015-02-26T12:27:52Z</time>
      </trkpt>
      <trkpt lat="46.79336" lon="12.3008">
        <ele>1953.54</ele>
        <time>2015-02-26T12:28:09Z</time>
      </trkpt>
      <trkpt lat="46.79335" lon="12.30079">
        <ele>1952.57</ele>
        <time>2015-02-26T12:28:36Z</time>
      </trkpt>
      <trkpt lat="46.79335" lon="12.3008">
        <ele>1952.57</ele>
        <time>2015-02-26T12:28:58Z</time>
      </trkpt>
      <trkpt lat="46.79335" lon="12.30079">
        <ele>1952.57</ele>
        <time>2015-02-26T12:29:16Z</time>
      </trkpt>
      <trkpt lat="46.79336" lon="12.3008">
        <ele>1952.57</ele>
        <time>2015-02-26T12:29:41Z</time>
      </trkpt>
      <trkpt lat="46.79335" lon="12.30081">
        <ele>1954.02</ele>
        <time>2015-02-26T12:30:10Z</time>
      </trkpt>
      <trkpt lat="46.79335" lon="12.30082">
        <ele>1952.57</ele>
        <time>2015-02-26T12:30:28Z</time>
      </trkpt>
      <trkpt lat="46.79334" lon="12.30081">
        <ele>1952.57</ele>
        <time>2015-02-26T12:30:35Z</time>
      </trkpt>
      <trkpt lat="46.79334" lon="12.3009">
        <ele>1952.09</ele>
        <time>2015-02-26T12:30:38Z</time>
      </trkpt>
      <trkpt lat="46.79335" lon="12.30095">
        <ele>1951.61</ele>
        <time>2015-02-26T12:30:39Z</time>
      </trkpt>
      <trkpt lat="46.79336" lon="12.301">
        <ele>1951.13</ele>
        <time>2015-02-26T12:30:40Z</time>
      </trkpt>
      <trkpt lat="46.79337" lon="12.30107">
        <ele>1950.65</ele>
        <time>2015-02-26T12:30:41Z</time>
      </trkpt>
      <trkpt lat="46.79338" lon="12.30114">
        <ele>1950.65</ele>
        <time>2015-02-26T12:30:42Z</time>
      </trkpt>
      <trkpt lat="46.79342" lon="12.30128">
        <ele>1949.21</ele>
        <time>2015-02-26T12:30:44Z</time>
      </trkpt>
      <trkpt lat="46.79346" lon="12.30141">
        <ele>1948.25</ele>
        <time>2015-02-26T12:30:46Z</time>
      </trkpt>
      <trkpt lat="46.79349" lon="12.30147">
        <ele>1947.29</ele>
        <time>2015-02-26T12:30:47Z</time>
      </trkpt>
      <trkpt lat="46.79352" lon="12.30151">
        <ele>1947.29</ele>
        <time>2015-02-26T12:30:48Z</time>
      </trkpt>
      <trkpt lat="46.79368" lon="12.30174">
        <ele>1944.88</ele>
        <time>2015-02-26T12:30:54Z</time>
      </trkpt>
      <trkpt lat="46.79368" lon="12.3018">
        <ele>1943.92</ele>
        <time>2015-02-26T12:30:55Z</time>
      </trkpt>
      <trkpt lat="46.79365" lon="12.30186">
        <ele>1942</ele>
        <time>2015-02-26T12:30:56Z</time>
      </trkpt>
      <trkpt lat="46.79363" lon="12.30191">
        <ele>1941.04</ele>
        <time>2015-02-26T12:30:57Z</time>
      </trkpt>
      <trkpt lat="46.79364" lon="12.30197">
        <ele>1940.56</ele>
        <time>2015-02-26T12:30:58Z</time>
      </trkpt>
      <trkpt lat="46.79367" lon="12.30202">
        <ele>1939.6</ele>
        <time>2015-02-26T12:30:59Z</time>
      </trkpt>
      <trkpt lat="46.79371" lon="12.30207">
        <ele>1939.12</ele>
        <time>2015-02-26T12:31:00Z</time>
      </trkpt>
      <trkpt lat="46.79371" lon="12.30213">
        <ele>1938.16</ele>
        <time>2015-02-26T12:31:01Z</time>
      </trkpt>
      <trkpt lat="46.79368" lon="12.30226">
        <ele>1935.27</ele>
        <time>2015-02-26T12:31:03Z</time>
      </trkpt>
      <trkpt lat="46.79371" lon="12.30232">
        <ele>1934.31</ele>
        <time>2015-02-26T12:31:04Z</time>
      </trkpt>
      <trkpt lat="46.79374" lon="12.30235">
        <ele>1933.83</ele>
        <time>2015-02-26T12:31:05Z</time>
      </trkpt>
      <trkpt lat="46.79378" lon="12.30238">
        <ele>1932.87</ele>
        <time>2015-02-26T12:31:06Z</time>
      </trkpt>
      <trkpt lat="46.79381" lon="12.30244">
        <ele>1932.39</ele>
        <time>2015-02-26T12:31:07Z</time>
      </trkpt>
      <trkpt lat="46.79381" lon="12.3025">
        <ele>1930.95</ele>
        <time>2015-02-26T12:31:08Z</time>
      </trkpt>
      <trkpt lat="46.79379" lon="12.30256">
        <ele>1929.02</ele>
        <time>2015-02-26T12:31:09Z</time>
      </trkpt>
      <trkpt lat="46.79379" lon="12.30263">
        <ele>1928.06</ele>
        <time>2015-02-26T12:31:10Z</time>
      </trkpt>
      <trkpt lat="46.79382" lon="12.30268">
        <ele>1927.1</ele>
        <time>2015-02-26T12:31:11Z</time>
      </trkpt>
      <trkpt lat="46.79386" lon="12.30272">
        <ele>1926.14</ele>
        <time>2015-02-26T12:31:12Z</time>
      </trkpt>
      <trkpt lat="46.7939" lon="12.30276">
        <ele>1925.18</ele>
        <time>2015-02-26T12:31:13Z</time>
      </trkpt>
      <trkpt lat="46.79393" lon="12.30281">
        <ele>1924.22</ele>
        <time>2015-02-26T12:31:14Z</time>
      </trkpt>
      <trkpt lat="46.79393" lon="12.30302">
        <ele>1919.89</ele>
        <time>2015-02-26T12:31:17Z</time>
      </trkpt>
      <trkpt lat="46.79405" lon="12.30318">
        <ele>1916.53</ele>
        <time>2015-02-26T12:31:20Z</time>
      </trkpt>
      <trkpt lat="46.79406" lon="12.30325">
        <ele>1914.6</ele>
        <time>2015-02-26T12:31:21Z</time>
      </trkpt>
      <trkpt lat="46.79406" lon="12.30332">
        <ele>1913.16</ele>
        <time>2015-02-26T12:31:22Z</time>
      </trkpt>
      <trkpt lat="46.79408" lon="12.3034">
        <ele>1912.68</ele>
        <time>2015-02-26T12:31:23Z</time>
      </trkpt>
      <trkpt lat="46.79411" lon="12.30346">
        <ele>1912.2</ele>
        <time>2015-02-26T12:31:24Z</time>
      </trkpt>
      <trkpt lat="46.79415" lon="12.30352">
        <ele>1911.24</ele>
        <time>2015-02-26T12:31:25Z</time>
      </trkpt>
      <trkpt lat="46.7942" lon="12.30365">
        <ele>1909.8</ele>
        <time>2015-02-26T12:31:27Z</time>
      </trkpt>
      <trkpt lat="46.7942" lon="12.30373">
        <ele>1908.83</ele>
        <time>2015-02-26T12:31:28Z</time>
      </trkpt>
      <trkpt lat="46.79416" lon="12.30387">
        <ele>1907.39</ele>
        <time>2015-02-26T12:31:30Z</time>
      </trkpt>
      <trkpt lat="46.79415" lon="12.30393">
        <ele>1906.91</ele>
        <time>2015-02-26T12:31:31Z</time>
      </trkpt>
      <trkpt lat="46.79414" lon="12.30398">
        <ele>1906.43</ele>
        <time>2015-02-26T12:31:32Z</time>
      </trkpt>
      <trkpt lat="46.79416" lon="12.30384">
        <ele>1906.43</ele>
        <time>2015-02-26T12:31:41Z</time>
      </trkpt>
      <trkpt lat="46.79417" lon="12.3038">
        <ele>1906.43</ele>
        <time>2015-02-26T12:32:02Z</time>
      </trkpt>
      <trkpt lat="46.79417" lon="12.30381">
        <ele>1906.43</ele>
        <time>2015-02-26T12:32:21Z</time>
      </trkpt>
      <trkpt lat="46.79417" lon="12.30384">
        <ele>1905.95</ele>
        <time>2015-02-26T12:32:28Z</time>
      </trkpt>
      <trkpt lat="46.79417" lon="12.30395">
        <ele>1905.47</ele>
        <time>2015-02-26T12:32:31Z</time>
      </trkpt>
      <trkpt lat="46.79418" lon="12.30401">
        <ele>1904.99</ele>
        <time>2015-02-26T12:32:32Z</time>
      </trkpt>
      <trkpt lat="46.79418" lon="12.30407">
        <ele>1904.51</ele>
        <time>2015-02-26T12:32:33Z</time>
      </trkpt>
      <trkpt lat="46.79419" lon="12.30413">
        <ele>1904.03</ele>
        <time>2015-02-26T12:32:34Z</time>
      </trkpt>
      <trkpt lat="46.7942" lon="12.3042">
        <ele>1903.55</ele>
        <time>2015-02-26T12:32:35Z</time>
      </trkpt>
      <trkpt lat="46.79421" lon="12.30426">
        <ele>1902.59</ele>
        <time>2015-02-26T12:32:36Z</time>
      </trkpt>
      <trkpt lat="46.79422" lon="12.30433">
        <ele>1902.11</ele>
        <time>2015-02-26T12:32:37Z</time>
      </trkpt>
      <trkpt lat="46.79423" lon="12.30439">
        <ele>1901.14</ele>
        <time>2015-02-26T12:32:38Z</time>
      </trkpt>
      <trkpt lat="46.79423" lon="12.30444">
        <ele>1901.14</ele>
        <time>2015-02-26T12:32:39Z</time>
      </trkpt>
      <trkpt lat="46.79424" lon="12.30449">
        <ele>1900.18</ele>
        <time>2015-02-26T12:32:40Z</time>
      </trkpt>
      <trkpt lat="46.79424" lon="12.30453">
        <ele>1899.7</ele>
        <time>2015-02-26T12:32:41Z</time>
      </trkpt>
      <trkpt lat="46.79424" lon="12.30464">
        <ele>1898.26</ele>
        <time>2015-02-26T12:32:43Z</time>
      </trkpt>
      <trkpt lat="46.79424" lon="12.3047">
        <ele>1898.26</ele>
        <time>2015-02-26T12:32:44Z</time>
      </trkpt>
      <trkpt lat="46.79424" lon="12.30477">
        <ele>1896.82</ele>
        <time>2015-02-26T12:32:45Z</time>
      </trkpt>
      <trkpt lat="46.79423" lon="12.30484">
        <ele>1896.34</ele>
        <time>2015-02-26T12:32:46Z</time>
      </trkpt>
      <trkpt lat="46.79422" lon="12.30489">
        <ele>1895.86</ele>
        <time>2015-02-26T12:32:47Z</time>
      </trkpt>
      <trkpt lat="46.7942" lon="12.30492">
        <ele>1894.9</ele>
        <time>2015-02-26T12:32:49Z</time>
      </trkpt>
      <trkpt lat="46.79421" lon="12.3048">
        <ele>1894.9</ele>
        <time>2015-02-26T12:33:02Z</time>
      </trkpt>
      <trkpt lat="46.79424" lon="12.30486">
        <ele>1895.38</ele>
        <time>2015-02-26T12:33:24Z</time>
      </trkpt>
      <trkpt lat="46.79424" lon="12.30489">
        <ele>1895.38</ele>
        <time>2015-02-26T12:33:25Z</time>
      </trkpt>
      <trkpt lat="46.79424" lon="12.30491">
        <ele>1894.9</ele>
        <time>2015-02-26T12:33:26Z</time>
      </trkpt>
      <trkpt lat="46.79425" lon="12.30498">
        <ele>1894.42</ele>
        <time>2015-02-26T12:33:28Z</time>
      </trkpt>
      <trkpt lat="46.79427" lon="12.30502">
        <ele>1893.93</ele>
        <time>2015-02-26T12:33:30Z</time>
      </trkpt>
      <trkpt lat="46.79428" lon="12.30507">
        <ele>1892.49</ele>
        <time>2015-02-26T12:33:41Z</time>
      </trkpt>
      <trkpt lat="46.79429" lon="12.30503">
        <ele>1892.97</ele>
        <time>2015-02-26T12:34:01Z</time>
      </trkpt>
      <trkpt lat="46.79428" lon="12.30504">
        <ele>1892.97</ele>
        <time>2015-02-26T12:34:26Z</time>
      </trkpt>
      <trkpt lat="46.79429" lon="12.30505">
        <ele>1892.97</ele>
        <time>2015-02-26T12:34:27Z</time>
      </trkpt>
      <trkpt lat="46.7943" lon="12.30506">
        <ele>1892.97</ele>
        <time>2015-02-26T12:34:28Z</time>
      </trkpt>
      <trkpt lat="46.79437" lon="12.30512">
        <ele>1892.01</ele>
        <time>2015-02-26T12:34:32Z</time>
      </trkpt>
      <trkpt lat="46.79437" lon="12.30516">
        <ele>1891.53</ele>
        <time>2015-02-26T12:34:33Z</time>
      </trkpt>
      <trkpt lat="46.79424" lon="12.30525">
        <ele>1888.17</ele>
        <time>2015-02-26T12:34:37Z</time>
      </trkpt>
      <trkpt lat="46.79425" lon="12.30545">
        <ele>1884.8</ele>
        <time>2015-02-26T12:34:41Z</time>
      </trkpt>
      <trkpt lat="46.79418" lon="12.30558">
        <ele>1881.44</ele>
        <time>2015-02-26T12:34:44Z</time>
      </trkpt>
      <trkpt lat="46.79421" lon="12.30568">
        <ele>1879.51</ele>
        <time>2015-02-26T12:34:46Z</time>
      </trkpt>
      <trkpt lat="46.79423" lon="12.30571">
        <ele>1879.03</ele>
        <time>2015-02-26T12:34:47Z</time>
      </trkpt>
      <trkpt lat="46.79425" lon="12.30572">
        <ele>1879.03</ele>
        <time>2015-02-26T12:34:48Z</time>
      </trkpt>
      <trkpt lat="46.7944" lon="12.30573">
        <ele>1877.11</ele>
        <time>2015-02-26T12:34:57Z</time>
      </trkpt>
      <trkpt lat="46.79436" lon="12.3058">
        <ele>1875.67</ele>
        <time>2015-02-26T12:35:02Z</time>
      </trkpt>
      <trkpt lat="46.79427" lon="12.30578">
        <ele>1874.23</ele>
        <time>2015-02-26T12:35:08Z</time>
      </trkpt>
      <trkpt lat="46.79429" lon="12.3059">
        <ele>1871.82</ele>
        <time>2015-02-26T12:35:12Z</time>
      </trkpt>
      <trkpt lat="46.79431" lon="12.30591">
        <ele>1871.34</ele>
        <time>2015-02-26T12:35:13Z</time>
      </trkpt>
      <trkpt lat="46.79436" lon="12.30591">
        <ele>1871.34</ele>
        <time>2015-02-26T12:35:32Z</time>
      </trkpt>
      <trkpt lat="46.79437" lon="12.3059">
        <ele>1871.34</ele>
        <time>2015-02-26T12:35:58Z</time>
      </trkpt>
      <trkpt lat="46.7944" lon="12.30594">
        <ele>1869.9</ele>
        <time>2015-02-26T12:36:10Z</time>
      </trkpt>
      <trkpt lat="46.79438" lon="12.30597">
        <ele>1869.9</ele>
        <time>2015-02-26T12:36:21Z</time>
      </trkpt>
      <trkpt lat="46.79443" lon="12.30602">
        <ele>1869.9</ele>
        <time>2015-02-26T12:36:32Z</time>
      </trkpt>
      <trkpt lat="46.79455" lon="12.3062">
        <ele>1867.5</ele>
        <time>2015-02-26T12:36:38Z</time>
      </trkpt>
      <trkpt lat="46.79446" lon="12.30632">
        <ele>1864.61</ele>
        <time>2015-02-26T12:36:41Z</time>
      </trkpt>
      <trkpt lat="46.79445" lon="12.30638">
        <ele>1863.65</ele>
        <time>2015-02-26T12:36:42Z</time>
      </trkpt>
      <trkpt lat="46.79446" lon="12.30644">
        <ele>1863.17</ele>
        <time>2015-02-26T12:36:43Z</time>
      </trkpt>
      <trkpt lat="46.79449" lon="12.30648">
        <ele>1862.21</ele>
        <time>2015-02-26T12:36:44Z</time>
      </trkpt>
      <trkpt lat="46.79453" lon="12.30653">
        <ele>1861.25</ele>
        <time>2015-02-26T12:36:45Z</time>
      </trkpt>
      <trkpt lat="46.79457" lon="12.30657">
        <ele>1859.81</ele>
        <time>2015-02-26T12:36:46Z</time>
      </trkpt>
      <trkpt lat="46.7946" lon="12.30661">
        <ele>1859.33</ele>
        <time>2015-02-26T12:36:47Z</time>
      </trkpt>
      <trkpt lat="46.79464" lon="12.30666">
        <ele>1858.37</ele>
        <time>2015-02-26T12:36:48Z</time>
      </trkpt>
      <trkpt lat="46.79467" lon="12.30671">
        <ele>1857.4</ele>
        <time>2015-02-26T12:36:49Z</time>
      </trkpt>
      <trkpt lat="46.7947" lon="12.30677">
        <ele>1856.44</ele>
        <time>2015-02-26T12:36:50Z</time>
      </trkpt>
      <trkpt lat="46.79474" lon="12.30682">
        <ele>1855.96</ele>
        <time>2015-02-26T12:36:51Z</time>
      </trkpt>
      <trkpt lat="46.79477" lon="12.30687">
        <ele>1855</ele>
        <time>2015-02-26T12:36:52Z</time>
      </trkpt>
      <trkpt lat="46.79481" lon="12.30692">
        <ele>1854.04</ele>
        <time>2015-02-26T12:36:53Z</time>
      </trkpt>
      <trkpt lat="46.79483" lon="12.30696">
        <ele>1854.04</ele>
        <time>2015-02-26T12:36:54Z</time>
      </trkpt>
      <trkpt lat="46.79486" lon="12.307">
        <ele>1853.08</ele>
        <time>2015-02-26T12:36:55Z</time>
      </trkpt>
      <trkpt lat="46.79488" lon="12.30705">
        <ele>1852.6</ele>
        <time>2015-02-26T12:36:56Z</time>
      </trkpt>
      <trkpt lat="46.7949" lon="12.30711">
        <ele>1851.64</ele>
        <time>2015-02-26T12:36:57Z</time>
      </trkpt>
      <trkpt lat="46.79501" lon="12.30735">
        <ele>1848.27</ele>
        <time>2015-02-26T12:37:03Z</time>
      </trkpt>
      <trkpt lat="46.79502" lon="12.30743">
        <ele>1847.31</ele>
        <time>2015-02-26T12:37:05Z</time>
      </trkpt>
      <trkpt lat="46.79504" lon="12.30738">
        <ele>1848.27</ele>
        <time>2015-02-26T12:37:18Z</time>
      </trkpt>
      <trkpt lat="46.79503" lon="12.3074">
        <ele>1847.31</ele>
        <time>2015-02-26T12:37:32Z</time>
      </trkpt>
      <trkpt lat="46.79501" lon="12.30744">
        <ele>1846.35</ele>
        <time>2015-02-26T12:37:33Z</time>
      </trkpt>
      <trkpt lat="46.79499" lon="12.30754">
        <ele>1844.91</ele>
        <time>2015-02-26T12:37:35Z</time>
      </trkpt>
      <trkpt lat="46.79499" lon="12.3076">
        <ele>1844.43</ele>
        <time>2015-02-26T12:37:36Z</time>
      </trkpt>
      <trkpt lat="46.79498" lon="12.30764">
        <ele>1843.47</ele>
        <time>2015-02-26T12:37:37Z</time>
      </trkpt>
      <trkpt lat="46.79498" lon="12.30769">
        <ele>1842.98</ele>
        <time>2015-02-26T12:37:38Z</time>
      </trkpt>
      <trkpt lat="46.79498" lon="12.30776">
        <ele>1842.5</ele>
        <time>2015-02-26T12:37:39Z</time>
      </trkpt>
      <trkpt lat="46.79499" lon="12.30782">
        <ele>1841.54</ele>
        <time>2015-02-26T12:37:40Z</time>
      </trkpt>
      <trkpt lat="46.79501" lon="12.30786">
        <ele>1841.54</ele>
        <time>2015-02-26T12:37:41Z</time>
      </trkpt>
      <trkpt lat="46.79501" lon="12.30788">
        <ele>1841.54</ele>
        <time>2015-02-26T12:37:42Z</time>
      </trkpt>
      <trkpt lat="46.795" lon="12.30792">
        <ele>1841.06</ele>
        <time>2015-02-26T12:37:49Z</time>
      </trkpt>
      <trkpt lat="46.79498" lon="12.30797">
        <ele>1840.58</ele>
        <time>2015-02-26T12:37:50Z</time>
      </trkpt>
      <trkpt lat="46.79497" lon="12.30804">
        <ele>1838.66</ele>
        <time>2015-02-26T12:37:51Z</time>
      </trkpt>
      <trkpt lat="46.79497" lon="12.30812">
        <ele>1837.7</ele>
        <time>2015-02-26T12:37:52Z</time>
      </trkpt>
      <trkpt lat="46.79498" lon="12.3082">
        <ele>1836.26</ele>
        <time>2015-02-26T12:37:53Z</time>
      </trkpt>
      <trkpt lat="46.79499" lon="12.30828">
        <ele>1835.77</ele>
        <time>2015-02-26T12:37:54Z</time>
      </trkpt>
      <trkpt lat="46.79497" lon="12.30833">
        <ele>1835.29</ele>
        <time>2015-02-26T12:37:55Z</time>
      </trkpt>
      <trkpt lat="46.79494" lon="12.30836">
        <ele>1834.81</ele>
        <time>2015-02-26T12:37:56Z</time>
      </trkpt>
      <trkpt lat="46.79493" lon="12.3084">
        <ele>1833.37</ele>
        <time>2015-02-26T12:37:57Z</time>
      </trkpt>
      <trkpt lat="46.79494" lon="12.30844">
        <ele>1833.37</ele>
        <time>2015-02-26T12:37:58Z</time>
      </trkpt>
      <trkpt lat="46.79495" lon="12.30849">
        <ele>1833.37</ele>
        <time>2015-02-26T12:37:59Z</time>
      </trkpt>
      <trkpt lat="46.79496" lon="12.30854">
        <ele>1831.93</ele>
        <time>2015-02-26T12:38:00Z</time>
      </trkpt>
      <trkpt lat="46.79497" lon="12.3086">
        <ele>1831.45</ele>
        <time>2015-02-26T12:38:01Z</time>
      </trkpt>
      <trkpt lat="46.79499" lon="12.30865">
        <ele>1830.97</ele>
        <time>2015-02-26T12:38:02Z</time>
      </trkpt>
      <trkpt lat="46.79498" lon="12.30871">
        <ele>1830.01</ele>
        <time>2015-02-26T12:38:03Z</time>
      </trkpt>
      <trkpt lat="46.79499" lon="12.30877">
        <ele>1829.53</ele>
        <time>2015-02-26T12:38:04Z</time>
      </trkpt>
      <trkpt lat="46.79499" lon="12.30883">
        <ele>1828.56</ele>
        <time>2015-02-26T12:38:05Z</time>
      </trkpt>
      <trkpt lat="46.795" lon="12.3089">
        <ele>1828.08</ele>
        <time>2015-02-26T12:38:06Z</time>
      </trkpt>
      <trkpt lat="46.79501" lon="12.30896">
        <ele>1827.12</ele>
        <time>2015-02-26T12:38:07Z</time>
      </trkpt>
      <trkpt lat="46.79503" lon="12.30903">
        <ele>1826.16</ele>
        <time>2015-02-26T12:38:08Z</time>
      </trkpt>
      <trkpt lat="46.79502" lon="12.3091">
        <ele>1824.72</ele>
        <time>2015-02-26T12:38:09Z</time>
      </trkpt>
      <trkpt lat="46.79501" lon="12.30916">
        <ele>1824.24</ele>
        <time>2015-02-26T12:38:10Z</time>
      </trkpt>
      <trkpt lat="46.79502" lon="12.30922">
        <ele>1823.76</ele>
        <time>2015-02-26T12:38:11Z</time>
      </trkpt>
      <trkpt lat="46.79502" lon="12.30929">
        <ele>1823.28</ele>
        <time>2015-02-26T12:38:12Z</time>
      </trkpt>
      <trkpt lat="46.79503" lon="12.30935">
        <ele>1822.8</ele>
        <time>2015-02-26T12:38:13Z</time>
      </trkpt>
      <trkpt lat="46.79505" lon="12.30942">
        <ele>1822.32</ele>
        <time>2015-02-26T12:38:14Z</time>
      </trkpt>
      <trkpt lat="46.79506" lon="12.30948">
        <ele>1820.87</ele>
        <time>2015-02-26T12:38:15Z</time>
      </trkpt>
      <trkpt lat="46.79508" lon="12.30956">
        <ele>1819.43</ele>
        <time>2015-02-26T12:38:16Z</time>
      </trkpt>
      <trkpt lat="46.7951" lon="12.30964">
        <ele>1817.99</ele>
        <time>2015-02-26T12:38:17Z</time>
      </trkpt>
      <trkpt lat="46.79513" lon="12.30971">
        <ele>1817.51</ele>
        <time>2015-02-26T12:38:18Z</time>
      </trkpt>
      <trkpt lat="46.79516" lon="12.30977">
        <ele>1817.03</ele>
        <time>2015-02-26T12:38:19Z</time>
      </trkpt>
      <trkpt lat="46.79519" lon="12.30984">
        <ele>1815.59</ele>
        <time>2015-02-26T12:38:20Z</time>
      </trkpt>
      <trkpt lat="46.79521" lon="12.30991">
        <ele>1815.11</ele>
        <time>2015-02-26T12:38:21Z</time>
      </trkpt>
      <trkpt lat="46.79523" lon="12.30998">
        <ele>1814.15</ele>
        <time>2015-02-26T12:38:22Z</time>
      </trkpt>
      <trkpt lat="46.79523" lon="12.31006">
        <ele>1812.7</ele>
        <time>2015-02-26T12:38:23Z</time>
      </trkpt>
      <trkpt lat="46.79523" lon="12.31013">
        <ele>1811.74</ele>
        <time>2015-02-26T12:38:24Z</time>
      </trkpt>
      <trkpt lat="46.79522" lon="12.3102">
        <ele>1810.78</ele>
        <time>2015-02-26T12:38:25Z</time>
      </trkpt>
      <trkpt lat="46.79522" lon="12.31026">
        <ele>1810.3</ele>
        <time>2015-02-26T12:38:26Z</time>
      </trkpt>
      <trkpt lat="46.79524" lon="12.3103">
        <ele>1809.82</ele>
        <time>2015-02-26T12:38:27Z</time>
      </trkpt>
      <trkpt lat="46.79528" lon="12.31018">
        <ele>1810.3</ele>
        <time>2015-02-26T12:38:36Z</time>
      </trkpt>
      <trkpt lat="46.79529" lon="12.31015">
        <ele>1810.78</ele>
        <time>2015-02-26T12:39:01Z</time>
      </trkpt>
      <trkpt lat="46.79528" lon="12.31013">
        <ele>1810.78</ele>
        <time>2015-02-26T12:39:25Z</time>
      </trkpt>
      <trkpt lat="46.79529" lon="12.31012">
        <ele>1810.78</ele>
        <time>2015-02-26T12:39:50Z</time>
      </trkpt>
      <trkpt lat="46.79529" lon="12.31016">
        <ele>1810.78</ele>
        <time>2015-02-26T12:40:17Z</time>
      </trkpt>
      <trkpt lat="46.79531" lon="12.31014">
        <ele>1811.26</ele>
        <time>2015-02-26T12:40:35Z</time>
      </trkpt>
      <trkpt lat="46.79529" lon="12.31017">
        <ele>1810.78</ele>
        <time>2015-02-26T12:40:44Z</time>
      </trkpt>
      <trkpt lat="46.79528" lon="12.3102">
        <ele>1810.78</ele>
        <time>2015-02-26T12:40:45Z</time>
      </trkpt>
      <trkpt lat="46.79527" lon="12.31025">
        <ele>1809.82</ele>
        <time>2015-02-26T12:40:46Z</time>
      </trkpt>
      <trkpt lat="46.79526" lon="12.31031">
        <ele>1809.34</ele>
        <time>2015-02-26T12:40:47Z</time>
      </trkpt>
      <trkpt lat="46.79526" lon="12.31037">
        <ele>1809.34</ele>
        <time>2015-02-26T12:40:48Z</time>
      </trkpt>
      <trkpt lat="46.79526" lon="12.31042">
        <ele>1808.86</ele>
        <time>2015-02-26T12:40:49Z</time>
      </trkpt>
      <trkpt lat="46.79526" lon="12.31047">
        <ele>1808.86</ele>
        <time>2015-02-26T12:40:50Z</time>
      </trkpt>
      <trkpt lat="46.79527" lon="12.31052">
        <ele>1808.38</ele>
        <time>2015-02-26T12:40:51Z</time>
      </trkpt>
      <trkpt lat="46.79528" lon="12.31056">
        <ele>1808.38</ele>
        <time>2015-02-26T12:40:52Z</time>
      </trkpt>
      <trkpt lat="46.79528" lon="12.3106">
        <ele>1807.9</ele>
        <time>2015-02-26T12:40:53Z</time>
      </trkpt>
      <trkpt lat="46.79529" lon="12.31064">
        <ele>1807.42</ele>
        <time>2015-02-26T12:40:54Z</time>
      </trkpt>
      <trkpt lat="46.7953" lon="12.31069">
        <ele>1807.42</ele>
        <time>2015-02-26T12:40:55Z</time>
      </trkpt>
      <trkpt lat="46.79531" lon="12.31074">
        <ele>1806.45</ele>
        <time>2015-02-26T12:40:56Z</time>
      </trkpt>
      <trkpt lat="46.79532" lon="12.3108">
        <ele>1805.49</ele>
        <time>2015-02-26T12:40:57Z</time>
      </trkpt>
      <trkpt lat="46.79533" lon="12.31086">
        <ele>1805.01</ele>
        <time>2015-02-26T12:40:58Z</time>
      </trkpt>
      <trkpt lat="46.79534" lon="12.31093">
        <ele>1804.05</ele>
        <time>2015-02-26T12:40:59Z</time>
      </trkpt>
      <trkpt lat="46.79535" lon="12.31099">
        <ele>1803.09</ele>
        <time>2015-02-26T12:41:00Z</time>
      </trkpt>
      <trkpt lat="46.79536" lon="12.31105">
        <ele>1802.13</ele>
        <time>2015-02-26T12:41:01Z</time>
      </trkpt>
      <trkpt lat="46.79537" lon="12.31111">
        <ele>1801.17</ele>
        <time>2015-02-26T12:41:02Z</time>
      </trkpt>
      <trkpt lat="46.79539" lon="12.31117">
        <ele>1800.21</ele>
        <time>2015-02-26T12:41:03Z</time>
      </trkpt>
      <trkpt lat="46.7954" lon="12.31123">
        <ele>1798.76</ele>
        <time>2015-02-26T12:41:04Z</time>
      </trkpt>
      <trkpt lat="46.79541" lon="12.31128">
        <ele>1798.28</ele>
        <time>2015-02-26T12:41:05Z</time>
      </trkpt>
      <trkpt lat="46.79542" lon="12.31134">
        <ele>1797.32</ele>
        <time>2015-02-26T12:41:06Z</time>
      </trkpt>
      <trkpt lat="46.79544" lon="12.31148">
        <ele>1795.88</ele>
        <time>2015-02-26T12:41:08Z</time>
      </trkpt>
      <trkpt lat="46.79544" lon="12.31154">
        <ele>1794.92</ele>
        <time>2015-02-26T12:41:09Z</time>
      </trkpt>
      <trkpt lat="46.79543" lon="12.3116">
        <ele>1793.96</ele>
        <time>2015-02-26T12:41:10Z</time>
      </trkpt>
      <trkpt lat="46.79543" lon="12.31165">
        <ele>1794.44</ele>
        <time>2015-02-26T12:41:11Z</time>
      </trkpt>
      <trkpt lat="46.79542" lon="12.3117">
        <ele>1793.96</ele>
        <time>2015-02-26T12:41:12Z</time>
      </trkpt>
      <trkpt lat="46.7954" lon="12.31176">
        <ele>1793</ele>
        <time>2015-02-26T12:41:13Z</time>
      </trkpt>
      <trkpt lat="46.79539" lon="12.31183">
        <ele>1792.52</ele>
        <time>2015-02-26T12:41:14Z</time>
      </trkpt>
      <trkpt lat="46.7954" lon="12.31188">
        <ele>1791.55</ele>
        <time>2015-02-26T12:41:15Z</time>
      </trkpt>
      <trkpt lat="46.79542" lon="12.31193">
        <ele>1791.07</ele>
        <time>2015-02-26T12:41:16Z</time>
      </trkpt>
      <trkpt lat="46.79544" lon="12.31199">
        <ele>1790.11</ele>
        <time>2015-02-26T12:41:17Z</time>
      </trkpt>
      <trkpt lat="46.79544" lon="12.31204">
        <ele>1789.15</ele>
        <time>2015-02-26T12:41:18Z</time>
      </trkpt>
      <trkpt lat="46.79546" lon="12.3121">
        <ele>1788.19</ele>
        <time>2015-02-26T12:41:19Z</time>
      </trkpt>
      <trkpt lat="46.79549" lon="12.31213">
        <ele>1786.75</ele>
        <time>2015-02-26T12:41:20Z</time>
      </trkpt>
      <trkpt lat="46.79552" lon="12.31215">
        <ele>1786.75</ele>
        <time>2015-02-26T12:41:21Z</time>
      </trkpt>
      <trkpt lat="46.79555" lon="12.31219">
        <ele>1785.79</ele>
        <time>2015-02-26T12:41:22Z</time>
      </trkpt>
      <trkpt lat="46.79557" lon="12.31225">
        <ele>1784.82</ele>
        <time>2015-02-26T12:41:23Z</time>
      </trkpt>
      <trkpt lat="46.79558" lon="12.31231">
        <ele>1784.34</ele>
        <time>2015-02-26T12:41:24Z</time>
      </trkpt>
      <trkpt lat="46.79561" lon="12.31236">
        <ele>1783.38</ele>
        <time>2015-02-26T12:41:25Z</time>
      </trkpt>
      <trkpt lat="46.79563" lon="12.31241">
        <ele>1783.38</ele>
        <time>2015-02-26T12:41:26Z</time>
      </trkpt>
      <trkpt lat="46.79564" lon="12.31246">
        <ele>1782.42</ele>
        <time>2015-02-26T12:41:27Z</time>
      </trkpt>
      <trkpt lat="46.79566" lon="12.3125">
        <ele>1781.94</ele>
        <time>2015-02-26T12:41:28Z</time>
      </trkpt>
      <trkpt lat="46.79568" lon="12.31254">
        <ele>1781.94</ele>
        <time>2015-02-26T12:41:29Z</time>
      </trkpt>
      <trkpt lat="46.7957" lon="12.31257">
        <ele>1780.98</ele>
        <time>2015-02-26T12:41:30Z</time>
      </trkpt>
      <trkpt lat="46.79573" lon="12.31261">
        <ele>1780.02</ele>
        <time>2015-02-26T12:41:31Z</time>
      </trkpt>
      <trkpt lat="46.79576" lon="12.31266">
        <ele>1780.02</ele>
        <time>2015-02-26T12:41:32Z</time>
      </trkpt>
      <trkpt lat="46.79581" lon="12.31278">
        <ele>1778.58</ele>
        <time>2015-02-26T12:41:35Z</time>
      </trkpt>
      <trkpt lat="46.79585" lon="12.31282">
        <ele>1777.13</ele>
        <time>2015-02-26T12:41:37Z</time>
      </trkpt>
      <trkpt lat="46.79587" lon="12.31282">
        <ele>1777.13</ele>
        <time>2015-02-26T12:41:38Z</time>
      </trkpt>
      <trkpt lat="46.79592" lon="12.3128">
        <ele>1775.21</ele>
        <time>2015-02-26T12:41:44Z</time>
      </trkpt>
      <trkpt lat="46.79593" lon="12.31282">
        <ele>1775.21</ele>
        <time>2015-02-26T12:41:45Z</time>
      </trkpt>
      <trkpt lat="46.79596" lon="12.31288">
        <ele>1775.21</ele>
        <time>2015-02-26T12:41:47Z</time>
      </trkpt>
      <trkpt lat="46.79596" lon="12.31292">
        <ele>1774.25</ele>
        <time>2015-02-26T12:41:48Z</time>
      </trkpt>
      <trkpt lat="46.79596" lon="12.31296">
        <ele>1773.77</ele>
        <time>2015-02-26T12:41:49Z</time>
      </trkpt>
      <trkpt lat="46.79595" lon="12.31299">
        <ele>1773.77</ele>
        <time>2015-02-26T12:41:50Z</time>
      </trkpt>
      <trkpt lat="46.79596" lon="12.31301">
        <ele>1773.77</ele>
        <time>2015-02-26T12:41:51Z</time>
      </trkpt>
      <trkpt lat="46.79593" lon="12.31305">
        <ele>1773.77</ele>
        <time>2015-02-26T12:42:05Z</time>
      </trkpt>
      <trkpt lat="46.79593" lon="12.31306">
        <ele>1773.77</ele>
        <time>2015-02-26T12:42:26Z</time>
      </trkpt>
      <trkpt lat="46.79593" lon="12.31308">
        <ele>1773.77</ele>
        <time>2015-02-26T12:42:31Z</time>
      </trkpt>
      <trkpt lat="46.79593" lon="12.31311">
        <ele>1773.77</ele>
        <time>2015-02-26T12:42:32Z</time>
      </trkpt>
      <trkpt lat="46.79594" lon="12.31315">
        <ele>1773.29</ele>
        <time>2015-02-26T12:42:33Z</time>
      </trkpt>
      <trkpt lat="46.79609" lon="12.31346">
        <ele>1769.92</ele>
        <time>2015-02-26T12:42:42Z</time>
      </trkpt>
      <trkpt lat="46.79626" lon="12.31365">
        <ele>1766.56</ele>
        <time>2015-02-26T12:42:48Z</time>
      </trkpt>
      <trkpt lat="46.79641" lon="12.31372">
        <ele>1764.16</ele>
        <time>2015-02-26T12:42:52Z</time>
      </trkpt>
      <trkpt lat="46.79645" lon="12.31375">
        <ele>1762.71</ele>
        <time>2015-02-26T12:42:53Z</time>
      </trkpt>
      <trkpt lat="46.79663" lon="12.31385">
        <ele>1759.83</ele>
        <time>2015-02-26T12:42:58Z</time>
      </trkpt>
      <trkpt lat="46.79665" lon="12.3139">
        <ele>1759.35</ele>
        <time>2015-02-26T12:42:59Z</time>
      </trkpt>
      <trkpt lat="46.79669" lon="12.31399">
        <ele>1758.39</ele>
        <time>2015-02-26T12:43:01Z</time>
      </trkpt>
      <trkpt lat="46.79676" lon="12.31413">
        <ele>1756.95</ele>
        <time>2015-02-26T12:43:04Z</time>
      </trkpt>
      <trkpt lat="46.79678" lon="12.31417">
        <ele>1756.95</ele>
        <time>2015-02-26T12:43:05Z</time>
      </trkpt>
      <trkpt lat="46.79678" lon="12.31419">
        <ele>1756.47</ele>
        <time>2015-02-26T12:43:06Z</time>
      </trkpt>
      <trkpt lat="46.79679" lon="12.31425">
        <ele>1755.99</ele>
        <time>2015-02-26T12:43:11Z</time>
      </trkpt>
      <trkpt lat="46.7968" lon="12.31428">
        <ele>1755.5</ele>
        <time>2015-02-26T12:43:12Z</time>
      </trkpt>
      <trkpt lat="46.79684" lon="12.31439">
        <ele>1753.58</ele>
        <time>2015-02-26T12:43:14Z</time>
      </trkpt>
      <trkpt lat="46.79686" lon="12.31445">
        <ele>1753.1</ele>
        <time>2015-02-26T12:43:15Z</time>
      </trkpt>
      <trkpt lat="46.79687" lon="12.31452">
        <ele>1752.62</ele>
        <time>2015-02-26T12:43:16Z</time>
      </trkpt>
      <trkpt lat="46.79687" lon="12.31458">
        <ele>1751.66</ele>
        <time>2015-02-26T12:43:17Z</time>
      </trkpt>
      <trkpt lat="46.79687" lon="12.31462">
        <ele>1751.18</ele>
        <time>2015-02-26T12:43:18Z</time>
      </trkpt>
      <trkpt lat="46.79686" lon="12.31464">
        <ele>1752.14</ele>
        <time>2015-02-26T12:43:19Z</time>
      </trkpt>
      <trkpt lat="46.79686" lon="12.31466">
        <ele>1752.14</ele>
        <time>2015-02-26T12:43:33Z</time>
      </trkpt>
      <trkpt lat="46.79687" lon="12.31469">
        <ele>1752.14</ele>
        <time>2015-02-26T12:43:37Z</time>
      </trkpt>
      <trkpt lat="46.79688" lon="12.31471">
        <ele>1751.66</ele>
        <time>2015-02-26T12:43:38Z</time>
      </trkpt>
      <trkpt lat="46.7969" lon="12.31474">
        <ele>1751.66</ele>
        <time>2015-02-26T12:43:39Z</time>
      </trkpt>
      <trkpt lat="46.79692" lon="12.31478">
        <ele>1750.7</ele>
        <time>2015-02-26T12:43:40Z</time>
      </trkpt>
      <trkpt lat="46.79692" lon="12.31483">
        <ele>1749.74</ele>
        <time>2015-02-26T12:43:41Z</time>
      </trkpt>
      <trkpt lat="46.79693" lon="12.31489">
        <ele>1748.78</ele>
        <time>2015-02-26T12:43:42Z</time>
      </trkpt>
      <trkpt lat="46.79695" lon="12.31492">
        <ele>1748.29</ele>
        <time>2015-02-26T12:43:43Z</time>
      </trkpt>
      <trkpt lat="46.79698" lon="12.31495">
        <ele>1747.81</ele>
        <time>2015-02-26T12:43:44Z</time>
      </trkpt>
      <trkpt lat="46.79699" lon="12.31498">
        <ele>1747.33</ele>
        <time>2015-02-26T12:43:45Z</time>
      </trkpt>
      <trkpt lat="46.797" lon="12.31498">
        <ele>1745.89</ele>
        <time>2015-02-26T12:43:46Z</time>
      </trkpt>
      <trkpt lat="46.79702" lon="12.31496">
        <ele>1745.41</ele>
        <time>2015-02-26T12:43:47Z</time>
      </trkpt>
      <trkpt lat="46.79705" lon="12.31497">
        <ele>1745.89</ele>
        <time>2015-02-26T12:44:05Z</time>
      </trkpt>
      <trkpt lat="46.79709" lon="12.31494">
        <ele>1744.93</ele>
        <time>2015-02-26T12:44:18Z</time>
      </trkpt>
      <trkpt lat="46.79705" lon="12.31494">
        <ele>1744.93</ele>
        <time>2015-02-26T12:44:40Z</time>
      </trkpt>
      <trkpt lat="46.79709" lon="12.31498">
        <ele>1744.93</ele>
        <time>2015-02-26T12:45:06Z</time>
      </trkpt>
      <trkpt lat="46.79709" lon="12.31499">
        <ele>1744.93</ele>
        <time>2015-02-26T12:45:07Z</time>
      </trkpt>
      <trkpt lat="46.79713" lon="12.315">
        <ele>1744.45</ele>
        <time>2015-02-26T12:45:22Z</time>
      </trkpt>
      <trkpt lat="46.79716" lon="12.31498">
        <ele>1744.45</ele>
        <time>2015-02-26T12:45:32Z</time>
      </trkpt>
      <trkpt lat="46.79717" lon="12.31497">
        <ele>1744.45</ele>
        <time>2015-02-26T12:45:33Z</time>
      </trkpt>
      <trkpt lat="46.7973" lon="12.31497">
        <ele>1742.05</ele>
        <time>2015-02-26T12:45:38Z</time>
      </trkpt>
      <trkpt lat="46.79733" lon="12.31498">
        <ele>1742.05</ele>
        <time>2015-02-26T12:45:39Z</time>
      </trkpt>
      <trkpt lat="46.79736" lon="12.31501">
        <ele>1741.08</ele>
        <time>2015-02-26T12:45:40Z</time>
      </trkpt>
      <trkpt lat="46.79737" lon="12.31506">
        <ele>1740.12</ele>
        <time>2015-02-26T12:45:41Z</time>
      </trkpt>
      <trkpt lat="46.79738" lon="12.31511">
        <ele>1740.12</ele>
        <time>2015-02-26T12:45:42Z</time>
      </trkpt>
      <trkpt lat="46.7974" lon="12.31515">
        <ele>1739.64</ele>
        <time>2015-02-26T12:45:43Z</time>
      </trkpt>
      <trkpt lat="46.79744" lon="12.31518">
        <ele>1739.16</ele>
        <time>2015-02-26T12:45:44Z</time>
      </trkpt>
      <trkpt lat="46.79747" lon="12.31521">
        <ele>1738.2</ele>
        <time>2015-02-26T12:45:45Z</time>
      </trkpt>
      <trkpt lat="46.7975" lon="12.31525">
        <ele>1737.24</ele>
        <time>2015-02-26T12:45:46Z</time>
      </trkpt>
      <trkpt lat="46.79756" lon="12.31527">
        <ele>1736.76</ele>
        <time>2015-02-26T12:45:55Z</time>
      </trkpt>
      <trkpt lat="46.79756" lon="12.31522">
        <ele>1736.76</ele>
        <time>2015-02-26T12:46:22Z</time>
      </trkpt>
      <trkpt lat="46.79765" lon="12.3153">
        <ele>1735.8</ele>
        <time>2015-02-26T12:46:42Z</time>
      </trkpt>
      <trkpt lat="46.79779" lon="12.31541">
        <ele>1733.39</ele>
        <time>2015-02-26T12:46:46Z</time>
      </trkpt>
      <trkpt lat="46.79782" lon="12.31545">
        <ele>1732.91</ele>
        <time>2015-02-26T12:46:47Z</time>
      </trkpt>
      <trkpt lat="46.79786" lon="12.31548">
        <ele>1731.95</ele>
        <time>2015-02-26T12:46:48Z</time>
      </trkpt>
      <trkpt lat="46.7979" lon="12.31551">
        <ele>1730.51</ele>
        <time>2015-02-26T12:46:49Z</time>
      </trkpt>
      <trkpt lat="46.79794" lon="12.31555">
        <ele>1730.03</ele>
        <time>2015-02-26T12:46:50Z</time>
      </trkpt>
      <trkpt lat="46.79798" lon="12.31558">
        <ele>1730.03</ele>
        <time>2015-02-26T12:46:51Z</time>
      </trkpt>
      <trkpt lat="46.79802" lon="12.31562">
        <ele>1728.11</ele>
        <time>2015-02-26T12:46:52Z</time>
      </trkpt>
      <trkpt lat="46.79806" lon="12.31565">
        <ele>1728.11</ele>
        <time>2015-02-26T12:46:53Z</time>
      </trkpt>
      <trkpt lat="46.79811" lon="12.31567">
        <ele>1727.15</ele>
        <time>2015-02-26T12:46:54Z</time>
      </trkpt>
      <trkpt lat="46.79816" lon="12.3157">
        <ele>1725.7</ele>
        <time>2015-02-26T12:46:55Z</time>
      </trkpt>
      <trkpt lat="46.79822" lon="12.31574">
        <ele>1724.74</ele>
        <time>2015-02-26T12:46:56Z</time>
      </trkpt>
      <trkpt lat="46.79828" lon="12.31578">
        <ele>1723.78</ele>
        <time>2015-02-26T12:46:57Z</time>
      </trkpt>
      <trkpt lat="46.79834" lon="12.31583">
        <ele>1721.86</ele>
        <time>2015-02-26T12:46:58Z</time>
      </trkpt>
      <trkpt lat="46.79845" lon="12.3159">
        <ele>1720.42</ele>
        <time>2015-02-26T12:47:00Z</time>
      </trkpt>
      <trkpt lat="46.79851" lon="12.31593">
        <ele>1719.46</ele>
        <time>2015-02-26T12:47:01Z</time>
      </trkpt>
      <trkpt lat="46.79857" lon="12.31596">
        <ele>1719.46</ele>
        <time>2015-02-26T12:47:02Z</time>
      </trkpt>
      <trkpt lat="46.79869" lon="12.316">
        <ele>1717.05</ele>
        <time>2015-02-26T12:47:04Z</time>
      </trkpt>
      <trkpt lat="46.79875" lon="12.316">
        <ele>1716.57</ele>
        <time>2015-02-26T12:47:05Z</time>
      </trkpt>
      <trkpt lat="46.79881" lon="12.316">
        <ele>1716.57</ele>
        <time>2015-02-26T12:47:06Z</time>
      </trkpt>
      <trkpt lat="46.79913" lon="12.31592">
        <ele>1714.65</ele>
        <time>2015-02-26T12:47:12Z</time>
      </trkpt>
      <trkpt lat="46.79918" lon="12.31593">
        <ele>1715.61</ele>
        <time>2015-02-26T12:47:13Z</time>
      </trkpt>
      <trkpt lat="46.79923" lon="12.31594">
        <ele>1714.65</ele>
        <time>2015-02-26T12:47:14Z</time>
      </trkpt>
      <trkpt lat="46.79926" lon="12.31596">
        <ele>1715.13</ele>
        <time>2015-02-26T12:47:15Z</time>
      </trkpt>
      <trkpt lat="46.7993" lon="12.31598">
        <ele>1714.65</ele>
        <time>2015-02-26T12:47:16Z</time>
      </trkpt>
      <trkpt lat="46.79934" lon="12.31601">
        <ele>1714.65</ele>
        <time>2015-02-26T12:47:17Z</time>
      </trkpt>
      <trkpt lat="46.79937" lon="12.31604">
        <ele>1714.17</ele>
        <time>2015-02-26T12:47:18Z</time>
      </trkpt>
      <trkpt lat="46.79986" lon="12.31643">
        <ele>1710.8</ele>
        <time>2015-02-26T12:47:34Z</time>
      </trkpt>
      <trkpt lat="46.80039" lon="12.31672">
        <ele>1708.4</ele>
        <time>2015-02-26T12:47:52Z</time>
      </trkpt>
      <trkpt lat="46.8007" lon="12.31678">
        <ele>1705.04</ele>
        <time>2015-02-26T12:48:02Z</time>
      </trkpt>
      <trkpt lat="46.80067" lon="12.31675">
        <ele>1706</ele>
        <time>2015-02-26T12:48:15Z</time>
      </trkpt>
      <trkpt lat="46.8007" lon="12.31678">
        <ele>1706</ele>
        <time>2015-02-26T12:48:21Z</time>
      </trkpt>
      <trkpt lat="46.80072" lon="12.31679">
        <ele>1706</ele>
        <time>2015-02-26T12:48:22Z</time>
      </trkpt>
      <trkpt lat="46.80074" lon="12.3168">
        <ele>1706</ele>
        <time>2015-02-26T12:48:23Z</time>
      </trkpt>
      <trkpt lat="46.80076" lon="12.31682">
        <ele>1705.52</ele>
        <time>2015-02-26T12:48:24Z</time>
      </trkpt>
      <trkpt lat="46.80078" lon="12.31685">
        <ele>1705.04</ele>
        <time>2015-02-26T12:48:25Z</time>
      </trkpt>
      <trkpt lat="46.80082" lon="12.31688">
        <ele>1703.59</ele>
        <time>2015-02-26T12:48:26Z</time>
      </trkpt>
      <trkpt lat="46.80086" lon="12.3169">
        <ele>1703.59</ele>
        <time>2015-02-26T12:48:27Z</time>
      </trkpt>
      <trkpt lat="46.8009" lon="12.31693">
        <ele>1702.15</ele>
        <time>2015-02-26T12:48:28Z</time>
      </trkpt>
      <trkpt lat="46.801" lon="12.31701">
        <ele>1700.71</ele>
        <time>2015-02-26T12:48:30Z</time>
      </trkpt>
      <trkpt lat="46.80105" lon="12.31704">
        <ele>1701.19</ele>
        <time>2015-02-26T12:48:31Z</time>
      </trkpt>
      <trkpt lat="46.80113" lon="12.31712">
        <ele>1698.79</ele>
        <time>2015-02-26T12:48:33Z</time>
      </trkpt>
      <trkpt lat="46.80117" lon="12.31713">
        <ele>1697.83</ele>
        <time>2015-02-26T12:48:34Z</time>
      </trkpt>
      <trkpt lat="46.80122" lon="12.31714">
        <ele>1697.83</ele>
        <time>2015-02-26T12:48:35Z</time>
      </trkpt>
      <trkpt lat="46.80126" lon="12.31715">
        <ele>1697.83</ele>
        <time>2015-02-26T12:48:36Z</time>
      </trkpt>
      <trkpt lat="46.8013" lon="12.31717">
        <ele>1697.34</ele>
        <time>2015-02-26T12:48:37Z</time>
      </trkpt>
      <trkpt lat="46.80135" lon="12.31719">
        <ele>1695.9</ele>
        <time>2015-02-26T12:48:38Z</time>
      </trkpt>
      <trkpt lat="46.8014" lon="12.31721">
        <ele>1694.46</ele>
        <time>2015-02-26T12:48:39Z</time>
      </trkpt>
      <trkpt lat="46.80146" lon="12.31722">
        <ele>1693.98</ele>
        <time>2015-02-26T12:48:40Z</time>
      </trkpt>
      <trkpt lat="46.80152" lon="12.31723">
        <ele>1693.5</ele>
        <time>2015-02-26T12:48:41Z</time>
      </trkpt>
      <trkpt lat="46.80186" lon="12.3173">
        <ele>1690.14</ele>
        <time>2015-02-26T12:48:47Z</time>
      </trkpt>
      <trkpt lat="46.80198" lon="12.31733">
        <ele>1687.25</ele>
        <time>2015-02-26T12:48:49Z</time>
      </trkpt>
      <trkpt lat="46.80204" lon="12.31733">
        <ele>1686.77</ele>
        <time>2015-02-26T12:48:50Z</time>
      </trkpt>
      <trkpt lat="46.80225" lon="12.31733">
        <ele>1684.85</ele>
        <time>2015-02-26T12:48:54Z</time>
      </trkpt>
      <trkpt lat="46.80235" lon="12.31732">
        <ele>1685.33</ele>
        <time>2015-02-26T12:48:56Z</time>
      </trkpt>
      <trkpt lat="46.8024" lon="12.31734">
        <ele>1683.89</ele>
        <time>2015-02-26T12:48:57Z</time>
      </trkpt>
      <trkpt lat="46.80245" lon="12.31735">
        <ele>1682.93</ele>
        <time>2015-02-26T12:48:58Z</time>
      </trkpt>
      <trkpt lat="46.8025" lon="12.31736">
        <ele>1682.44</ele>
        <time>2015-02-26T12:48:59Z</time>
      </trkpt>
      <trkpt lat="46.80255" lon="12.31738">
        <ele>1681.48</ele>
        <time>2015-02-26T12:49:00Z</time>
      </trkpt>
      <trkpt lat="46.8026" lon="12.3174">
        <ele>1681</ele>
        <time>2015-02-26T12:49:01Z</time>
      </trkpt>
      <trkpt lat="46.80266" lon="12.31743">
        <ele>1680.52</ele>
        <time>2015-02-26T12:49:02Z</time>
      </trkpt>
      <trkpt lat="46.8027" lon="12.31746">
        <ele>1679.56</ele>
        <time>2015-02-26T12:49:03Z</time>
      </trkpt>
      <trkpt lat="46.80275" lon="12.31748">
        <ele>1678.6</ele>
        <time>2015-02-26T12:49:04Z</time>
      </trkpt>
      <trkpt lat="46.8028" lon="12.31752">
        <ele>1678.6</ele>
        <time>2015-02-26T12:49:05Z</time>
      </trkpt>
      <trkpt lat="46.80283" lon="12.31754">
        <ele>1677.16</ele>
        <time>2015-02-26T12:49:06Z</time>
      </trkpt>
      <trkpt lat="46.80287" lon="12.31755">
        <ele>1677.16</ele>
        <time>2015-02-26T12:49:07Z</time>
      </trkpt>
      <trkpt lat="46.80291" lon="12.31756">
        <ele>1676.2</ele>
        <time>2015-02-26T12:49:08Z</time>
      </trkpt>
      <trkpt lat="46.80292" lon="12.31758">
        <ele>1676.2</ele>
        <time>2015-02-26T12:49:09Z</time>
      </trkpt>
      <trkpt lat="46.80293" lon="12.3176">
        <ele>1675.23</ele>
        <time>2015-02-26T12:49:10Z</time>
      </trkpt>
      <trkpt lat="46.80292" lon="12.31762">
        <ele>1675.72</ele>
        <time>2015-02-26T12:49:11Z</time>
      </trkpt>
      <trkpt lat="46.80292" lon="12.31769">
        <ele>1674.27</ele>
        <time>2015-02-26T12:49:13Z</time>
      </trkpt>
      <trkpt lat="46.80293" lon="12.31773">
        <ele>1673.31</ele>
        <time>2015-02-26T12:49:14Z</time>
      </trkpt>
      <trkpt lat="46.80295" lon="12.31775">
        <ele>1672.83</ele>
        <time>2015-02-26T12:49:15Z</time>
      </trkpt>
      <trkpt lat="46.80297" lon="12.31777">
        <ele>1672.35</ele>
        <time>2015-02-26T12:49:16Z</time>
      </trkpt>
      <trkpt lat="46.80305" lon="12.31788">
        <ele>1668.99</ele>
        <time>2015-02-26T12:49:21Z</time>
      </trkpt>
      <trkpt lat="46.8031" lon="12.31792">
        <ele>1667.54</ele>
        <time>2015-02-26T12:49:24Z</time>
      </trkpt>
      <trkpt lat="46.80318" lon="12.31784">
        <ele>1664.18</ele>
        <time>2015-02-26T12:49:28Z</time>
      </trkpt>
      <trkpt lat="46.80331" lon="12.31776">
        <ele>1662.74</ele>
        <time>2015-02-26T12:49:32Z</time>
      </trkpt>
      <trkpt lat="46.80341" lon="12.31779">
        <ele>1657.45</ele>
        <time>2015-02-26T12:49:36Z</time>
      </trkpt>
      <trkpt lat="46.80344" lon="12.3178">
        <ele>1657.45</ele>
        <time>2015-02-26T12:49:37Z</time>
      </trkpt>
      <trkpt lat="46.80361" lon="12.31784">
        <ele>1654.57</ele>
        <time>2015-02-26T12:49:41Z</time>
      </trkpt>
      <trkpt lat="46.80373" lon="12.31797">
        <ele>1651.2</ele>
        <time>2015-02-26T12:49:45Z</time>
      </trkpt>
      <trkpt lat="46.80384" lon="12.31806">
        <ele>1648.32</ele>
        <time>2015-02-26T12:49:48Z</time>
      </trkpt>
      <trkpt lat="46.80387" lon="12.31809">
        <ele>1648.32</ele>
        <time>2015-02-26T12:49:49Z</time>
      </trkpt>
      <trkpt lat="46.8039" lon="12.31824">
        <ele>1647.36</ele>
        <time>2015-02-26T12:50:01Z</time>
      </trkpt>
      <trkpt lat="46.80394" lon="12.31827">
        <ele>1646.88</ele>
        <time>2015-02-26T12:50:14Z</time>
      </trkpt>
      <trkpt lat="46.80419" lon="12.31831">
        <ele>1643.51</ele>
        <time>2015-02-26T12:50:21Z</time>
      </trkpt>
      <trkpt lat="46.8043" lon="12.3183">
        <ele>1642.55</ele>
        <time>2015-02-26T12:50:30Z</time>
      </trkpt>
      <trkpt lat="46.80431" lon="12.3183">
        <ele>1642.55</ele>
        <time>2015-02-26T12:50:35Z</time>
      </trkpt>
      <trkpt lat="46.80441" lon="12.31816">
        <ele>1642.07</ele>
        <time>2015-02-26T12:50:49Z</time>
      </trkpt>
      <trkpt lat="46.80438" lon="12.31813">
        <ele>1642.07</ele>
        <time>2015-02-26T12:51:03Z</time>
      </trkpt>
      <trkpt lat="46.80439" lon="12.31812">
        <ele>1642.55</ele>
        <time>2015-02-26T12:51:22Z</time>
      </trkpt>
      <trkpt lat="46.80441" lon="12.31812">
        <ele>1641.59</ele>
        <time>2015-02-26T12:51:41Z</time>
      </trkpt>
      <trkpt lat="46.80443" lon="12.31813">
        <ele>1641.11</ele>
        <time>2015-02-26T12:52:11Z</time>
      </trkpt>
      <trkpt lat="46.80443" lon="12.31813">
        <ele>1641.59</ele>
        <time>2015-02-26T12:52:45Z</time>
      </trkpt>
      <trkpt lat="46.80445" lon="12.31812">
        <ele>1641.59</ele>
        <time>2015-02-26T12:53:07Z</time>
      </trkpt>
      <trkpt lat="46.80442" lon="12.31808">
        <ele>1642.07</ele>
        <time>2015-02-26T12:53:35Z</time>
      </trkpt>
      <trkpt lat="46.8044" lon="12.31806">
        <ele>1642.07</ele>
        <time>2015-02-26T12:54:00Z</time>
      </trkpt>
      <trkpt lat="46.8044" lon="12.31809">
        <ele>1642.07</ele>
        <time>2015-02-26T12:54:25Z</time>
      </trkpt>
      <trkpt lat="46.80441" lon="12.31807">
        <ele>1642.55</ele>
        <time>2015-02-26T12:54:52Z</time>
      </trkpt>
      <trkpt lat="46.8044" lon="12.31806">
        <ele>1642.55</ele>
        <time>2015-02-26T12:55:15Z</time>
      </trkpt>
      <trkpt lat="46.80446" lon="12.31809">
        <ele>1643.03</ele>
        <time>2015-02-26T12:55:45Z</time>
      </trkpt>
      <trkpt lat="46.80444" lon="12.31807">
        <ele>1643.03</ele>
        <time>2015-02-26T12:56:18Z</time>
      </trkpt>
      <trkpt lat="46.80448" lon="12.31811">
        <ele>1643.99</ele>
        <time>2015-02-26T12:56:49Z</time>
      </trkpt>
      <trkpt lat="46.80452" lon="12.3181">
        <ele>1643.99</ele>
        <time>2015-02-26T12:57:15Z</time>
      </trkpt>
      <trkpt lat="46.80453" lon="12.3181">
        <ele>1644.47</ele>
        <time>2015-02-26T12:57:43Z</time>
      </trkpt>
      <trkpt lat="46.80441" lon="12.31814">
        <ele>1644.47</ele>
        <time>2015-02-26T12:58:09Z</time>
      </trkpt>
      <trkpt lat="46.80437" lon="12.31815">
        <ele>1644.95</ele>
        <time>2015-02-26T12:58:42Z</time>
      </trkpt>
      <trkpt lat="46.80442" lon="12.31812">
        <ele>1645.43</ele>
        <time>2015-02-26T12:59:21Z</time>
      </trkpt>
      <trkpt lat="46.80442" lon="12.31811">
        <ele>1645.91</ele>
        <time>2015-02-26T12:59:52Z</time>
      </trkpt>
      <trkpt lat="46.8044" lon="12.31815">
        <ele>1646.4</ele>
        <time>2015-02-26T13:00:29Z</time>
      </trkpt>
      <trkpt lat="46.8044" lon="12.31809">
        <ele>1646.4</ele>
        <time>2015-02-26T13:01:00Z</time>
      </trkpt>
      <trkpt lat="46.80443" lon="12.31811">
        <ele>1646.88</ele>
        <time>2015-02-26T13:01:28Z</time>
      </trkpt>
      <trkpt lat="46.80443" lon="12.31809">
        <ele>1647.36</ele>
        <time>2015-02-26T13:01:59Z</time>
      </trkpt>
      <trkpt lat="46.80438" lon="12.31815">
        <ele>1648.32</ele>
        <time>2015-02-26T13:02:13Z</time>
      </trkpt>
      <trkpt lat="46.80437" lon="12.31817">
        <ele>1647.36</ele>
        <time>2015-02-26T13:02:33Z</time>
      </trkpt>
    </trkseg>
  </trk>
</gpx>